     2              OBSERVATION DATA    GPS                 RINEX VERSION / TYPE
teqc 1997Sep28 Duncan Agnew 19980804 18:55:08UTC            PGM / RUN BY / DATE
                                                            COMMENT
Original Marker Name: TORO                                  COMMENT
Campaign Name: Pinyon Polygon 1991                          COMMENT
4-Character Station Name: TORO                              COMMENT
6-Character Antenna Code: TRMSST                            COMMENT
Vertical Measurement Point: BGP                             COMMENT
Vertical Offset to Rinex Ref. Point: 0.0597                 COMMENT
Radial Measurement Point: NGP                               COMMENT
Radial Offset to Rinex Ref. Point: 0.2334                   COMMENT
Antenna Height from Field Measurement: 1.4220 m             COMMENT
Original XYZ: -2369748.0954 -4768443.6227 3503964.0127      COMMENT
New XYZ position is based on association with SCEC monument COMMENT
E1D0J9T6+0011. Position of that monument is believed to be  COMMENT
valid to within 1 m horizontally; vertical accuracy         COMMENT
should be no worse than 3-times this value.                 COMMENT
                                                            COMMENT
Revised Rinex header created by UCSD GPS archive for        COMMENT
GSAC on 12-Apr-1999 (1999:102) 06:54:16 GMT                 COMMENT
For assistance contact dagnew@ucsd.edu or hjohnson@ucsd.edu COMMENT
                                                            COMMENT
TORO 1980                                                   MARKER NAME
Vernon SCRIPPS INSTITUTION OF OCEANOGRAPHY                  OBSERVER / AGENCY
494 TRIMBLE 4000 SST NP 4.11 / SP 4.10                      REC # / TYPE / VERS
37 TR 4000SST L1/L2 GEO                                     ANT # / TYPE
 -2369748.0000 -4768431.0000  3503964.0000                  APPROX POSITION XYZ
        1.3430        0.0000        0.0000                  ANTENNA: DELTA H/E/N
     1     1     0                                          WAVELENGTH FACT L1/2
     3    C1    L1    L2                                    # / TYPES OF OBSERV
     0                                                      INTERVAL
  1991     5     1    21    52    0.000000                  TIME OF FIRST OBS
  1991     5     2     1    59   60.000000                  TIME OF LAST OBS
     0                                                      # OF SATELLITES
                                                            END OF HEADER
 91  5  1 21 52  0.0000000  0  6G 2G 6G11G13G15G19
  20953032.2664         -0.49947
  21842513.6884         -0.82357
  24820009.7194         -0.18155
  24418138.4844         -0.98454
  24336352.8984         -0.44655
  22239800.5394         -0.37656
 91  5  1 21 52 15.0000000  0  6G 2G 6G11G13G15G19
  20949930.2584     -16308.26048
  21835022.2424     -39356.38347
  24826778.2734      35569.77845
  24404477.8444     -71772.53343
  24329201.9384     -37584.31445
  22243272.2424      18256.38646
 91  5  1 21 52 30.0000000  0  7G 2G 6G11G13G15G19G16
  20946838.6954     -32556.89048        -0.25573
  21827541.2894     -78684.54247        -0.08072
  24833563.9844      71210.66945        -0.13471
  24390827.6564    -143524.75142
  24322068.7734     -75087.33545        -0.08271
  22246763.0474      36583.90246        -0.30272
  25147318.6254         -0.32252
 91  5  1 21 52 45.0000000  0  7G 2G 6G11G13G15G19G16
  20943758.1254     -48746.88548    -12615.82263
  21820061.7814    -117985.46247    -30624.12962
  24840360.6564     106921.94345     27826.73561
  24377171.9224    -215257.30442
  24314947.2664    -112509.34045    -29159.96461
  22250260.2274      54981.91046     14335.76962
  25150990.5944      19272.53843
 91  5  1 21 53  0.0000000  0  7G 2G 6G11G13G15G19G16
  20940687.6954     -64877.52948    -25185.14663
  21812590.1174    -157258.21647    -61226.22662
  24847168.1644     142703.87545     55708.68061
  24363524.7114    -286969.22842
  24307839.4534    -149849.36545    -58255.95661
  22253780.8204      73451.14946     28727.34462
  25154663.5704      38582.31243
 91  5  1 21 53 15.0000000  0  7G 2G 6G11G13G15G19G16
  20937629.9144     -80950.54148    -37709.56263
  21805120.5164    -196504.15547    -91807.42462
  24853991.5234     178554.57445     83644.18161
  24349887.7424    -358661.77843
  24300749.9384    -187108.57745    -87288.98961
  22257304.5394      91990.04546     43173.19762
  25158338.5164      57927.05542
 91  5  1 21 53 30.0000000  0  7G 2G 6G11G13G15G19G16
  20934581.9774     -96967.23648    -50190.09263
  21797654.8134    -235724.48146   -122368.68362
  24860823.6254     214472.29145    111631.91861
  24336244.7424    -430335.88043
  24293675.5864    -224288.08545   -116259.94161
  22260847.8134     110597.10446     57672.14263
  25162029.8984      77305.30243
 91  5  1 21 53 45.0000000  0  7G 2G 6G11G13G15G19G16
  20931544.8754    -112922.77948    -62622.97463
  21790196.6024    -274913.94046   -152905.89762
  24867668.3984     250461.70345    139675.52161
  24322613.9924    -501986.22744
  24286615.2814    -261382.03345   -145164.22661
  22264396.5234     129277.49746     72228.23162
  25165723.7504      96721.50942
 91  5  1 21 54  0.0000000  0  7G 2G 6G11G13G15G19G16
  20928520.2664    -128820.36748    -75010.69963
  21782743.4614    -314075.41746   -183421.31262
  24874530.1254     286519.49545    167772.43161
  24308981.5314    -573615.34244        -0.09071
  24279572.9064    -298393.51445
  22267965.9304     148028.08946     86839.02063
  25169415.9454     116172.47142
 91  5  1 21 54 15.0000000  0  6G 2G 6G11G13G15G19
  20925506.7274    -144659.70248    -87353.02863
  21775300.3674    -353208.33647   -213914.47062
  24881404.7974     322645.64644    195922.64661
  24295356.1254    -645222.47944    -55797.56361
  24272542.6254    -335321.89145
  22271547.4384     166849.38646    101504.91163
 91  5  1 21 54 30.0000000  0  6G 2G 6G11G13G15G19
  20922502.9304    -160442.83348    -99651.55963
  21767858.8364    -392314.57247   -244386.82162
  24888288.9144     358837.61944    224124.11961
  24281732.9144    -716809.18744   -111579.13361
  24265531.7974    -372168.57045        -0.07271
  22275148.0704     185739.30846    116224.28763
 91  5  1 21 54 45.0000000  0  6G 2G 6G11G13G15G19
  20919510.8674    -176168.63448   -111905.42163
  21760422.6884    -431392.81747   -274837.36462
  24895191.1804     395096.28244    252377.55961
  24268112.5784    -788374.10744   -167343.71461
  24258535.1804    -408932.33345    -28647.03961
  22278751.8054     204698.96046    130997.99363
 91  5  1 21 55  0.0000000  0  6G 2G 6G11G13G15G19
  20916530.3754    -191835.28548   -124113.19263
  21752991.5314    -470441.06747   -305264.52762
  24902104.2274     431422.99045    280684.00061
  24254501.5944    -859915.14944   -223089.70261
  24251555.4304    -445610.89945    -57227.62061
  22282372.6024     223730.05946    145827.37463
 91  5  1 21 55 15.0000000  0  6G 2G 6G11G13G15G19
  20913558.3594    -207441.55348   -136273.91063
  21745567.4304    -509457.68847   -335667.04262
  24909030.3834     467818.94245    309044.38861
  24240891.9924    -931430.35844   -278815.58361
  24244595.0234    -482202.45145    -85740.39461
  22286009.5234     242834.12846    160713.61563
 91  5  1 21 55 30.0000000  0  6G 2G 6G11G13G15G19
  20910601.8984    -222987.82948   -148387.88763
  21738149.4694    -548442.77847   -366044.99562
  24915973.3594     504283.29945    337458.07461
  24227286.6804   -1002919.72944   -334521.31561
  24237650.4224    -518707.10245   -114185.47361
  22289657.3134     262010.78846    175656.41662
 91  5  1 21 55 45.0000000  0  6G 2G 6G11G13G15G19
  20907653.2814    -238474.42848   -160455.36763
  21730736.0634    -587396.45547   -396398.47562
  24922924.5634     540815.51345    365924.64061
  24213686.0084   -1074383.06144   -390206.74461
  24230717.6174    -555124.61145   -142562.63261
  22293320.0234     281259.76246    190655.56262
 91  5  1 21 56  0.0000000  0  6G 2G 6G11G13G15G19
  20904717.0234    -253906.48648   -172480.34363
  21723326.5554    -626323.62547   -426731.30762
  24929889.6254     577410.07845    394439.79561
  24200093.7734   -1145825.21143   -445875.73861
  24223805.2814    -591459.77745   -170875.63161
  22296995.6644     300575.85846    205707.01262
 91  5  1 21 56 15.0000000  0  7G 2G 6G11G13G15G19G16
  20901791.1884    -269278.22648   -184458.32063
  21715924.6804    -665218.23447   -457038.76662
  24936866.1884     614072.59045    423007.87661
  24186500.1644   -1217240.08744
  24216905.9064    -627706.43645   -199119.66761
  22300685.1024     319964.89446    220815.30463
  25203030.0004         -0.95352
 91  5  1 21 56 30.0000000  0  7G 2G 6G11G13G15G19G16
  20898876.7344    -284593.83148   -196392.55663
  21708529.8984    -704084.30447   -487323.98462
  24943855.6884     650798.55845    451625.43361
  24172915.7034   -1288631.24844
  24210020.1804    -663868.46145   -227297.74661
  22304388.9924     339422.89046    235977.33263
  25206794.7814      19781.37743
 91  5  1 21 56 45.0000000  0  7G 2G 6G11G13G15G19G16
  20895973.1334    -299851.59948   -208281.72563
  21701140.6954    -742919.65547   -517585.24562
  24950855.9774     687589.43245    480293.58261
  24159334.9924   -1359996.28144
  24203154.2114    -699943.53345   -255408.06161
  22308103.2734     358951.67646    251194.52063
  25210562.6484      39594.70643
 91  5  1 21 57  0.0000000  0  7G 2G 6G11G13G15G19G16
  20893082.6484    -315051.12948   -220125.50763
  21693757.6024    -781723.68447   -547822.10362
  24957867.9304     724445.37245    509012.43661
  24145763.2504   -1431334.39644
  24196309.0474    -735930.61345   -283449.81261
  22311835.8134     378551.66946    266467.17863
  25214343.9924      59439.34243
 91  5  1 21 57 15.0000000  0  7G 2G 6G11G13G15G19G16
  20890200.8364    -330196.11548   -231926.79363
  21686378.1094    -820499.77947   -578037.20862
  24964893.0944     761362.38845    537778.87661
  24132190.0084   -1502648.85645
  24189482.9454    -771833.25345   -311425.78361
  22315575.7664     398219.29546    281792.53863
  25218127.7194      79311.61743        -0.12071
 91  5  1 21 57 30.0000000  0  7G 2G 6G11G13G15G19G16
  20887328.8914    -345280.07748   -243680.52463
  21679003.9844    -859240.97947   -608225.13762
  24971932.8594     798346.86845    566597.89661
  24118626.6484   -1573932.44445
  24182668.3594    -807644.22845   -339330.33461
  22319336.7734     417961.22946    297175.80263
  25221909.5394      99217.56243     15510.92661
 91  5  1 21 57 45.0000000  0  7G 2G 6G11G13G15G19G16
  20884470.5944    -360308.00148   -255390.58863
  21671638.1724    -897952.19747   -638389.70562
  24978983.5004     835393.33245    595465.18061
  24105066.0164   -1645189.93644        -0.00871
  24175868.9384    -843368.39145   -367167.25161
  22323104.7274     437772.53146    312613.13063
  25225698.5944     119151.94943     31044.07561
 91  5  1 21 58  0.0000000  0  7G 2G 6G11G13G15G19G16
  20881619.7584    -375278.76948   -267056.12263
  21664276.8444    -936632.22247   -668529.95062
  24986045.7894     872502.43345    624381.29661
  24091511.9144   -1716420.02644    -55503.65861
  24169087.5474    -879004.66445   -394935.67061
  22326887.7274     457654.16846
  25229501.7504     139115.15343
 91  5  1 21 58 15.0000000  0  7G 2G 6G11G13G15G19G16
  20878781.4144    -390193.21148   -278677.76063
  21656923.1804    -975281.56747   -698646.28362
  24993115.1954     909673.12745    653345.38761
  24077959.1884   -1787623.01744   -110986.22661
  24162323.6414    -914553.15545   -422635.70961
  22330684.0394     477605.34946
  25233306.4224     159106.40043
 91  5  1 21 58 30.0000000  0  7G 2G 6G11G13G15G19G16
  20875954.0864    -405051.00448   -290255.25663
  21649574.1564   -1013899.54447   -728738.17762
  25000200.6414     946905.67845    682357.68061
  24064417.3444   -1858797.86444   -166446.86761
  24155574.1094    -950013.05545   -450266.68161
  22334497.4144     497626.48546
  25237115.5944     179125.99643
 91  5  1 21 58 45.0000000  0  7G 2G 6G11G13G15G19G16
  20873138.2664    -419849.43148   -301786.49163
  21642230.3594   -1052482.97747   -758803.15662
  25007296.6564     984202.47245    711420.05861
  24050875.3914   -1929941.38044   -221883.11061
  24148840.6884    -985381.05545   -477826.07361
  22338317.5394     517720.56446
  25240936.7584     199175.91243
 91  5  1 21 59  0.0000000  0  7G 2G 6G11G13G15G19G16
  20870333.0234    -434592.40348   -313274.51564
  21634894.2344   -1091035.73047   -788844.24262
  25014404.8674    1021559.21445    740529.11761
  24037345.0004   -2001057.36044   -277297.87861
  24142127.5864   -1020660.68145   -505316.59361
  22342156.7344     537883.63046    390621.51762
  25244750.7814     219252.09642
 91  5  1 21 59 15.0000000  0  7G 2G 6G11G13G15G19G16
  20867537.6954    -449276.99547   -324717.05463
  21627567.6094   -1129554.64647   -818858.94962
  25021526.4844    1058978.28045    769686.75761
  24023817.6094   -2072142.61844   -332688.70461
  24135429.8984   -1055848.55545   -532735.64661
  22346006.3984     558118.51946    406388.91862
  25248579.9774     239356.81342
 91  5  1 21 59 30.0000000  0  6G 2G 6G11G13G15G19
  20864754.5704    -463907.60248   -336117.52064
  21620240.9614   -1168043.81747   -848850.47663
  25028656.7504    1096455.20445    798889.47861
  24010296.1564   -2143200.56045   -388058.20961
  24128752.6884   -1090948.84045   -560086.44761
  22349870.6334     578421.00046    422208.97862
 91  5  1 21 59 45.0000000  0  6G 2G 6G11G13G15G19
  20861982.0164    -478477.57148   -347470.73363
  21612922.4924   -1206496.34147   -878813.45062
  25035804.5314    1133996.23645    828142.14461
  23996780.3914   -2214224.10944   -443400.93861
  24122095.9384   -1125954.58545   -587363.55261
  22353745.8204     598797.74546    438086.91161
 91  5  1 22  0  0.0000000  0  6G 2G 6G11G13G15G19
  20859219.9454    -492990.52848   -358779.52163
  21605610.1484   -1244915.37946   -908750.34462
  25042957.2734    1171597.69745    857441.90761
  23983269.4774   -2285216.62744   -498719.50461
  24115446.7894   -1160868.86945   -614569.39161
  22357639.1884     619245.21946    454019.95361
 91  5  1 22  0 15.0000000  0  6G 2G 6G11G13G15G19
  20856469.4454    -507446.00048   -370043.51863
  21598305.9144   -1283300.35647   -938660.69862
  25050125.5234    1209259.60045    886788.75561
  23969763.7344   -2356177.07944
  24108818.8984   -1195690.98245   -641703.40561
  22361540.5634     639763.91746    470008.49161
 91  5  1 22  0 30.0000000  0  6G 2G 6G11G13G15G19
  20853731.0474    -521848.50248   -381266.23363
  21591010.7114   -1321655.52347   -968547.80262
  25057305.4774    1246977.20945    916179.03061
  23956267.4534   -2427109.47344
  24102213.3364   -1230424.78545   -668768.60761
  22365461.0704     660349.38046    486049.06161
 91  5  1 22  0 45.0000000  0  6G 2G 6G11G13G15G19
  20851001.6024    -536192.85948   -392443.64463
  21583717.5784   -1359975.26247   -998407.30462
  25064492.7584    1284755.41945    945616.52461
  23942776.5474   -2498008.06744        -0.13571
  24095621.3594   -1265064.67045   -695760.65461
  22369390.2664     681006.83146    502145.72661
 91  5  1 22  1  0.0000000  0  6G 2G 6G11G13G15G19
  20848280.1254    -550482.54648   -403578.45963
  21576432.5314   -1398263.08247  -1028241.92762
  25071691.9534    1322590.29444    975098.15961
  23929288.6094   -2568876.35044    -55221.94461
  24089048.9304   -1299614.03445   -722682.14161
  22373336.4844     701732.64946    518295.66961
 91  5  1 22  1 15.0000000  0  6G 2G 6G11G13G15G19
  20845571.3834    -564717.47648   -414670.60363
  21569150.6564   -1436518.35247  -1058051.20062
  25078899.3834    1360481.77644   1004623.89261
  23915809.9144   -2639713.53544   -110419.42961
  24082488.6724   -1334072.28645   -749532.64261
  22377290.8754     722527.11746    534499.09861
 91  5  1 22  1 30.0000000  0  6G 2G 6G11G13G15G19
  20842873.1954    -578895.44648   -425718.35863
  21561876.8524   -1474738.56547  -1087833.16562
  25086119.6564    1398431.91844   1034195.37761
  23902337.0864   -2710517.05844   -165590.70661
  24075947.2894   -1368436.84545   -776310.14361
  22381263.2194     743392.62146    550757.88461
 91  5  1 22  1 45.0000000  0  6G 2G 6G11G13G15G19
  20840186.3134    -593017.15148   -436722.26863
  21554610.9304   -1512924.27847  -1117588.23762
  25093358.8134    1436439.65544   1063811.69461
  23888868.3364   -2781287.19544   -220735.98661
  24069427.7974   -1402707.77045   -803014.67961
  22385244.8984     764328.43346    567071.43561
 91  5  1 22  2  0.0000000  0  6G 2G 6G11G13G15G19
  20837511.0084    -607084.64548   -447683.94263
  21547351.9774   -1551077.07247  -1147317.65862
  25100599.2344    1474502.69444   1093471.12161
  23875410.0234   -2852025.32344   -275856.31461
  24062922.4144   -1436886.54045   -829647.39861
  22389244.7504     785332.73946    583438.36661
 91  5  1 22  2 15.0000000  0  6G 2G 6G11G13G15G19
  20834843.1644    -621096.36748   -458602.15963
  21540099.8364   -1589195.37947  -1177020.19963
  25107855.0704    1512622.15344   1123174.51361
  23861953.3444   -2922729.46744   -330950.17461
  24056433.9224   -1470971.54945   -856207.04661
  22393250.3204     806407.04646    599859.84661
 91  5  1 22  2 30.0000000  0  6G 2G 6G11G13G15G19
  20832187.4774    -635052.01148   -469476.67763
  21532850.7584   -1627278.40447  -1206695.26463
  25115120.5944    1550798.16045   1152921.97361
  23848506.9454   -2993398.72845   -386016.83261
  24049964.9774   -1504961.98545   -882693.00861
  22397279.4534     827551.72145    616336.15861
 91  5  1 22  2 45.0000000  0  6G 2G 6G11G13G15G19
  20829542.6644    -648950.46348   -480306.62863
  21525612.1254   -1665324.85047  -1236341.82862
  25122390.7664    1589031.44444   1182714.06461
  23835063.4064   -3064031.85645   -441055.33261
  24043515.7034   -1538856.36045   -909104.12561
  22401313.4694     848767.75945    632868.07761
 91  5  1 22  3  0.0000000  0  6G 2G 6G11G13G15G19
  20826908.9774    -662796.00648   -491095.35063
  21518377.8204   -1703338.78547  -1265963.06062
  25129677.1564    1627317.39144   1212547.21661
  23821630.2034   -3134632.76145   -496068.73761
  24037086.1334   -1572658.60545   -935443.47261
  22405365.0704     870050.87745    649452.25961
 91  5  1 22  3 15.0000000  0  6G 2G 6G11G13G15G19
  20824285.1094    -676584.24248   -501839.41563
  21511151.8204   -1741315.42147  -1295555.20862
  25136974.7814    1665660.25844   1242424.72261
  23808203.4844   -3205196.20345   -551052.93361
  24030671.4064   -1606363.73445   -961707.14161
  22409425.7194     891405.79845    666092.37261
 91  5  1 22  3 30.0000000  0  6G 2G 6G11G13G15G19
  20821670.7974    -690317.97048   -512541.00963
  21503932.2734   -1779257.31647  -1325120.27962
  25144279.7114    1704056.80644   1272344.06661
  23794780.2504   -3275724.78945   -606009.99161
  24024273.8284   -1639974.40845   -987897.19761
  22413506.1094     912829.63245    682786.18861
 91  5  1 22  3 45.0000000  0  6G 2G 6G11G13G15G19
  20819068.8134    -703995.97848   -523199.18363
  21496716.7974   -1817163.08047  -1354657.19262
  25151602.3914    1742507.95545   1302305.94061
  23781366.3364   -3346216.75445   -660938.50861
  24017893.4614   -1673489.06345  -1014012.45061
  22417594.7344     934323.59445    699534.67261
 91  5  1 22  4  0.0000000  0  6G 2G 6G11G13G15G19
  20816475.3284    -717618.86848   -533814.40863
  21489510.1564   -1855032.71347  -1384165.96762
  25158931.0394    1781013.18145   1332309.96261
  23767958.3674   -3416671.94145   -715838.37361
  24011541.1414   -1706907.52745  -1040052.72661
  22421701.9614     955887.31045    716337.50261
 91  5  1 22  4 15.0000000  0  6G 2G 6G11G13G15G19
  20813894.4224    -731186.05748   -544386.23163
  21482311.0314   -1892865.58147  -1413646.10562
  25166269.0084    1819572.53745   1362356.15161
  23754559.2424   -3487089.67845   -770709.04561
  24005199.6644   -1740229.21845  -1066017.60661
  22425816.5314     977521.12845    733194.95761
 91  5  1 22  4 30.0000000  0  6G 2G 6G11G13G15G19
  20811321.4454    -744698.62048   -554915.48763
  21475118.8914   -1930662.55547  -1443098.27563
  25173616.9064    1858184.59945   1392443.40161
  23741167.5704   -3557470.44945   -825550.93561
  23998874.5704   -1773454.86245  -1091907.64561
  22429949.2894     999224.02145    750106.23861
 91  5  1 22  4 45.0000000  0  6G 2G 6G11G13G15G19
  20808758.5394    -758155.95248   -565401.71063
  21467934.8674   -1968422.64747  -1472521.69662
  25180972.2584    1896849.72145   1422572.00261
  23727781.3204   -3627813.50445   -880363.39061
  23992570.6174   -1806583.14745  -1117721.83061
  22434085.4144    1020996.87345    767072.02761
 91  5  1 22  5  0.0000000  0  6G 2G 6G11G13G15G19
  20806209.8284    -771556.01448   -575843.31163
  21460754.7814   -2006143.40447  -1501914.44762
  25188344.5164    1935569.70745   1452743.35561
  23714403.6804   -3698115.91145   -935144.18261
  23986284.9694   -1839611.55345  -1143458.17661
  22438248.9144    1042841.73445    784093.91561
 91  5  1 22  5 15.0000000  0  6G 2G 6G11G13G15G19
  20803671.3984    -784896.04848   -586238.13463
  21453584.5634   -2043821.98047  -1531274.34262
  25195717.7584    1974346.85745   1482959.22261
  23701033.9144   -3768374.53345   -989890.85061
  23980022.2734   -1872537.29545  -1169114.56161
  22442417.3594    1064761.24245    801173.96161
 91  5  1 22  5 30.0000000  0  6G 2G 6G11G13G15G19
  20801144.5234    -798182.80848   -596591.44963
  21446421.5084   -2081464.77747  -1560606.36062
  25203106.5554    2013174.32845   1513214.37661
  23687665.7114   -3838595.71845  -1044608.36161
  23973772.2974   -1905366.50445  -1194695.68261
  22446608.4614    1086748.71445    818307.03861
 91  5  1 22  5 45.0000000  0  6G 2G 6G11G13G15G19
  20798625.0784    -811412.36448   -606900.19364
  21439266.9384   -2119067.43547  -1589907.10362
  25210504.0474    2052055.66345   1543511.46961
  23674311.4224   -3908775.21245  -1099293.41561
  23967544.4144   -1938095.09745  -1220198.39761
  22450799.2194    1108808.29945    835496.26561
 91  5  1 22  6  0.0000000  0  6G 2G 6G11G13G15G19
  20796118.7194    -824586.75048   -617165.93864
  21432119.7424   -2156632.04747  -1619178.20363
  25217917.2274    2090988.56545   1573848.74661
  23660964.9924   -3978914.60345  -1153947.20561
  23961337.0004   -1970724.71145  -1245623.99761
  22455014.7584    1130937.97845    852740.13161
 91  5  1 22  6 15.0000000  0  6G 2G 6G11G13G15G19
  20793622.9614    -837706.02948   -627388.74964
  21424978.9924   -2194158.29947  -1648419.40763
  25225334.9384    2129972.48145   1604225.76261
  23647626.0234   -4049013.68445  -1208569.61461
  23955142.2734   -2003254.89945  -1270972.13461
  22459235.5474    1153137.48244    870038.39661
 91  5  1 22  6 30.0000000  0  6G 2G 6G11G13G15G19
  20791136.3054    -850773.50748   -637571.19464
  21417842.2894   -2231649.14347  -1677633.02262
  25232762.7274    2169003.79045   1634639.73061
  23634291.3674   -4119075.32445  -1263162.80361
  23948972.7504   -2035688.43745  -1296244.95961
  22463467.3054    1175403.54642    887388.53161
 91  5  1 22  6 45.0000000  0  5G 2G 6G11G13G15
  20788659.8054    -863786.16448   -647710.91864
  21410716.6724   -2269101.24147  -1706816.44062
  25240198.9614    2208085.41045   1665092.90361
  23620966.3754   -4189095.71745  -1317723.87561
  23942822.4694   -2068022.01345  -1321439.87561
 91  5  1 22  7  0.0000000  0  5G 2G 6G11G13G15
  20786194.9304    -876743.79248   -657807.76764
  21403596.3914   -2306514.03247  -1735969.22962
  25247640.6954    2247217.36145   1695585.29461
  23607650.0164   -4259074.33745  -1372252.40561
  23936684.7114   -2100255.07845  -1346556.47361
 91  5  1 22  7 15.0000000  0  5G 2G 6G11G13G15
  20783740.6484    -889649.06848   -667863.81964
  21396484.3984   -2343889.94447  -1765093.28162
  25255098.5234    2286396.62945   1726114.57561
  23594340.7504   -4329013.23545  -1426749.96461
  23930572.2814   -2132389.87345  -1371596.49261
 91  5  1 22  7 30.0000000  0  5G 2G 6G11G13G15
  20781294.4224    -902501.32748   -677878.56364
  21389380.8444   -2381227.98847  -1794187.83263
  25262564.5004    2325623.54445   1756680.95461
  23581040.7584   -4398911.35545  -1481215.73961
  23924474.7034   -2164425.58445  -1396559.29961
 91  5  1 22  7 45.0000000  0  5G 2G 6G11G13G15
  20778860.0394    -915297.89548   -687849.91264
  21382281.1804   -2418525.33047  -1823250.66762
  25270039.7734    2364900.45745   1787286.27961
  23567747.0944   -4468765.75145  -1535647.43161
  23918399.3444   -2196358.97645  -1421442.39361
 91  5  1 22  8  0.0000000  0  5G 2G 6G11G13G15
  20776434.0864    -928040.51648   -697779.22064
  21375193.1024   -2455783.36547  -1852282.87363
  25277524.3444    2404225.38545   1817928.99561
  23554462.5084   -4538577.52445  -1590045.92661
  23912339.8204   -2228191.42845  -1446246.83961
 91  5  1 22  8 15.0000000  0  5G 2G 6G11G13G15
  20774019.2274    -940730.12148   -707667.21863
  21368110.2274   -2493002.63947  -1881284.87062
  25285016.9454    2443597.14245   1848608.24961
  23541185.7344   -4608347.13445  -1644411.56561
  23906301.4774   -2259923.49545  -1470973.06161
 91  5  1 22  8 30.0000000  0  5G 2G 6G11G13G15
  20771614.2344    -953364.60048   -717512.26063
  21361034.1414   -2530180.73347  -1910254.77462
  25292516.2114    2483017.56445   1879325.38461
  23527919.0004   -4678072.18845  -1698742.50461
  23900280.5634   -2291552.62345  -1495619.08561
 91  5  1 22  8 45.0000000  0  5G 2G 6G11G13G15
  20769219.9844    -965941.74048   -727312.62463
  21353968.8754   -2567315.20847  -1939190.69262
  25300026.5944    2522488.52145   1910081.94061
  23514660.8754   -4747749.89745  -1753036.56561
  23894286.4924   -2323076.37745  -1520182.99561
 91  5  1 22  9  0.0000000  0  5G 2G 6G11G13G15
  20766837.1094    -978462.96648   -737069.41663
  21346910.0944   -2604407.25947  -1968093.54863
  25307548.4304    2562008.38845   1940876.62361
  23501408.5944   -4817380.97945  -1807294.30061
  23888309.2424   -2354495.75146  -1544665.55261
 91  5  1 22  9 15.0000000  0  5G 2G 6G11G13G15
  20764461.6724    -990932.63448   -746786.03663
  21339858.1954   -2641460.86347  -1996966.46263
  25315081.1804    2601572.46645   1971705.75361
  23488166.0314   -4886969.50545  -1861518.84761
  23882344.4454   -2385814.52345  -1569069.73861
 91  5  1 22  9 29.9990000  0  5G 2G 6G11G13G15
  20762100.8084   -1003349.49548   -756461.50863
  21332814.3784   -2678473.05047  -2025807.11463
  25322614.4724    2641178.23345   2002567.37161
  23474932.3314   -4956510.09145  -1915706.04661
  23876405.8704   -2417030.02245  -1593393.43661
 91  5  1 22  9 44.9990000  0  5G 2G 6G11G13G15
  20759748.1834   -1015710.86148   -766093.73763
  21325777.3784   -2715443.91147  -2054615.56362
  25330165.2924    2680834.93445   2033468.65361
  23461706.6594   -5026007.36945  -1969859.49361
  23870484.8084   -2448141.55145  -1617636.11561
 91  5  1 22  9 59.9990000  0  5G 2G 6G11G13G15
  20757408.6754   -1028015.81148   -775682.00163
  21318752.9014   -2752370.64747  -2083389.61962
  25337716.3314    2720539.66345   2064407.36161
  23448493.6904   -5095456.05745  -2023975.07261
  23864589.8084   -2479146.91745  -1641796.08061
 91  5  1 22 10 14.9990000  0  5G 2G 6G11G13G15
  20755077.1984   -1040268.33748   -785229.41763
  21311734.0264   -2789257.01047  -2112132.20262
  25345281.4724    2760288.28744   2095380.27861
  23435287.3474   -5164859.63245  -2078055.52461
  23858706.8084   -2510049.39445  -1665875.89361
 91  5  1 22 10 29.9990000  0  5G 2G 6G11G13G15
  20752757.0034   -1052464.18948   -794732.66963
  21304725.8474   -2826098.39747  -2140839.73162
  25352846.4484    2800084.64443   2126390.40661
  23422091.2144   -5234213.53945  -2132097.23961
  23852846.0504   -2540844.41945  -1689871.97961
 91  5  1 22 10 44.9990000  0  5G 2G 6G11G13G15
  20750444.2374   -1064609.34248   -804196.42063
  21297721.3474   -2862900.59947  -2169516.74063
  25360423.8554    2839922.42843   2157432.85661
  23408899.3624   -5303523.35945  -2186104.64761
  23847004.4174   -2571537.79745  -1713788.83861
 91  5  1 22 10 59.9990000  0  5G 2G 6G11G13G15
  20748144.3314   -1076705.07048   -813621.65563
  21290721.3314   -2899664.42747  -2198163.86163
  25368018.1204    2879800.32544   2188506.54361
  23395716.1364   -5372789.95545  -2240078.31461
  23841183.7374   -2602130.39845  -1737627.19361
 91  5  1 22 11 14.9990000  0  5G 2G 6G11G13G15
  20745851.0114   -1088747.71948   -823005.53463
  21283732.3234   -2936385.93247  -2226778.01663
  25375621.1444    2919721.67845   2219614.06861
  23382543.9564   -5442009.06145  -2294015.00261
  23835380.9254   -2632618.31246  -1761383.93361
 91  5  1 22 11 29.9990000  0  5G 2G 6G11G13G15
  20743569.7144   -1100733.81548   -832345.34663
  21276755.7374   -2973061.46647  -2255356.34162
  25383230.8554    2959689.59445   2250757.85961
  23369379.9724   -5511176.73345  -2347911.61861
  23829598.0264   -2662997.46945  -1785055.96161
 91  5  1 22 11 44.9990000  0  5G 2G 6G11G13G15
  20741298.9254   -1112667.53348   -841644.34564
  21269786.0194   -3009694.95247  -2283901.87862
  25390841.4954    2999699.48045   2281934.35661
  23356225.7454   -5580296.61345  -2401770.99561
  23823838.7224   -2693271.80045  -1808646.29861
 91  5  1 22 11 59.9990000  0  5G 2G 6G11G13G15
  20739036.5194   -1124547.90748   -850901.78064
  21262825.2374   -3046285.04148  -2312413.57862
  25398461.1984    3039752.10745   2313144.14161
  23343080.3004   -5649367.33945  -2455592.07461
  23818094.6054   -2723439.87145  -1832153.82061
 91  5  1 22 12 14.9990000  0  5G 2G 6G11G13G15
  20736787.7534   -1136375.41948   -860118.02364
  21255870.5194   -3082831.98148  -2340891.67463
  25406088.7694    3079846.76944   2344386.75361
  23329945.4174   -5718389.00145  -2509374.93061
  23812371.6984   -2753501.66945  -1855578.52761
 91  5  1 22 12 29.9990000  0  5G 2G 6G11G13G15
  20734546.4564   -1148152.00048   -869294.57964
  21248921.4404   -3119337.33547  -2369337.38363
  25413722.6984    3119981.20943   2375660.31161
  23316819.3234   -5787362.77245  -2563120.47761
  23806670.9334   -2783458.82045  -1878921.69661
 91  5  1 22 12 44.9990000  0  5G 2G 6G11G13G15
  20732317.2614   -1159875.16648   -878429.50864
  21241982.3864   -3155798.16447  -2397748.41263
  25421369.4724    3160157.71243   2406966.69761
  23303704.9404   -5856285.89045  -2616826.54161
  23800994.1594   -2813308.50545  -1902181.11461
 91  5  1 22 12 59.9990000  0  5G 2G 6G11G13G15
  20730095.7224   -1171546.14748   -887523.77964
  21235052.9484   -3192215.54547  -2426125.58663
  25429026.1834    3200374.68844   2438304.61661
  23290600.5584   -5925159.23745  -2670493.82561
  23795334.5734   -2843051.65145  -1925357.52761
 91  5  1 22 13 14.9990000  0  5G 2G 6G11G13G15
  20727883.7374   -1183161.57248   -896574.75564
  21228131.6514   -3228585.99647  -2454466.17962
  25436690.9334    3240634.99645   2469676.29161
  23277505.8554   -5993979.14145  -2724119.45061
  23789695.7534   -2872684.64645  -1948448.13961
 91  5  1 22 13 29.9990000  0  6G 2G 6G11G13G15G19
  20725686.0344   -1194724.76448   -905585.02564
  21221218.4094   -3264912.37647  -2482772.41862
  25444360.4804    3280935.31345   2501079.13761
  23264420.5344   -6062748.38145  -2777705.61661
  23784075.8554   -2902210.34845  -1971455.14261
  22587466.4804         -0.26953
 91  5  1 22 13 44.9990000  0  6G 2G 6G11G13G15G19
  20723495.0974   -1206232.70848   -914552.24564
  21214315.7064   -3301191.29147  -2511041.66162
  25452038.2534    3321278.26445   2532515.17261
  23251343.4404   -6131463.37045  -2831249.47861
  23778478.4404   -2931625.32045  -1994375.86061
  22592084.9014      24270.98143
 91  5  1 22 13 59.9990000  0  6G 2G 6G11G13G15G19
  20721313.6674   -1217689.86548   -923479.89464
  21207422.5344   -3337427.27347  -2539277.45963
  25459721.4094    3361659.04845   2563980.68461
  23238275.8084   -6200128.38045  -2884754.44761
  23772903.7924   -2960933.94845  -2017213.70761
  22596712.1054      48608.46942
 91  5  1 22 14 14.9990000  0  6G 2G 6G11G13G15G19
  20719143.3394   -1229096.21448   -932367.95464
  21200534.3234   -3373619.56347  -2567479.22963
  25467411.6594    3402077.57245   2595475.63561
  23225218.3944   -6268742.67545  -2938219.83861
  23767343.3154   -2990135.59945  -2039968.21061
  22601350.1444      73012.47742
 91  5  1 22 14 29.9990000  0  5G 2G 6G11G13G15
  20716983.9954   -1240447.46848   -941213.08264
  21193653.5034   -3409763.68247  -2595643.46763
  25475110.9094    3442537.75345   2627003.01961
  23212172.4564   -6337301.68245  -2991642.22461
  23761809.3784   -3019225.74446  -2062635.83161
 91  5  1 22 14 44.9990000  0  5G 2G 6G11G13G15
  20714834.7144   -1251743.20748   -950014.95164
  21186785.1834   -3445859.00947  -2623769.68763
  25482817.5034    3483039.69145   2658562.97361
  23199135.6754   -6405804.54945  -3045020.85061
  23756297.2454   -3048203.42545  -2085215.80561
 91  5  1 22 14 59.9990000  0  5G 2G 6G11G13G15
  20712694.6054   -1262982.02348   -958772.46764
  21179927.1204   -3481903.93247  -2651856.61662
  25490532.2304    3523584.48645   2690156.35361
  23186108.8864   -6474249.44445  -3098354.30561
  23750801.1834   -3077067.27246  -2107707.06661
 91  5  1 22 15 14.9990000  0  4G 2G 6G13G15
  20710566.9094   -1274169.90248   -967490.29063
  21173075.0814   -3517903.74147  -2679908.39462
  23173094.8394   -6542641.75945  -3151646.78461
  23745332.8554   -3105822.60546  -2130113.79561
 91  5  1 22 15 29.9990000  0  4G 2G 6G13G15
  20708446.0654   -1285304.33348   -976166.47064
  21166233.6594   -3553855.88047  -2707923.01462
  23160089.8944   -6610978.56345  -3204896.01761
  23739879.2924   -3134466.74546  -2152433.89361
 91  5  1 22 15 44.9990000  0  4G 2G 6G13G15
  20706337.8704   -1296386.45248   -984801.88364
  21159401.2224   -3589761.19847  -2735901.15663
  23147096.7304   -6679260.59545  -3258102.55761
  23734451.9254   -3163000.55146  -2174668.00261
 91  5  1 22 15 59.9990000  0  4G 2G 6G13G15
  20704237.3554   -1307418.45748   -993398.24763
  21152578.3234   -3625621.57247  -2763844.28063
  23134113.0894   -6747489.47545  -3311267.68861
  23729039.5114   -3191425.67245  -2196817.42061
 91  5  1 22 16 14.9990000  0  4G 2G 6G13G15
  20702148.9484   -1318400.16248  -1001955.41563
  21145763.3624   -3661436.57347  -2791752.05463
  23121141.3864   -6815664.80245  -3364391.08761
  23723651.6444   -3219741.65145  -2218881.79061
 91  5  1 22 16 29.9990000  0  4G 2G 6G13G15
  20700069.8234   -1329327.30348  -1010470.06463
  21138957.1984   -3697201.82647  -2819621.06563
  23108178.6444   -6883782.05645  -3417469.23861
  23718284.0114   -3247943.79345  -2240857.45261
 91  5  1 22 16 44.9990000  0  4G 2G 6G13G15
  20698000.9804   -1340200.34648  -1018942.56264
  21132159.1054   -3732917.07747  -2847451.10763
  23095227.4874   -6951840.89645  -3470501.86261
  23712942.1904   -3276032.38345  -2262744.62861
 91  5  1 22 16 59.9990000  0  4G 2G 6G13G15
  20695943.3004   -1351018.17748  -1027372.03064
  21125373.0974   -3768581.13247  -2875241.25663
  23082285.1594   -7019839.86445  -3523487.84161
  23707616.8944   -3304006.21845  -2284542.40061
 91  5  1 22 17 14.9990000  0  4G 2G 6G13G15
  20693893.4564   -1361786.51848  -1035762.94164
  21118597.8784   -3804199.43147  -2902995.73363
  23069358.4644   -7087784.44945  -3576431.44761
  23702314.2614   -3331870.40745  -2306254.72061
 91  5  1 22 17 29.9990000  0  4G 2G 6G13G15
  20691854.6594   -1372500.79948  -1044111.72664
  21111829.6284   -3839766.99647  -2930710.67963
  23056440.6834   -7155669.50045  -3629328.68461
  23697036.0034   -3359619.87945  -2327877.65761
 91  5  1 22 17 44.9990000  0  4G 2G 6G13G15
  20689824.8314   -1383164.98348  -1052421.47964
  21105068.8554   -3875287.66147  -2958389.09863
  23043532.6984   -7223498.50445  -3682182.23861
  23691777.1514   -3387258.17345  -2349413.97061
 91  5  1 22 17 59.9990000  0  4G 2G 6G13G15
  20687805.9014   -1393774.46548  -1060688.61064
  21098318.6204   -3910756.40147  -2986027.06963
  23030637.8554   -7291266.60145  -3734988.33161
  23686538.6754   -3414780.52646  -2370859.94061
 91  5  1 22 18 14.9990000  0  4G 2G 6G13G15
  20685797.3704   -1404328.72248  -1068912.70664
  21091578.7534   -3946172.50047  -3013624.02263
  23017751.7064   -7358972.66645  -3787746.09161
  23681324.9954   -3442186.19446  -2392214.99461
 91  5  1 22 18 29.9990000  0  4G 2G 6G13G15
  20683799.6754   -1414832.84848  -1077097.74464
  21084847.1674   -3981540.73147  -3041183.65163
  23004875.7454   -7426621.20745  -3840459.01961
  23676130.4954   -3469480.21245  -2413483.05861
 91  5  1 22 18 44.9990000  0  4G 2G 6G13G15
  20681810.2764   -1425283.58248  -1085241.17264
  21078128.6984   -4016857.34847  -3068703.05363
  22992016.1904   -7494208.44245  -3893124.18661
  23670957.3784   -3496658.49845  -2434660.91161
 91  5  1 22 18 59.9990000  0  4G 2G 6G13G15
  20679832.7614   -1435685.17648  -1093346.30964
  21071413.9334   -4052126.37147  -3096185.37463
  22979166.2764   -7561738.40945  -3945744.72561
  23665807.3784   -3523725.32345  -2455751.91461
 91  5  1 22 19 14.9990000  0  4G 2G 6G13G15
  20677862.0734   -1446033.94048  -1101410.27864
  21064713.3314   -4087343.76247  -3123627.47863
  22966326.6124   -7629207.04045  -3998317.48061
  23660678.7694   -3550676.49445  -2476752.80361
 91  5  1 22 19 29.9990000  0  4G 2G 6G13G15
  20675903.7304   -1456332.57348  -1109435.18764
  21058023.3704   -4122512.11547  -3151031.36763
  22953500.4404   -7696616.48345  -4050844.14361
  23655570.0814   -3577514.15045  -2497665.22961
 91  5  1 22 19 44.9990000  0  5G 2G 6G13G15G19
  20673954.6364   -1466575.71448  -1117416.84764
  21051341.7224   -4157625.69847  -3178392.57063
  22940684.8704   -7763961.22945  -4103320.37461
  23650485.4404   -3604233.17945  -2518485.22661
  22706847.6594         -0.79154
 91  5  1 22 19 59.9990000  0  5G 2G 6G13G15G19
  20672013.5504   -1476768.74748  -1125359.46563
  21044670.6364   -4192689.62047  -3205715.07863
  22927878.6674   -7831245.93445  -4155749.82861
  23645424.3234   -3630838.44146  -2539216.59061
  22711795.0424      25979.70644
 91  5  1 22 20 14.9990000  0  5G 2G 6G13G15G19
  20670083.5584   -1486910.19348  -1133261.88463
  21038006.1984   -4227701.75947  -3232997.23163
  22915089.8394   -7898468.53345  -4208130.87061
  23640384.2374   -3657327.80146  -2559857.64561
  22716747.4174      52027.86644        -0.13071
 91  5  1 22 20 29.9990000  0  5G 2G 6G13G15G19
  20668164.2374   -1496993.49348  -1141118.99863
  21031352.4014   -4262655.63447  -3260234.00363
  22902310.0654   -7965622.41446  -4260458.36361
  23635366.7764   -3683694.86546  -2580403.40961
  22721718.6514      78149.80844     20354.57561
 91  5  1 22 20 44.9990000  0  5G 2G 6G13G15G19
  20666254.3004   -1507027.38848  -1148937.61463
  21024712.7454   -4297559.64047  -3287431.91963
  22889542.9874   -8032715.98546  -4312738.85961
  23630371.5654   -3709947.83546  -2600860.26961
  22726698.2374     104336.84843     40759.97561
 91  5  1 22 20 59.9990000  0  5G 2G 6G13G15G19
  20664353.7614   -1517007.05847  -1156713.98463
  21018082.0264   -4332408.63047  -3314586.95663
  22876789.6514   -8099743.66846  -4364968.03461
  23625395.5584   -3736081.44045  -2621224.10661
  22731692.1984     130594.05543     61220.02061
 91  5  1 22 21 14.9990000  0  5G 2G 6G13G15G19
  20662463.6594   -1526937.00147  -1164451.60863
  21011460.8394   -4367206.52947  -3341702.17163
  22864044.7304   -8166709.60046  -4417149.07761
  23620441.5814   -3762099.78245  -2641498.11461
  22736703.9094     156916.76643     81731.10761
 91  5  1 22 21 29.9990000  0  5G 2G 6G13G15G19
  20660585.5814   -1536815.88848  -1172149.44463
  21004848.8154   -4401952.02347  -3368776.55563
  22851312.9334   -8233612.14546  -4469280.75961
  23615510.9644   -3788001.39845  -2661681.16061
  22741728.3624     183306.09743    102294.12161
 91  5  1 22 21 44.9990000  0  5G 2G 6G13G15G19
  20658715.4644   -1546642.28948  -1179806.38463
  20998245.8864   -4436643.40447  -3395808.77363
  22838594.5194   -8300449.30446  -4521361.44661
  23610609.4484   -3813784.60645  -2681771.92861
  22746765.4014     209763.75644    122910.38661
 91  5  1 22 21 59.9990000  0  5G 2G 6G13G15G19
  20656856.1364   -1556418.09548  -1187423.89363
  20991652.5504   -4471282.07347  -3422799.92463
  22825888.2224   -8367222.44746  -4573392.28461
  23605725.0264   -3839451.06545  -2701771.70961
  22751811.6834     236287.72443    143578.32761
 91  5  1 22 22 14.9990000  0  5G 2G 6G13G15G19
  20655006.2374   -1566142.49048  -1195001.33963
  20985069.7924   -4505866.86147  -3449749.09463
  22813194.2374   -8433930.43646  -4625372.32861
  23600863.2614   -3864999.58745  -2721679.61361
  22756876.8084     262878.81344    164298.57061
 91  5  1 22 22 29.9990000  0  5G 2G 6G13G15G19
  20653165.8084   -1575813.53248  -1202537.21063
  20978500.1284   -4540395.55147  -3476654.54563
  22800510.9874   -8500570.99246  -4677299.82961
  23596026.5504   -3890427.93545  -2741493.88461
  22761949.9334     289539.10844    185072.74261
 91  5  1 22 22 44.9990000  0  5G 2G 6G13G15G19
  20651335.4014   -1585432.02848  -1210032.13563
  20971940.8864   -4574868.78047  -3503516.78463
  22787841.8704   -8567144.29645  -4729174.95661
  23591211.2224   -3915736.52446  -2761214.83061
  22767031.0654     316267.74544    205900.16961
 91  5  1 22 22 59.9990000  0  5G 2G 6G13G15G19
  20649515.7224   -1594998.57148  -1217486.57963
  20965393.6904   -4609286.77747  -3530335.97663
  22775184.3784   -8633650.67245  -4780997.89561
  23586418.2304   -3940925.56246  -2780842.64461
  22772132.1674     343063.86643    226780.19461
 91  5  1 22 23 14.9990000  0  5G 2G 6G13G15G19
  20647704.6444   -1604513.34248  -1224900.68063
  20958854.3004   -4643649.37647  -3557111.99263
  22762542.2374   -8700089.91945  -4832768.56661
  23581645.0504   -3965995.04146  -2800377.28261
  22777240.7924     369927.58143    247712.86161
 91  5  1 22 23 29.9990000  0  5G 2G 6G13G15G19
  20645903.6904   -1613977.64448  -1232275.45764
  20952325.1514   -4677957.65447  -3583845.67963
  22749911.5034   -8766463.01545  -4884487.68061
  23576898.5424   -3990945.76546  -2819819.39261
  22782371.1444     396857.30743    268697.00461
 91  5  1 22 23 44.9990000  0  5G 2G 6G13G15G19
  20644112.9644   -1623393.32848  -1239612.35164
  20945807.7064   -4712213.08347  -3610538.20363
  22737291.8234   -8832771.49045  -4936156.43361
  23572173.5264   -4015779.51746  -2839170.34261
  22787502.2924     423851.26842    289731.16461
 91  5  1 22 23 59.9990000  0  5G 2G 6G13G15G19
  20642331.9874   -1632754.51648  -1246906.78864
  20939298.8864   -4746409.66847  -3637184.88863
  22724687.2694   -8899008.71645  -4987769.66961
  23567470.2144   -4040490.25746  -2858425.42261
  22792654.7694     450915.28742    310819.98761
 91  5  1 22 24 14.9990000  0  4G 2G 6G13G15
  20640558.9404   -1642062.47348  -1254159.74264
  20932801.4874   -4780548.24747  -3663786.36763
  22712097.3234   -8965175.36046  -5039327.92061
  23562793.1204   -4065078.75746  -2877585.27461
 91  5  1 22 24 29.9990000  0  4G 2G 6G13G15
  20638797.4404   -1651318.41348  -1261372.16564
  20926317.7064   -4814629.74647  -3690343.35463
  22699519.1754   -9031272.35146  -5090831.89661
  23558135.1984   -4089546.08746  -2896650.69261
 91  5  1 22 24 44.9990000  0  4G 2G 6G13G15
  20637046.3394   -1660517.98248  -1268540.65964
  20919845.3004   -4848649.28847  -3716852.04063
  22686955.7844   -9097295.02646  -5142277.93861
  23553502.0584   -4113887.44846  -2915617.97861
 91  5  1 22 24 59.9990000  0  5G 2G 6G13G15G19
  20635305.0974   -1669665.69548  -1275668.74764
  20913380.9724   -4882611.11547  -3743315.76363
  22674406.8394   -9163247.32346  -5193669.16161
  23548895.1284   -4138106.78246  -2934490.17661
  22813387.0894         -0.10652
 91  5  1 22 25 14.9990000  0  5G 2G 6G13G15G19
  20633574.9014   -1678765.09148  -1282759.18864
  20906927.8944   -4916518.39147  -3769736.99963
  22661869.6984   -9229132.52246  -5245008.10161
  23544307.3004   -4162207.65646  -2953270.05061
  22818603.8314      27404.04542
 91  5  1 22 25 29.9990000  0  5G 2G 6G13G15G19
  20631851.8554   -1687814.88848  -1289810.97663
  20900486.1284   -4950370.02047  -3796114.88764
  22649344.2374   -9294948.70546  -5296293.26961
  23539745.9874   -4186188.63846  -2971956.50461
  22823834.7614      54873.11842
 91  5  1 22 25 44.9990000  0  4G 2G 6G13G15
  20630140.7534   -1696813.37648  -1296822.78063
  20894057.0974   -4984163.72847  -3822447.64163
  22636832.6674   -9360693.90746  -5347523.11761
  23535202.7144   -4210047.68746  -2990547.94861
 91  5  1 22 25 59.9990000  0  4G 2G 6G13G15
  20628437.6594   -1705758.77548  -1303793.21163
  20887635.9874   -5017897.26847  -3848733.49763
  22624335.6444   -9426366.13246  -5398696.10961
  23530686.2764   -4233782.60646  -3009042.68061
 91  5  1 22 26 14.9990000  0  4G 2G 6G13G15
  20626744.6124   -1714652.85848  -1310723.65763
  20881227.2534   -5051572.01247  -3874973.52363
  22611851.9644   -9491966.46246  -5449813.06261
  23526194.6674   -4257394.73646  -3027441.72461
 91  5  1 22 26 29.9990000  0  4G 2G 6G13G15
  20625061.5424   -1723495.59148  -1317614.09263
  20874828.5734   -5085188.08347  -3901167.83263
  22599381.7534   -9557494.64446  -5500873.79661
  23521725.6514   -4280884.07146  -3045745.07661
 91  5  1 22 26 44.9990000  0  4G 2G 6G13G15
  20623391.4334   -1732288.80848  -1324465.93563
  20868444.1984   -5118746.57647  -3927317.28063
  22586928.2454   -9622951.88246  -5551879.26561
  23517278.7614   -4304251.83946  -3063953.71861
 91  5  1 22 26 59.9990000  0  4G 2G 6G13G15
  20621724.8394   -1741031.13248  -1331278.12463
  20862070.5734   -5152246.05047  -3953420.74063
  22574486.2224   -9688336.54046  -5602828.17261
  23512855.7304   -4327496.47246  -3082066.38361
 91  5  1 22 27 14.9990000  0  4G 2G 6G13G15
  20620072.6444   -1749720.04848  -1338048.70763
  20855709.2064   -5185683.70947  -3979476.04164
  22562056.8554   -9753645.62046  -5653718.19161
  23508456.0814   -4350615.23445  -3100080.98161
 91  5  1 22 27 29.9990000  0  4G 2G 6G13G15
  20618428.9874   -1758356.82848  -1344778.65563
  20849356.1674   -5219060.12047  -4005483.61364
  22549643.4874   -9818879.88646  -5704549.92361
  23504081.0194   -4373609.45445  -3117998.53461
 91  5  1 22 27 44.9990000  0  4G 2G 6G13G15
  20616797.3554   -1766939.32148  -1351466.30864
  20843016.8004   -5252373.20747  -4031441.85863
  22537241.8154   -9884036.96646  -5755321.48661
  23499727.2064   -4396476.19445  -3135816.76061
 91  5  1 22 27 59.9990000  0  4G 2G 6G13G15
  20615173.0264   -1775472.28248  -1358115.36864
  20836690.1124   -5285627.40647  -4057354.20063
  22524855.7844   -9949121.06646  -5806036.19361
  23495399.9254   -4419219.91745  -3153539.10461
 91  5  1 22 28 14.9990000  0  4G 2G 6G13G15
  20613559.0584   -1783951.37948  -1364722.45964
  20830374.0734   -5318818.10647  -4083217.04263
  22512485.9724  -10014127.41646  -5856690.30561
  23491096.6984   -4441836.40645  -3171162.29761
 91  5  1 22 28 29.9990000  0  4G 2G 6G13G15
  20611953.7224   -1792381.73948  -1371291.57164
  20824068.2764   -5351950.01447  -4109034.07163
  22500131.1984  -10079060.70746  -5907287.49161
  23486816.0584   -4464330.17045  -3188689.86861
 91  5  1 22 28 44.9990000  0  4G 2G 6G13G15
  20610358.0734   -1800761.78248  -1377821.47464
  20817775.0734   -5385021.29747  -4134803.87863
  22487790.4174  -10143919.04846  -5957826.29961
  23482558.8554   -4486699.64245  -3206120.60861
 91  5  1 22 28 59.9990000  0  4G 2G 6G13G15
  20608772.6674   -1809091.27748  -1384311.98664
  20811491.9644   -5418031.53147  -4160526.12363
  22475462.1984  -10208701.80946  -6008306.19461
  23478323.0264   -4508944.29645  -3223454.08961
 91  5  1 22 29 14.9990000  0  4G 2G 6G13G15
  20607198.0894   -1817368.80348  -1390762.00964
  20805223.0344   -5450978.56347  -4186199.12763
  22463148.6204  -10273406.88846  -6058725.56861
  23474115.6444   -4531062.23145  -3240688.83561
 91  5  1 22 29 29.9990000  0  4G 2G 6G13G15
  20605633.4564   -1825597.80648  -1397174.21664
  20798965.4804   -5483865.74647  -4211825.48463
  22450848.9644  -10338037.50546  -6109086.91761
  23469928.1124   -4553056.84345  -3257827.45161
 91  5  1 22 29 44.9990000  0  4G 2G 6G13G15
  20604076.1984   -1833776.85048  -1403547.49363
  20792719.3944   -5516691.38747  -4237403.86863
  22438564.7064  -10402591.90146  -6159388.87861
  23465769.9804   -4574926.41046  -3274868.65261
 91  5  1 22 29 59.9990000  0  4G 2G 6G13G15
  20602529.7304   -1841901.38048  -1409878.29664
  20786483.2374   -5549450.70147  -4262930.56963
  22426295.1204  -10467065.16146  -6209627.60661
  23461631.3784   -4596665.93146  -3291808.50361
 91  5  1 22 30 14.9990000  0  4G 2G 6G13G15
  20600995.6674   -1849972.28148  -1416167.30963
  20780263.4094   -5582144.02147  -4288405.86363
  22414042.0734  -10531457.68846  -6259803.42961
  23457520.9014   -4618276.16346  -3308647.60561
 91  5  1 22 30 29.9990000  0  4G 2G 6G13G15
  20599468.9484   -1857994.34848  -1422418.26363
  20774052.3784   -5614776.11247  -4313833.45263
  22401801.2534  -10595773.87546  -6309919.76961
  23453431.7454   -4639761.57446  -3325389.44761
 91  5  1 22 30 44.9990000  0  4G 2G 6G13G15
  20597951.2534   -1865962.04948  -1428626.85963
  20767857.2764   -5647341.14947  -4339208.78963
  22389578.0974  -10660007.79446  -6359972.00261
  23449367.0424   -4661116.42346  -3342029.55561
 91  5  1 22 30 59.9990000  0  4G 2G 6G13G15
  20596443.2614   -1873880.04248  -1434796.72863
  20761672.6904   -5679843.17947  -4364535.02763
  22377369.9014  -10724163.75146  -6409963.48061
  23445327.9804   -4682345.18646  -3358571.41161
 91  5  1 22 31 14.9990000  0  4G 2G 6G13G15
  20594947.5734   -1881749.16248  -1440928.50363
  20755500.3944   -5712282.82347  -4389812.64663
  22365176.7694  -10788242.09446  -6459894.48961
  23441313.4174   -4703448.35446  -3375015.39661
 91  5  1 22 31 29.9990000  0  4G 2G 6G13G15
  20593460.4484   -1889564.84248  -1447018.64163
  20749339.6904   -5744655.45147  -4415038.03763
  22352999.3314  -10852237.98446  -6509761.23361
  23437324.6674   -4724421.09146  -3391357.74761
 91  5  1 22 31 44.9990000  0  4G 2G 6G13G15
  20591982.2144   -1897331.25248  -1453070.39363
  20743190.4954   -5776964.83147  -4440214.15063
  22340833.5504  -10916154.97646  -6559566.50361
  23433355.1514   -4745267.39846  -3407601.59861
 91  5  1 22 31 59.9990000  0  4G 2G 6G13G15
  20590515.1984   -1905047.35048  -1459082.93563
  20737052.9484   -5809209.49447  -4465339.84164
  22328687.6754  -10979991.78146  -6609309.30661
  23429413.2924   -4765985.93845  -3423745.87561
 91  5  1 22 32 14.9990000  0  4G 2G 6G13G15
  20589056.7844   -1912713.54648  -1465056.58963
  20730928.7454   -5841389.57547  -4490415.22864
  22316555.0974  -11043748.26146  -6658989.50961
  23425495.2224   -4786576.79445  -3439790.67661
 91  5  1 22 32 29.9990000  0  4G 2G 6G13G15
  20587606.1754   -1920329.07748  -1470990.76463
  20724818.8314   -5873503.93047  -4515439.39064
  22304438.7924  -11107423.34446  -6708606.29661
  23421600.2304   -4807038.89145  -3455735.12661
 91  5  1 22 32 44.9990000  0  4G 2G 6G13G15
  20586168.0584   -1927890.37548  -1476882.68864
  20718721.5344   -5905549.01247  -4540409.57363
  22292336.5584  -11171013.17346  -6758156.65561
  23417729.6124   -4827368.71345  -3471576.51561
 91  5  1 22 32 59.9990000  0  4G 2G 6G13G15
  20584738.2224   -1935401.31448  -1482735.36464
  20712635.9954   -5937528.14247  -4565328.34863
  22280249.8784  -11234521.00046  -6807643.12161
  23413885.6984   -4847569.77645  -3487317.57261
 91  5  1 22 33 14.9990000  0  4G 2G 6G13G15
  20583318.7534   -1942861.44248  -1488548.44464
  20706565.2454   -5969440.58747  -4590195.15763
  22268180.9174  -11297946.11346  -6857065.11861
  23410065.4874   -4867641.46846  -3502957.81561
 91  5  1 22 33 29.9990000  0  4G 2G 6G13G15
  20581908.4484   -1950270.56648  -1494321.78664
  20700504.4094   -6001285.86947  -4615009.62663
  22256127.8554  -11361287.84446  -6906422.16261
  23406273.2064   -4887583.35446  -3518496.90961
 91  5  1 22 33 44.9990000  0  4G 2G 6G13G15
  20580508.7614   -1957628.30848  -1500055.09064
  20694457.0194   -6033063.22347  -4639771.17963
  22244088.6514  -11424545.30646  -6955713.53761
  23402505.1284   -4907394.66646  -3533934.25561
 91  5  1 22 33 59.9990000  0  4G 2G 6G13G15
  20579117.4254   -1964935.29148  -1505748.84364
  20688421.7534   -6064773.00147  -4664480.08063
  22232067.4804  -11487719.07146  -7004939.70061
  23398756.9254   -4927075.96146  -3549270.30161
 91  5  1 22 34 14.9990000  0  4G 2G 6G13G15
  20577737.5734   -1972188.03248  -1511400.32964
  20682401.2144   -6096411.24447  -4689133.24964
  22220061.7614  -11550805.22446  -7054097.58861
  23395038.5654   -4946623.45546  -3564502.07461
 91  5  1 22 34 29.9990000  0  4G 2G 6G13G15
  20576367.8004   -1979393.79448  -1517015.20864
  20676393.4724   -6127985.17347  -4713736.28763
  22208071.3704  -11613810.50846  -7103192.46561
  23391341.8474   -4966044.29846  -3579635.14861
 91  5  1 22 34 44.9990000  0  4G 2G 6G13G15
  20575004.5114   -1986552.58248  -1522593.48364
  20670396.7924   -6159494.18347  -4738288.74363
  22196098.0194  -11676734.32046  -7152223.85061
  23387671.3084   -4985337.93546  -3594669.09761
 91  5  1 22 34 59.9990000  0  4G 2G 6G13G15
  20573651.9804   -1993662.18448  -1528133.43464
  20664413.6834   -6190935.98847  -4762788.82863
  22184139.7304  -11739574.28046  -7201189.89761
  23384024.1204   -5004501.89946  -3609602.02461
 91  5  1 22 35 14.9990000  0  4G 2G 6G13G15
  20572307.1984   -2000722.02348  -1533634.60964
  20658443.5114   -6222309.68447  -4787235.84163
  22172200.7924  -11802329.47146  -7250089.90261
  23380401.4804   -5023535.63146  -3624433.46761
 91  5  1 22 35 29.9990000  0  4G 2G 6G13G15
  20570974.3784   -2007729.90648  -1539095.29964
  20652486.7534   -6253612.66647  -4811627.74663
  22160276.9404  -11864996.95346  -7298921.56861
  23376804.6674   -5042436.53446  -3639161.40561
 91  5  1 22 35 44.9990000  0  5G 2G 6G13G15G19
  20569651.1674   -2014685.74648  -1544515.43164
  20646545.5114   -6284844.60047  -4835964.29364
  22148367.1054  -11927576.35346  -7347684.60461
  23373234.9874   -5061204.31846  -3653785.61861
  23049014.9334         -0.68852
 91  5  1 22 35 59.9990000  0  5G 2G 6G13G15G19
  20568336.0344   -2021593.99248  -1549898.48264
  20640613.3004   -6316009.63947  -4860248.71864
  22136474.7614  -11990071.99646  -7396382.36561
  23369687.1754   -5079843.35145  -3668309.51661
  23054774.6514      30230.70742
 91  5  1 22 36 14.9990000  0  5G 2G 6G13G15G19
  20567033.2374   -2028450.03048  -1555240.84463
  20634696.0974   -6347103.05347  -4884477.34564
  22124597.7924  -12052478.96946  -7445011.03561
  23366163.4094   -5098348.90245  -3682729.39461
  23060534.7144      60527.80243
 91  5  1 22 36 29.9990000  0  5G 2G 6G13G15G19
  20565737.2764   -2035254.17148  -1560542.76464
  20628791.6204   -6378124.59847  -4908649.97663
  22112739.8004  -12114796.87946  -7493570.29961
  23362666.1054   -5116720.95745  -3697045.23861
  23066316.4484      90890.50143
 91  5  1 22 36 44.9990000  0  5G 2G 6G13G15G19
  20564451.6984   -2042007.46648  -1565805.06863
  20622902.7614   -6409075.18447  -4932767.29363
  22100897.9724  -12177026.44246  -7542060.72861
  23359195.3704   -5134960.18045  -3711257.58461
  23072105.8154     121317.69544        -0.34171
 91  5  1 22 36 59.9990000  0  5G 2G 6G13G15G19
  20563178.3004   -2048706.77548  -1571025.30663
  20617029.7924   -6439951.13847  -4956826.43963
  22089073.6204  -12239164.35646  -7590479.76161
  23355753.4564   -5153063.22045  -3725363.80061
  23077915.9404     151812.50544     23761.71561
 91  5  1 22 37 14.9990000  0  5G 2G 6G13G15G19
  20561911.8944   -2055355.01248  -1576205.74363
  20611167.5424   -6470755.17047  -4980829.53963
  22077266.5584  -12301213.09746  -7638829.30861
  23352334.6514   -5171033.06146  -3739366.23561
  23083728.7924     182371.84744     47574.09061
 91  5  1 22 37 29.9990000  0  5G 2G 6G13G15G19
  20560656.5974   -2061952.23048  -1581346.42863
  20605318.5504   -6501487.12247  -5004776.49163
  22065475.0424  -12363172.29546  -7687109.06861
  23348940.5734   -5188869.44346  -3753264.68161
  23089558.0734     212995.64743     71436.70161
 91  5  1 22 37 44.9990000  0  5G 2G 6G13G15G19
  20559410.6204   -2068497.54748  -1586446.66963
  20599482.6204   -6532145.86447  -5028666.41064
  22053701.8084  -12425040.78646  -7735318.14361
  23345571.5654   -5206571.26046  -3767058.25861
  23095390.2304     243684.70042     95350.14061
 91  5  1 22 37 59.9990000  0  5G 2G 6G13G15G19
  20558174.3474   -2074993.94248  -1591508.79264
  20593664.4334   -6562733.98547  -5052501.29564
  22041944.9014  -12486821.13946  -7783458.55361
  23342227.2064   -5224141.43146  -3780749.26061
  23101245.2064     274435.89241    119312.03161
 91  5  1 22 38 14.9990000  0  4G 2G 6G13G15
  20556947.0654   -2081441.10548  -1596532.55063
  20587855.5814   -6593250.83347  -5076280.63763
  22030202.0034  -12548512.35846  -7831529.49161
  23338908.9334   -5241579.25846  -3794337.15061
 91  5  1 22 38 29.9990000  0  4G 2G 6G13G15
  20555731.2614   -2087836.36848  -1601515.86964
  20582063.6904   -6623693.44247  -5100002.12063
  22018481.2924  -12610111.53846  -7879528.72561
  23335614.8314   -5258881.90746  -3807819.70661
 91  5  1 22 38 44.9990000  0  4G 2G 6G13G15
  20554524.0344   -2094182.81648  -1606461.15264
  20576283.9954   -6654064.47747  -5123667.83063
  22006778.6594  -12671621.28946  -7927458.26861
  23332348.6284   -5276051.80646  -3821198.82361
 91  5  1 22 38 59.9990000  0  4G 2G 6G13G15
  20553324.0344   -2100478.26548  -1611366.68664
  20570517.2454   -6684361.58547  -5147275.93463
  21995089.8234  -12733039.18146  -7975316.23961
  23329104.0194   -5293086.87246  -3834472.88961
 91  5  1 22 39 14.9990000  0  4G 2G 6G13G15
  20552136.6984   -2106723.41848  -1616233.04264
  20564767.9014   -6714585.15047  -5170826.73563
  21983422.6444  -12794365.46746  -8023102.82661
  23325890.2764   -5309987.88146  -3847642.47861
 91  5  1 22 39 29.9990000  0  4G 2G 6G13G15
  20550957.6204   -2112919.22348  -1621060.93964
  20559029.6444   -6744735.91147  -5194320.81363
  21971768.8704  -12855600.78846  -8070818.54061
  23322700.4874   -5326755.32745  -3860707.97861
 91  5  1 22 39 44.9990000  0  4G 2G 6G13G15
  20549788.6284   -2119064.24748  -1625849.26564
  20553304.5974   -6774811.78947  -5217756.54163
  21960131.9404  -12916743.35346  -8118461.97261
  23319534.9724   -5343387.69445  -3873668.23461
 91  5  1 22 39 59.9990000  0  5G 2G 6G13G15G19
  20548628.0734   -2125161.80448  -1630600.60664
  20547595.5974   -6804815.98447  -5241136.40963
  21948514.0034  -12977796.02646  -8166035.35061
  23316393.7304   -5359887.95445  -3886525.53061
  23148492.0504         -0.73553
 91  5  1 22 40 14.9990000  0  5G 2G 6G13G15G19
  20547476.2144   -2131212.12548  -1635315.13764
  20541900.3314   -6834748.33547  -5264460.28863
  21936911.9644  -13038758.80246  -8213538.67861
  23313281.7144   -5376256.10845  -3899279.88661
  23154447.1754      31313.48044
 91  5  1 22 40 29.9990000  0  5G 2G 6G13G15G19
  20546335.0584   -2137211.10848  -1639989.66164
  20536218.8624   -6864604.76447  -5287725.00563
  21925330.4564  -13099627.11346  -8260968.40661
  23310191.9644   -5392488.14745  -3911928.20461
  23160424.1124      62691.50944
 91  5  1 22 40 44.9990000  0  5G 2G 6G13G15G19
  20545204.5194   -2143157.41148  -1644623.13664
  20530551.7924   -6894383.37347  -5310929.08363
  21913765.4484  -13160399.20846  -8308323.14361
  23307128.6054   -5408582.53746  -3924469.25861
  23166405.8084      94134.93744
 91  5  1 22 40 59.9990000  0  5G 2G 6G13G15G19
  20544082.2764   -2149052.17248  -1649216.44163
  20524900.0034   -6924084.94947  -5334073.14363
  21902218.5194  -13221075.85446  -8355603.51761
  23304091.8624   -5424540.01346  -3936903.63261
  23172401.9644     125642.53744
 91  5  1 22 41 14.9990000  0  5G 2G 6G13G15G19
  20542970.4644   -2154897.36648  -1653771.12563
  20519262.7534   -6953711.22247  -5357158.52963
  21890690.0034  -13281658.91846  -8402810.97261
  23301081.0654   -5440362.36946  -3949232.70761
  23178408.5264     157212.03844
 91  5  1 22 41 29.9990000  0  5G 2G 6G13G15G19
  20541867.3004   -2160692.14548  -1658286.51763
  20513638.5504   -6983261.19547  -5380184.45063
  21879179.5894  -13342147.08546  -8449944.47661
  23298096.9804   -5456048.81046  -3961455.90161
  23184430.3234     188844.24643
 91  5  1 22 41 44.9990000  0  5G 2G 6G13G15G19
  20540772.1054   -2166439.41048  -1662764.89963
  20508028.7064   -7012737.09947  -5403152.66263
  21867688.3944  -13402542.50646  -8497005.70961
  23295135.8004   -5471601.70746  -3973575.01361
  23190456.4874     220536.45442
 91  5  1 22 41 59.9990000  0  4G 2G 6G13G15
  20539689.3554   -2172138.61248  -1667205.82863
  20502435.7764   -7042138.36647  -5426062.71563
  21856212.8944  -13462844.53546  -8543994.17161
  23292203.1284   -5487020.43146  -3985589.56761
 91  5  1 22 42 14.9990000  0  4G 2G 6G13G15
  20538612.4564   -2177787.17648  -1671607.29364
  20496854.3314   -7071462.08847  -5448912.34663
  21844756.1594  -13523050.27546  -8590907.60361
  23289297.1124   -5502302.44746  -3997497.60061
 91  5  1 22 42 29.9990000  0  4G 2G 6G13G15
  20537547.9484   -2183383.69848  -1675968.21664
  20491289.1594   -7100706.54947  -5471700.20863
  21833316.6204  -13583157.98346  -8637744.64661
  23286413.9804   -5517446.08846  -4009297.79861
 91  5  1 22 42 44.9990000  0  4G 2G 6G13G15
  20536494.0654   -2188927.91048  -1680288.37364
  20485741.6674   -7129871.06947  -5494425.78063
  21821896.7534  -13643166.88846  -8684504.69161
  23283556.4954   -5532450.86246  -4020989.79161
 91  5  1 22 42 59.9990000  0  4G 2G 6G13G15
  20535446.6594   -2194425.11448  -1684571.90164
  20480204.2374   -7158960.68347  -5517092.98563
  21810493.6904  -13703081.88446  -8731191.56761
  23280726.0654   -5547321.60046  -4032577.34861
 91  5  1 22 43 14.9990000  0  4G 2G 6G13G15
  20534411.1364   -2199870.30648  -1688814.90964
  20474683.9724   -7187970.14047  -5539697.72963
  21799111.5424  -13762897.55046  -8777801.03361
  23277925.7144   -5562053.29646  -4044056.57261
 91  5  1 22 43 29.9990000  0  4G 2G 6G13G15
  20533384.5264   -2205265.46248  -1693018.92164
  20469177.9404   -7216901.29247  -5562241.45963
  21787749.0194  -13822615.83246  -8824334.63061
  23275145.8624   -5576648.27046  -4055429.25061
 91  5  1 22 43 44.9990000  0  4G 2G 6G13G15
  20532368.4484   -2210607.20348  -1697181.30964
  20463689.7064   -7245750.21847  -5584721.11163
  21776404.1594  -13882232.83346  -8870789.29961
  23272394.2304   -5591102.53446  -4066692.27561
 91  5  1 22 43 59.9990000  0  4G 2G 6G13G15
  20531361.2694   -2215901.84948  -1701307.00264
  20458212.3314   -7274522.88547  -5607141.34063
  21765076.3784  -13941754.42146  -8917169.62161
  23269673.6284   -5605422.16145  -4077850.39761
 91  5  1 22 44 14.9990000  0  4G 2G 6G13G15
  20530364.5034   -2221144.36848  -1705392.07164
  20452753.4174   -7303214.26547  -5629498.23063
  21753768.6594  -14001175.41046  -8963471.55761
  23266973.5504   -5619602.13645  -4088899.69461
 91  5  1 22 44 29.9990000  0  4G 2G 6G13G15
  20529375.6124   -2226336.37248  -1709437.78164
  20447308.7304   -7331825.45447  -5651792.63863
  21742480.5424  -14060497.01446  -9009696.04261
  23264299.4724   -5633643.76945  -4099841.18161
 91  5  1 22 44 44.9990000  0  4G 2G 6G13G15
  20528397.9484   -2231480.55748  -1713446.23164
  20441879.5734   -7360358.87747  -5674026.45963
  21731210.9174  -14119721.62846  -9055844.95161
  23261651.8314   -5647549.60746  -4110676.84461
 91  5  1 22 44 59.9990000  0  4G 2G 6G13G15
  20527429.1284   -2236571.34348  -1717413.06464
  20436465.5504   -7388808.56147  -5696195.01763
  21719960.6054  -14178843.01646  -9101913.43761
  23259035.8704   -5661314.07446  -4121402.37061
 91  5  1 22 45 14.9990000  0  4G 2G 6G13G15
  20526468.1054   -2241614.39448  -1721342.71064
  20431067.1904   -7417179.92147  -5718302.54063
  21708727.0584  -14237866.81246  -9147905.87761
  23256441.6444   -5674942.58946  -4132021.95761
 91  5  1 22 45 29.9980000  0  4G 2G 6G13G15
  20525516.1474   -2246610.12948  -1725235.49164
  20425681.9434   -7445471.69847  -5740348.05363
  21697514.3114  -14296789.39346  -9193819.44461
  23253876.8574   -5688434.96146  -4142535.45861
 91  5  1 22 45 44.9980000  0  4G 2G 6G13G15
  20524577.0534   -2251555.21648  -1729088.80764
  20420313.4904   -7473683.14147  -5762330.97963
  21686321.9044  -14355614.15946  -9239656.78161
  23251329.9594   -5701788.66546  -4152940.91661
 91  5  1 22 45 59.9980000  0  4G 2G 6G13G15
  20523645.1624   -2256449.31848  -1732902.39664
  20414959.5144   -7501812.18447  -5784249.70463
  21675148.7174  -14414336.85546  -9285414.59861
  23248822.0764   -5715002.82546  -4163237.65161
 91  5  1 22 46 14.9980000  0  4G 2G 6G13G15
  20522722.6314   -2261294.21748  -1736677.64664
  20409622.8264   -7529860.24547  -5806105.32363
  21663992.2324  -14472959.12246  -9331094.13861
  23246329.2484   -5728078.96046  -4173426.81761
 91  5  1 22 46 29.9980000  0  4G 2G 6G13G15
  20521810.7324   -2266089.14448  -1740413.95664
  20404301.9124   -7557826.26247  -5827897.00363
  21652855.4204  -14531479.68146  -9376694.44061
  23243866.9434   -5741016.00446  -4183507.60361
 91  5  1 22 46 44.9980000  0  4G 2G 6G13G15
  20520907.2564   -2270834.88448  -1744111.93064
  20398998.0454   -7585710.61947  -5849625.04263
  21641739.5844  -14589898.61546  -9422215.55761
  23241433.6004   -5753814.59446  -4193480.51061
 91  5  1 22 46 59.9980000  0  4G 2G 6G13G15
  20520013.2484   -2275531.38848  -1747771.54164
  20393706.0144   -7613513.18347  -5871289.35063
  21630640.2174  -14648215.92546  -9467657.48561
  23239024.6474   -5766474.70046  -4203345.51061
 91  5  1 22 47 14.9980000  0  4G 2G 6G13G15
  20519128.9204   -2280179.38448  -1751393.34964
  20388429.1784   -7641234.10447  -5892890.04663
  21619565.0614  -14706431.90046  -9513020.45261
  23236640.5684   -5778996.76245  -4213102.92261
 91  5  1 22 47 29.9980000  0  4G 2G 6G13G15
  20518254.9674   -2284775.15648  -1754974.46363
  20383171.4824   -7668869.53347  -5914424.13663
  21608505.5844  -14764542.53846  -9558301.33361
  23234282.3574   -5791377.06345  -4222749.85761
 91  5  1 22 47 44.9980000  0  4G 2G 6G13G15
  20517390.3654   -2289322.00848  -1758517.46163
  20377928.5144   -7696422.40547  -5935893.89463
  21597466.4124  -14822550.69146  -9603502.35461
  23231953.8654   -5803618.73245  -4232288.75361
 91  5  1 22 47 59.9980000  0  4G 2G 6G13G15
  20516533.4044   -2293817.93348  -1762020.77564
  20372700.9904   -7723890.55947  -5957297.63263
  21586446.3974  -14880454.07946  -9648621.75561
  23229654.4124   -5815719.60545  -4241717.95961
 91  5  1 22 48 14.9980000  0  4G 2G 6G13G15
  20515687.5144   -2298266.98048  -1765487.56364
  20367490.2874   -7751277.73847  -5978638.26463
  21575447.9044  -14938256.30746  -9693662.30461
  23227377.1934   -5827683.54646  -4251040.46961
 91  5  1 22 48 29.9980000  0  4G 2G 6G13G15
  20514848.1624   -2302665.36147  -1768914.86764
  20362294.1704   -7778579.64347  -5999912.44663
  21564470.0924  -14995953.37146  -9738620.92261
  23225129.6864   -5839506.62146  -4260253.19861
 91  5  1 22 48 44.9980000  0  4G 2G 6G13G15
  20514021.6934   -2307014.66847  -1772303.94864
  20357114.1624   -7805797.97347  -6021121.50663
  21553509.7644  -15053546.73346  -9783498.73761
  23222900.0614   -5851190.59746  -4269357.58661
 91  5  1 22 48 59.9980000  0  5G 2G 6G13G15G19
  20513203.4514   -2311316.92148  -1775656.36164
  20351950.0144   -7832934.05147  -6042266.48963
  21542569.4594  -15111037.77346  -9828296.82761
  23220705.4204   -5862737.11246  -4278354.85361
  23370445.5614         -0.28752
 91  5  1 22 49 14.9980000  0  4G 2G 6G13G15
  20512394.4984   -2315567.88648  -1778968.80064
  20346804.2404   -7859983.53747  -6063344.00063
  21531649.5454  -15168422.07946  -9873011.74761
  23218535.9984   -5874141.88946  -4287241.68961
 91  5  1 22 49 29.9980000  0  4G 2G 6G13G15
  20511595.0534   -2319769.93848  -1782243.12763
  20341672.2014   -7886948.44847  -6084355.61063
  21520749.1154  -15225701.60746  -9917645.01861
  23216388.7724   -5885407.00546  -4296019.69561
 91  5  1 22 49 44.9980000  0  4G 2G 6G13G15
  20510805.6704   -2323922.18048  -1785478.64264
  20336558.1704   -7913827.51147  -6105300.32164
  21509867.7874  -15282875.05546  -9962195.63461
  23214279.3654   -5896531.41246  -4304688.06161
 91  5  1 22 49 59.9980000  0  4G 2G 6G13G15
  20510024.8344   -2328027.97348  -1788677.95763
  20331460.0224   -7940624.07647  -6126180.74363
  21499007.3264  -15339945.52446 -10006666.00461
  23212181.6934   -5907518.45446  -4313249.38861
 91  5  1 22 50 14.9980000  0  4G 2G 6G13G15
  20509253.0454   -2332081.30548  -1791836.38964
  20326378.1154   -7967331.53947  -6146991.73663
  21488168.3974  -15396906.68846 -10051051.19861
  23210122.6234   -5918362.09945  -4321698.96061
 91  5  1 22 50 29.9980000  0  4G 2G 6G13G15
  20508491.4674   -2336083.66748  -1794955.10664
  20321309.8654   -7993951.33647  -6167734.41863
  21477350.6784  -15453759.97446 -10095352.32961
  23208081.2484   -5929063.68545  -4330037.83961
 91  5  1 22 50 44.9980000  0  4G 2G 6G13G15
  20507737.7874   -2340037.27548  -1798035.83964
  20316261.0924   -8020485.20147  -6188410.14163
  21466551.3734  -15510506.93946 -10139570.61761
  23206071.6394   -5939625.24845  -4338267.57361
 91  5  1 22 50 59.9980000  0  4G 2G 6G13G15
  20506996.4904   -2343941.75448  -1801078.29364
  20311229.1074   -8046932.52447  -6209018.42763
  21455772.5144  -15567146.97346 -10183705.59661
  23204088.2324   -5950046.42545  -4346387.90061
 91  5  1 22 51 14.9980000  0  4G 2G 6G13G15
  20506260.8574   -2347796.45348  -1804081.95064
  20306211.6394   -8073292.68147  -6229558.79163
  21445015.7564  -15623679.22246 -10227756.58061
  23202133.2174   -5960326.69345  -4354398.45761
 91  5  1 22 51 29.9980000  0  4G 2G 6G13G15
  20505536.9204   -2351600.12948  -1807045.85664
  20301213.3114   -8099563.74847  -6250029.73363
  21434278.5374  -15680101.89246 -10271722.19461
  23200205.8424   -5970464.33446  -4362297.89661
 91  5  1 22 51 44.9980000  0  4G 2G 6G13G15
  20504821.8574   -2355354.87848  -1809971.63364
  20296228.4904   -8125747.59047  -6270432.71263
  21423561.5924  -15736416.80546 -10315603.81761
  23198306.0224   -5980461.19346  -4370087.65661
 91  5  1 22 51 59.9980000  0  4G 2G 6G13G15
  20504117.2094   -2359061.08048  -1812859.58364
  20291263.7014   -8151844.31647  -6290767.81363
  21412865.8114  -15792624.18446 -10359401.66561
  23196431.1864   -5990317.68946  -4377768.07361
 91  5  1 22 52 14.9980000  0  4G 2G 6G13G15
  20503420.5534   -2362718.44648  -1815709.48164
  20286315.2954   -8177853.31947  -6311034.55963
  21402190.4514  -15848723.00746 -10403114.91361
  23194583.7324   -6000033.34846  -4385338.74661
 91  5  1 22 52 29.9980000  0  4G 2G 6G13G15
  20502734.5764   -2366328.36348  -1818522.40663
  20281381.8974   -8203775.51647  -6331233.66363
  21391534.5844  -15904714.45646 -10446744.49761
  23192758.9364   -6009609.49446  -4392800.69661
 91  5  1 22 52 44.9980000  0  4G 2G 6G13G15
  20502058.0064   -2369887.11948  -1821295.45263
  20276466.8504   -8229607.27747  -6351362.28163
  21380900.9364  -15960594.86346 -10490287.53961
  23190957.8654   -6019042.57046  -4400151.16661
 91  5  1 22 52 59.9980000  0  4G 2G 6G13G15
  20501389.4904   -2373395.89748  -1824029.56263
  20271569.8734   -8255349.34847  -6371421.01163
  21370291.0064  -16016364.98146 -10533744.65561
  23189187.7014   -6028333.30145  -4407390.67961
 91  5  1 22 53 14.9980000  0  4G 2G 6G13G15
  20500732.8814   -2376856.95748  -1826726.49263
  20266686.3344   -8281003.62147  -6391411.33463
  21359699.7254  -16072026.67846 -10577117.28861
  23187447.5844   -6037483.88145  -4414520.96261
 91  5  1 22 53 29.9980000  0  4G 2G 6G13G15
  20500082.6544   -2380271.22948  -1829386.96363
  20261820.2484   -8306570.64047  -6411333.67863
  21349124.5144  -16127580.56846 -10620405.92161
  23185738.4044   -6046495.29446  -4421542.80861
 91  5  1 22 53 44.9980000  0  4G 2G 6G13G15
  20499443.0294   -2383632.32848  -1832005.99963
  20256971.6234   -8332043.84747  -6431182.93063
  21338573.8894  -16183019.88546 -10663605.27961
  23184048.7564   -6055361.01946  -4428451.15261
 91  5  1 22 53 59.9980000  0  4G 2G 6G13G15
  20498811.9124   -2386944.08248  -1834586.58663
  20252142.5144   -8357426.74147  -6450961.79763
  21328045.2254  -16238348.09846 -10706718.04961
  23182391.4434   -6064084.68546  -4435248.80561
 91  5  1 22 54 14.9980000  0  4G 2G 6G13G15
  20498192.2404   -2390207.83348  -1837129.77463
  20247331.0454   -8382720.55447  -6470671.23563
  21317537.1474  -16293566.26046 -10749745.06761
  23180754.9204   -6072667.58046  -4441936.75761
 91  5  1 22 54 29.9980000  0  4G 2G 6G13G15
  20497580.0064   -2393425.27548  -1839636.86664
  20242533.8184   -8407926.64847  -6490312.31863
  21307052.7324  -16348675.87546 -10792687.50061
  23179150.3184   -6081111.37046  -4448516.33261
 91  5  1 22 54 44.9980000  0  4G 2G 6G13G15
  20496977.0764   -2396596.50048  -1842107.94864
  20237749.3574   -8433044.85347  -6509884.92963
  21296586.1074  -16403676.77346 -10835545.22161
  23177572.7644   -6089416.26246  -4454987.65961
 91  5  1 22 54 59.9980000  0  4G 2G 6G13G15
  20496383.8654   -2399715.22848  -1844538.12664
  20232989.1544   -8458068.38147  -6529383.78363
  21286138.8264  -16458562.02346 -10878312.82861
  23176012.7484   -6097575.62246  -4461345.58961
 91  5  1 22 55 14.9980000  0  4G 2G 6G13G15
  20495800.8344   -2402782.82348  -1846928.45164
  20228245.0534   -8482998.52547  -6548809.86863
  21275716.0224  -16513332.89846 -10920991.31861
  23174489.6394   -6105590.66446  -4467591.06261
 91  5  1 22 55 29.9980000  0  4G 2G 6G13G15
  20495225.1074   -2405801.23748  -1849280.45564
  20223520.3034   -8507836.92847  -6568164.45163
  21265315.9674  -16567991.07646 -10963581.98761
  23172993.2014   -6113463.59446  -4473725.82561
 91  5  1 22 55 44.9980000  0  4G 2G 6G13G15
  20494657.9904   -2408773.05448  -1851596.15364
  20218810.9204   -8532585.80247  -6587449.26163
  21254937.7094  -16622538.86347 -11006086.64661
  23171524.9984   -6121196.75346  -4479751.66561
 91  5  1 22 55 59.9980000  0  4G 2G 6G13G15
  20494102.6544   -2411694.27148  -1853872.42864
  20214118.3654   -8557240.93047  -6606661.01363
  21244580.4364  -16676972.09847 -11048502.04961
  23170079.5844   -6128785.99946  -4485665.36661
 91  5  1 22 56 14.9980000  0  4G 2G 6G13G15
  20493554.3574   -2414568.06848  -1856111.74764
  20209445.3894   -8581804.91547  -6625801.76063
  21234242.8574  -16731293.47847 -11090830.28261
  23168661.9204   -6136234.22046  -4491469.16161
 91  5  1 22 56 29.9980000  0  4G 2G 6G13G15
  20493017.5684   -2417393.13048  -1858313.10664
  20204789.0684   -8606276.50347  -6644870.51563
  21223925.1474  -16785501.41347 -11133070.12461
  23167269.9514   -6143540.39246  -4497162.27561
 91  5  1 22 56 44.9980000  0  4G 2G 6G13G15
  20492490.2254   -2420167.48648  -1860474.94564
  20200150.9204   -8630653.32047  -6663865.42363
  21213632.1394  -16839593.62046 -11175219.77861
  23165902.5924   -6150702.44446  -4502743.08361
 91  5  1 22 56 59.9980000  0  4G 2G 6G13G15
  20491969.7954   -2422893.30448  -1862598.95564
  20195530.0454   -8654937.42947  -6682788.08163
  21203360.6624  -16893571.94047 -11217280.68961
  23164571.0924   -6157722.21346  -4508213.02561
 91  5  1 22 57 14.9980000  0  4G 2G 6G13G15
  20491461.0924   -2425568.91548  -1864683.84664
  20190925.5144   -8679126.71447  -6701636.84563
  21193112.9434  -16947434.48047 -11259251.39461
  23163263.1864   -6164597.90346  -4513570.68261
 91  5  1 22 57 29.9980000  0  4G 2G 6G13G15
  20490963.6394   -2428195.56348  -1866730.58364
  20186340.6234   -8703222.20147  -6720412.52763
  21182885.5924  -17001182.26147 -11301132.67661
  23161981.4514   -6171330.89946  -4518817.17461
 91  5  1 22 57 44.9980000  0  4G 2G 6G13G15
  20490471.1394   -2430771.34848  -1868737.69063
  20181772.0144   -8727221.66747  -6739113.39263
  21172679.4124  -17054812.81647 -11342922.61661
  23160725.1474   -6177919.40946  -4523951.08061
 91  5  1 22 57 59.9980000  0  4G 2G 6G13G15
  20489990.3814   -2433298.29048  -1870706.74064
  20177223.1074   -8751126.80047  -6757740.75963
  21162492.3184  -17108327.90047 -11384622.58361
  23159502.5924   -6184365.45546  -4528973.97061
 91  5  1 22 58 14.9980000  0  4G 2G 6G13G15
  20489518.7874   -2435778.21048  -1872639.14963
  20172693.1154   -8774939.23247  -6776295.87863
  21152331.1934  -17161729.42447 -11426234.05361
  23158299.0534   -6190670.49846  -4533886.98461
 91  5  1 22 58 29.9980000  0  4G 2G 6G13G15
  20489055.7324   -2438210.09248  -1874534.13263
  20168179.5534   -8798657.62047  -6794777.71263
  21142192.6234  -17215015.95947 -11467755.93161
  23157130.5224   -6196833.40246  -4538689.26561
 91  5  1 22 58 44.9980000  0  4G 2G 6G13G15
  20488604.2564   -2440594.11648  -1876391.81763
  20163683.6474   -8822281.86547  -6813186.19463
  21132075.3814  -17268187.37047 -11509188.10461
  23155985.6394   -6202854.49146  -4543381.01961
 91  5  1 22 58 59.9980000  0  4G 2G 6G13G15
  20488160.4674   -2442928.25048  -1878210.61363
  20159206.4594   -8845809.72247  -6831519.57463
  21121980.2094  -17321241.22247 -11550528.67461
  23154860.3734   -6208731.63446  -4547960.60861
 91  5  1 22 59 14.9980000  0  4G 2G 6G13G15
  20487724.0064   -2445211.74348  -1879989.96163
  20154747.9594   -8869240.00047  -6849776.91763
  21111906.1784  -17374176.40047 -11591776.76861
  23153772.8424   -6214463.97346  -4552427.34761
 91  5  1 22 59 29.9980000  0  4G 2G 6G13G15
  20487299.8344   -2447445.43348  -1881730.49263
  20150307.7174   -8892573.51047  -6867958.84863
  21101853.3424  -17426993.69746 -11632933.00561
  23152710.8734   -6220052.39345  -4556781.92861
 91  5  1 22 59 44.9980000  0  4G 2G 6G13G15
  20486883.5224   -2449632.80048  -1883434.92863
  20145885.2794   -8915813.24747  -6886067.70663
  21091821.7324  -17479696.05746 -11673999.67861
  23151676.1864   -6225500.17146  -4561026.93061
 91  5  1 22 59 59.9980000  0  4G 2G 6G13G15
  20486475.5684   -2451771.93048  -1885101.77663
  20141482.4284   -8938957.17847  -6904101.91063
  21081816.5534  -17532281.46547 -11714975.21261
  23150668.1704   -6230805.53346  -4565160.96261
 91  5  1 23  0 14.9980000  0  4G 2G 6G13G15
  20486078.4514   -2453860.10948  -1886728.92263
  20137095.5844   -8962002.19647  -6922059.04463
  21071834.8894  -17584746.92647 -11755857.28261
  23149685.5224   -6235965.61746  -4569181.79061
 91  5  1 23  0 29.9980000  0  4G 2G 6G13G15
  20485689.6394   -2455898.66248  -1888317.40363
  20132728.7254   -8984949.33647  -6939939.91163
  21061874.4904  -17637093.42947 -11796646.67561
  23148731.6074   -6240981.39246  -4573090.19861
 91  5  1 23  0 44.9980000  0  4G 2G 6G13G15
  20485311.3574   -2457889.26748  -1889868.52063
  20128380.4284   -9007799.95747  -6957745.57563
  21051933.5924  -17689322.29047 -11837344.39761
  23147803.8504   -6245854.85646  -4576887.71661
 91  5  1 23  0 59.9980000  0  4G 2G 6G13G15
  20484940.2174   -2459834.54748  -1891384.31564
  20124050.1864   -9030556.51147  -6975477.93863
  21042016.5144  -17741435.79647 -11877952.22361
  23146900.1394   -6250588.51546  -4580576.31461
 91  5  1 23  1 14.9980000  0  4G 2G 6G13G15
  20484581.1784   -2461733.52848  -1892864.04364
  20119736.9904   -9053217.88247  -6993136.12363
  21032118.5224  -17793432.95246 -11918469.39461
  23146021.4284   -6255181.50445  -4584155.26861
 91  5  1 23  1 29.9980000  0  4G 2G 6G13G15
  20484230.1864   -2463580.70448  -1894303.39964
  20115444.5224   -9075778.18947  -7010715.56063
  21022247.1704  -17845307.75846 -11958891.20861
  23145179.0064   -6259628.17145  -4587620.20561
 91  5  1 23  1 44.9980000  0  4G 2G 6G13G15
  20483886.6704   -2465380.73548  -1895706.02064
  20111169.4284   -9098241.70247  -7028219.56863
  21012399.5684  -17897064.53646 -11999221.05661
  23144360.2174   -6263932.85245  -4590974.48961
 91  5  1 23  1 59.9980000  0  4G 2G 6G13G15
  20483551.9754   -2467131.71148  -1897070.42364
  20106915.2484   -9120606.37547  -7045646.56263
  21002572.5534  -17948701.36146 -12039457.43761
  23143567.0844   -6268094.05146  -4594216.96561
 91  5  1 23  2 14.9980000  0  4G 2G 6G13G15
  20483229.4594   -2468836.39548  -1898398.75364
  20102675.9434   -9142874.62547  -7062998.43163
  20992770.4124  -18000220.67247 -12079602.25161
  23142803.8734   -6272114.15946  -4597349.52161
 91  5  1 23  2 29.9980000  0  4G 2G 6G13G15
  20482911.9434   -2470493.83948  -1899690.26864
  20098456.5614   -9165045.16747  -7080274.16763
  20982989.0764  -18051621.33647 -12119654.62261
  23142064.8264   -6275992.47246  -4600371.58361
 91  5  1 23  2 44.9980000  0  4G 2G 6G13G15
  20482606.8974   -2472102.96548  -1900944.13663
  20094257.8424   -9187116.81647  -7097472.84263
  20973230.1864  -18102901.96446 -12159613.45361
  23141354.8114   -6279727.87346  -4603282.27661
 91  5  1 23  2 59.9980000  0  4G 2G 6G13G15
  20482308.4904   -2473664.14148  -1902160.63163
  20090076.5224   -9209089.62847  -7114594.49763
  20963492.7644  -18154062.64146 -12199478.80761
  23140674.6864   -6283320.65546  -4606081.84361
 91  5  1 23  3 14.9980000  0  4G 2G 6G13G15
  20482020.9514   -2475181.95448  -1903343.33063
  20085912.1394   -9230967.82647  -7131642.42363
  20953779.5064  -18205107.58146 -12239253.98661
  23140011.1394   -6286775.21746  -4608773.69161
 91  5  1 23  3 29.9980000  0  4G 2G 6G13G15
  20481743.7724   -2476649.93848  -1904487.20763
  20081769.1394   -9252744.69747  -7148611.39263
  20944091.7174  -18256030.13746 -12278933.79361
  23139379.8184   -6290085.24746  -4611352.91761
 91  5  1 23  3 44.9980000  0  4G 2G 6G13G15
  20481473.6234   -2478064.77448  -1905589.65863
  20077646.4514   -9274416.66747  -7165498.61463
  20934425.3264  -18306826.63046 -12318515.37861
  23138780.1784   -6293247.30346  -4613816.85561
 91  5  1 23  3 59.9980000  0  4G 2G 6G13G15
  20481212.8574   -2479433.02748  -1906655.82163
  20073542.4124   -9295990.08147  -7182309.04263
  20924781.5614  -18357503.60646 -12358003.83261
  23138205.5684   -6296268.01046  -4616170.65661
 91  5  1 23  4 14.9980000  0  4G 2G 6G13G15
  20480960.8734   -2480753.10248  -1907684.44263
  20069453.7954   -9317463.15547  -7199041.29263
  20915160.8654  -18408059.08547 -12397397.61561
  23137659.8574   -6299145.57946  -4618412.91161
 91  5  1 23  4 29.9980000  0  4G 2G 6G13G15
  20480719.1394   -2482022.77148  -1908673.79363
  20065386.5614   -9338833.23347  -7215693.29963
  20905565.1864  -18458490.54247 -12436694.76161
  23137138.6784   -6301878.20446  -4620542.24261
 91  5  1 23  4 44.9980000  0  4G 2G 6G13G15
  20480485.2724   -2483245.12648  -1909626.28064
  20061339.9674   -9360103.34447  -7232267.41663
  20895990.8264  -18508800.83147 -12475897.48261
  23136644.0684   -6304468.80446  -4622560.87161
 91  5  1 23  4 59.9980000  0  4G 2G 6G13G15
  20480262.7484   -2484422.72748  -1910543.89164
  20057309.8974   -9381275.60947  -7248765.27063
  20886438.8424  -18558992.31647 -12515007.63361
  23136178.2404   -6306919.66145  -4624470.63161
 91  5  1 23  5 14.9980000  0  4G 2G 6G13G15
  20480044.8034   -2485552.47347  -1911424.21664
  20053300.0924   -9402346.67647  -7265184.26263
  20876911.1154  -18609061.48747 -12554022.47461
  23135740.7954   -6309227.55346  -4626268.96461
 91  5  1 23  5 29.9980000  0  4G 2G 6G13G15
  20479842.7564   -2486634.90148  -1912267.67464
  20049311.0224   -9423316.82847  -7281524.61363
  20867405.5454  -18659008.61847 -12592942.21661
  23135328.6704   -6311393.18046  -4627956.47561
 91  5  1 23  5 44.9980000  0  4G 2G 6G13G15
  20479644.4904   -2487669.40848  -1913073.77964
  20045339.2564   -9444185.31047  -7297785.74763
  20857925.4124  -18708833.17347 -12631766.45061
  23134941.6074   -6313416.16846  -4629532.83061
 91  5  1 23  5 59.9980000  0  4G 2G 6G13G15
  20479456.6624   -2488656.90248  -1913843.26064
  20041386.4204   -9464952.52647  -7313967.97863
  20848466.1474  -18758535.40247 -12670495.37061
  23134590.1314   -6315297.01246  -4630998.42961
 91  5  1 23  6 14.9980000  0  4G 2G 6G13G15
  20479277.1004   -2489597.76648  -1914576.40664
  20037453.6624   -9485618.74547  -7330071.51063
  20839031.9514  -18808115.38047 -12709129.02361
  23134252.1314   -6317036.40046  -4632353.79561
 91  5  1 23  6 29.9980000  0  4G 2G 6G13G15
  20479106.5064   -2490487.84948  -1915269.98364
  20033539.7874   -9506179.60147  -7346092.95064
  20829620.1704  -18857569.27247 -12747664.42661
  23133953.8574   -6318630.13446  -4633595.65661
 91  5  1 23  6 44.9980000  0  4G 2G 6G13G15
  20478945.8114   -2491333.56548  -1915928.99064
  20029648.0064   -9526641.30347  -7362037.13064
  20820232.4754  -18906903.25347 -12786106.38661
  23133670.6544   -6320084.72246  -4634729.09361
 91  5  1 23  6 59.9980000  0  4G 2G 6G13G15
  20478797.0614   -2492130.82048  -1916550.23864
  20025773.6474   -9546999.40647  -7377900.58563
  20810867.3574  -18956112.78147 -12824451.37661
  23133423.5684   -6321395.97146  -4635750.82961
 91  5  1 23  7 14.9980000  0  4G 2G 6G13G15
  20478654.4044   -2492872.58548  -1917128.23463
  20021921.0684   -9567246.49647  -7393677.52363
  20801530.7174  -19005190.08147 -12862693.33561
  23133209.8264   -6322556.56446  -4636655.17561
 91  5  1 23  7 29.9980000  0  4G 2G 6G13G15
  20478523.3654   -2493569.68148  -1917671.42763
  20018089.1624   -9587393.24247  -7409376.26863
  20792213.8654  -19054145.90447 -12900840.64061
  23133010.8894   -6323577.43446  -4637450.65261
 91  5  1 23  7 44.9980000  0  4G 2G 6G13G15
  20478399.3504   -2494218.00748  -1918176.61563
  20014271.6004   -9607435.32447  -7424993.45763
  20782920.9674  -19102976.13647 -12938890.08161
  23132841.5064   -6324454.86446  -4638134.35261
 91  5  1 23  7 59.9980000  0  4G 2G 6G13G15
  20478283.3424   -2494818.30448
  20010478.1474   -9627373.34447  -7440529.55863
  20773652.6314  -19151681.38647 -12976842.13061
  23132701.4514   -6325189.46945
 91  5  1 23  8 14.9980000  0  4G 2G 6G13G15
  20478179.0294   -2495372.91448
  20006702.9754   -9647209.07447  -7455985.96263
  20764408.1784  -19200263.66047 -13014698.35361
  23132584.7254   -6325783.38646
 91  5  1 23  8 29.9980000  0  4G 2G 6G13G15
  20478084.8184   -2495880.02348  -1919471.68463
  20002949.4824   -9666940.58547  -7471361.16464
  20755185.8424  -19248720.84947 -13052457.10461
  23132500.9754   -6326234.99546  -4639521.47661
 91  5  1 23  8 44.9980000  0  4G 2G 6G13G15
  20477994.1864   -2496335.77648  -1919826.81263
  19999214.8264   -9686563.85047  -7486652.01563
  20745988.6704  -19297048.86547 -13090115.19961
  23132446.4284   -6326540.53546  -4639759.52361
 91  5  1 23  8 59.9980000  0  4G 2G 6G13G15
  20477916.8974   -2496744.96148  -1920145.65763
  19995502.8184   -9706083.50447  -7501862.12663
  20736817.1934  -19345252.31847 -13127676.23761
  23132417.5764   -6326704.79146
 91  5  1 23  9 14.9980000  0  4G 2G 6G13G15
  20477848.4204   -2497104.36848  -1920425.72063
  19991806.9904   -9725496.06647  -7516988.78263
  20727668.5454  -19393328.07147 -13165137.76961
  23132414.1154   -6326724.60546
 91  5  1 23  9 29.9980000  0  4G 2G 6G13G15
  20477791.7404   -2497416.57448  -1920668.99463
  19988132.1474   -9744803.53447  -7532033.54563
  20718544.1544  -19441278.16147 -13202501.38461
  23132433.7324   -6326602.34346
 91  5  1 23  9 44.9980000  0  4G 2G 6G13G15
  20477737.2644   -2497685.19548  -1920878.30863
  19984479.0144   -9764009.44947  -7546999.18063
  20709442.0614  -19489105.98347 -13239769.72661
  23132482.5374   -6326341.76546
 91  5  1 23  9 59.9980000  0  4G 2G 6G13G15
  20477696.7174   -2497902.83348  -1921047.88863
  19980844.3034   -9783106.42247  -7561879.93063
  20700365.7564  -19536803.96046 -13276936.89061
  23132563.0144   -6325935.73646        -0.26071
 91  5  1 23 10 14.9980000  0  4G 2G 6G13G15
  20477665.0764   -2498074.02848
  19977229.7094   -9802098.52847  -7576678.96363
  20691309.8344  -19584376.22146 -13314006.08161
  23132663.5374   -6325388.48846       426.15161
 91  5  1 23 10 29.9980000  0  4G 2G 6G13G15
  20477641.7724   -2498194.80748
  19973635.6934   -9820981.46547  -7591392.93163
  20682284.0294  -19631818.69046 -13350974.14461
  23132799.2644   -6324695.96745       965.78661
 91  5  1 23 10 44.9980000  0  4G 2G 6G13G15
  20477625.2254   -2498269.50048
  19970064.8424   -9839759.52047  -7606025.16963
  20673281.1784  -19679135.34847 -13387844.17961
  23132952.2014   -6323862.85345      1614.99561
 91  5  1 23 10 59.9980000  0  4G 2G 6G13G15
  20477621.8184   -2498297.04748
  19966511.4364   -9858431.33647  -7620574.62163
  20664302.3344  -19726325.38047 -13424615.54961
  23133138.1004   -6322888.11345      2374.54661
 91  5  1 23 11 14.9980000  0  4G 2G 6G13G15
  20477626.7094   -2498276.76348
  19962978.6394   -9876996.00247  -7635040.58363
  20655345.4754  -19773387.93446 -13461287.56961
  23133357.5924   -6321771.19345      3244.89161
 91  5  1 23 11 29.9980000  0  4G 2G 6G13G15
  20477638.7094   -2498211.51248
  19959463.9984   -9895455.95547  -7649424.94563
  20646413.7014  -19820325.33046 -13497862.08061
  23133594.1154   -6320514.85746      4223.86061
 91  5  1 23 11 44.9980000  0  4G 2G 6G13G15
  20477658.4434   -2498097.46748
  19955971.8264   -9913807.33747  -7663724.71263
  20637505.7794  -19867133.59746 -13534335.96461
  23133857.4284   -6319115.11946      5314.56661
 91  5  1 23 11 59.9980000  0  4G 2G 6G13G15
  20477692.1474   -2497933.30548
  19952500.6234   -9932048.41247  -7677938.52563
  20628621.8034  -19913811.01946 -13570707.88461
  23134153.5924   -6317570.83046      6517.90461
 91  5  1 23 12 14.9980000  0  4G 2G 6G13G15
  20477729.9904   -2497722.86548
  19949050.1394   -9950182.62947  -7692069.07763
  20619764.4044  -19960361.13246 -13606980.60761
  23134471.6394   -6315885.78946      7830.90361
 91  5  1 23 12 29.9980000  0  4G 2G 6G13G15
  20477780.5064   -2497465.10148
  19945619.7174   -9968208.96347  -7706115.56463
  20610931.6004  -20006782.72547 -13643153.18761
  23134819.6394   -6314058.88646      9254.47361
 91  5  1 23 12 44.9980000  0  4G 2G 6G13G15
  20477840.0764   -2497158.73448
  19942208.7874   -9986125.93847  -7720076.83663
  20602123.4824  -20053074.48647 -13679224.60961
  23135193.8344   -6312089.26246     10789.23461
 91  5  1 23 12 59.9980000  0  4G 2G 6G13G15
  20477908.5534   -2496804.78748
  19938821.5534  -10003934.35647  -7733953.51563
  20593341.5684  -20099237.20147 -13715195.47761
  23135598.6624   -6309977.92845     12434.45861
 91  5  1 23 13 14.9980000  0  4G 2G 6G13G15
  20477985.0764   -2496402.67648        -0.42873
  19935455.2094  -10021633.11147  -7747744.73863
  20584581.4754  -20145270.21947 -13751065.28861
  23136028.7564   -6307724.15245     14190.66861
 91  5  1 23 13 29.9980000  0  4G 2G 6G13G15
  20478067.9824   -2495952.11248       350.66764
  19932107.6074  -10039221.90647  -7761450.26563
  20575843.6154  -20191173.05547 -13786833.65061
  23136482.7874   -6305328.12345     16057.70361
 91  5  1 23 13 44.9980000  0  4G 2G 6G13G15
  20478165.7874   -2495454.85148       738.14664
  19928780.7794  -10056702.39247  -7775071.40063
  20567132.2724  -20236947.31147 -13822501.82261
  23136963.5064   -6302791.39446     18034.36461
 91  5  1 23 13 59.9980000  0  4G 2G 6G13G15
  20478266.3424   -2494907.79248      1164.42164
  19925474.8894  -10074071.19247  -7788605.52063
  20558445.9044  -20282589.54047 -13858067.11161
  23137476.9674   -6300111.14846     20122.85461
 91  5  1 23 14 14.9980000  0  4G 2G 6G13G15
  20478383.1004   -2494314.99248      1626.34063
  19922188.6544  -10091331.82046  -7802055.35963
  20549783.9824  -20328103.46347 -13893532.42161
  23138011.5764   -6297291.05046     22320.32261
 91  5  1 23 14 29.9980000  0  4G 2G 6G13G15
  20478501.0924   -2493675.69348      2124.49363
  19918926.7644  -10108483.44047  -7815420.25963
  20541149.3504  -20373488.24847 -13928897.09861
  23138577.4434   -6294330.42746     24627.28461
 91  5  1 23 14 44.9980000  0  4G 2G 6G13G15
  20478632.6704   -2492988.06248      2660.30763
  19915684.3814  -10125524.01547  -7828698.62563
  20532538.7014  -20418741.72647 -13964159.46461
  23139163.0144   -6291227.53146     27045.13461
 91  5  1 23 14 59.9980000  0  4G 2G 6G13G15
  20478770.9124   -2492254.41148      3231.97363
  19912463.9824  -10142455.71247  -7841892.14063
  20523951.0454  -20463866.22747 -13999321.33061
  23139785.3654   -6287984.96546     29571.82561
 91  5  1 23 15 14.9980000  0  4G 2G 6G13G15
  20478922.4754   -2491470.57648      3842.75363
  19909261.6234  -10159274.04447  -7854997.32063
  20515389.7324  -20508857.36747 -14034379.27961
  23140428.0064   -6284598.85245     32210.37561
 91  5  1 23 15 29.9980000  0  4G 2G 6G13G15
  20479079.6934   -2490640.52548      4489.54663
  19906082.7404  -10175982.69747  -7868017.03263
  20506851.4044  -20553718.86547 -14069336.20961
  23141094.7874   -6281072.64045     34958.08861
 91  5  1 23 15 44.9980000  0  4G 2G 6G13G15
  20479245.7324   -2489764.26148      5172.33464
  19902923.8654  -10192581.52147  -7880951.16863
  20498337.2954  -20598450.75447 -14104192.15061
  23141793.3264   -6277406.88346     37814.52261
 91  5  1 23 15 59.9980000  0  4G 2G 6G13G15
  20479421.1004   -2488840.87748      5891.84664
  19899785.8814  -10209069.42747  -7893798.87563
  20489852.4284  -20643051.70247 -14138946.04761
  23142522.1234   -6273600.65646     40780.41661
 91  5  1 23 16 14.9980000  0  4G 2G 6G13G15
  20479604.4124   -2487870.44648      6648.01564
  19896670.2564  -10225446.15047  -7906559.94663
  20481391.5844  -20687521.87947 -14173598.06061
  23143274.0924   -6269653.89646     43855.78361
 91  5  1 23 16 29.9980000  0  4G 2G 6G13G15
  20479800.3894   -2486852.30248      7441.36564
  19893573.2564  -10241710.71447  -7919233.62563
  20472954.1624  -20731859.88747 -14208147.07861
  23144051.1154   -6265565.83146     47041.27461
 91  5  1 23 16 44.9980000  0  4G 2G 6G13G15
  20480003.7254   -2485786.11348      8272.15164
  19890500.0844  -10257862.60547  -7931819.51563
  20464540.8894  -20776065.47647 -14242592.91761
  23144854.2404   -6261336.40046     50336.93761
 91  5  1 23 16 59.9980000  0  4G 2G 6G13G15
  20480215.7174   -2484672.43548      9139.93864
  19887448.0064  -10273902.41347  -7944318.06063
  20456152.7484  -20820139.14747 -14276935.96661
  23145684.1234   -6256966.55546     53741.98461
 91  5  1 23 17 14.9980000  0  4G 2G 6G13G15
  20480438.0454   -2483507.12148     10047.96764
  19884419.1624  -10289825.62947  -7956725.74563
  20447791.0064  -20864076.77647 -14311173.00561
  23146544.6704   -6252451.98145     57259.85061
 91  5  1 23 17 29.9980000  0  4G 2G 6G13G15
  20480667.2484   -2482295.33148     10992.21763
  19881409.3504  -10305637.17047  -7969046.40863
  20439456.1704  -20907883.21747 -14345307.82161
  23147428.7954   -6247797.83745     60886.45561
 91  5  1 23 17 44.9980000  0  4G 2G 6G13G15
  20480907.3504   -2481037.90248     11972.02363
  19878421.9364  -10321337.72447  -7981280.59163
  20431143.3184  -20951559.00147 -14379340.82261
  23148344.3974   -6243005.22645     64620.97361
 91  5  1 23 17 59.9980000  0  4G 2G 6G13G15
  20481156.4904   -2479733.00948     12988.82163
  19875454.9204  -10336925.13647  -7993426.62063
  20422858.2324  -20995101.96647 -14413270.32462
  23149277.9904   -6238072.25646     68464.85361
 91  5  1 23 18 14.9980000  0  4G 2G 6G13G15
  20481413.6004   -2478381.65048     14041.83663
  19872511.2324  -10352400.34147  -8005485.21863
  20414597.4904  -21038512.97547 -14447097.01361
  23150248.0144   -6233000.13646     72417.14161
 91  5  1 23 18 29.9980000  0  4G 2G 6G13G15
  20481680.2324   -2476984.57348     15130.46463
  19869587.3264  -10367763.64147  -8017456.61463
  20406361.2094  -21081792.79847 -14480821.48161
  23151238.2644   -6227789.51246     76477.33261
 91  5  1 23 18 44.9980000  0  4G 2G 6G13G15
  20481953.6704   -2475536.55248     16258.78863
  19866684.8974  -10383009.72647  -8029336.66363
  20398151.0294  -21124936.02347 -14514439.50961
  23152260.0844   -6222435.50246     80649.26661
 91  5  1 23 18 59.9980000  0  4G 2G 6G13G15
  20482237.1864   -2474044.07048     17421.75564
  19863806.5534  -10398144.75947  -8041130.19063
  20389966.2724  -21167948.88547 -14547955.95161
  23153300.9904   -6216944.55646     84927.88161
 91  5  1 23 19 14.9980000  0  4G 2G 6G13G15
  20482529.1934   -2472505.36547     18620.72764
  19860947.0374  -10413166.93247  -8052835.77163
  20381806.7094  -21210829.54347 -14581369.38561
  23154375.4674   -6211314.92146     89314.60161
 91  5  1 23 19 29.9980000  0  4G 2G 6G13G15
  20482832.6934   -2470918.33748     19857.34864
  19858110.1234  -10428073.80647  -8064451.51063
  20373672.9904  -21253575.61647 -14614677.94361
  23155469.9674   -6205544.76046     93810.81861
 91  5  1 23 19 44.9980000  0  4G 2G 6G13G15
  20483142.9904   -2469288.92248     21127.01263
  19855295.6154  -10442871.24947  -8075981.97363
  20365562.0764  -21296193.09947 -14647886.29861
  23156592.4124   -6199640.21946     98411.77161
 91  5  1 23 19 59.9980000  0  4G 2G 6G13G15
  20483463.8574   -2467609.64348     22435.53063
  19852502.8114  -10457551.50847  -8087421.12263
  20357476.7014  -21338674.29447 -14680988.45761
  23157744.1234   -6193593.51546    103123.49361
 91  5  1 23 20 14.9980000  0  4G 2G 6G13G15
  20483792.3504   -2465885.74848     23778.82563
  19849727.6784  -10472119.44847  -8098772.75763
  20349418.1004  -21381024.00847 -14713988.16361
  23158922.5454   -6187410.05246    107941.77061
 91  5  1 23 20 29.9980000  0  4G 2G 6G13G15
  20484128.2094   -2464110.54948     25162.09463
  19846980.4824  -10486568.30447  -8110031.60363
  20341387.0374  -21423235.43147 -14746880.11462
  23160125.3734   -6181083.43046    112871.59161
 91  5  1 23 20 44.9980000  0  4G 2G 6G13G15
  20484476.5764   -2462286.94048     26583.09163
  19844250.8734  -10500900.77147  -8121199.75163
  20333378.8344  -21465311.62247 -14779666.68061
  23161357.3264   -6174616.59845    117910.67061
 91  5  1 23 20 59.9980000  0  4G 2G 6G13G15
  20484829.8184   -2460418.69748     28038.87463
  19841546.4594  -10515120.18647  -8132279.80863
  20325397.2954  -21507255.88847 -14812350.45261
  23162611.1784   -6168013.21245    123056.15461
 91  5  1 23 21 14.9980000  0  4G 2G 6G13G15
  20485194.7724   -2458502.42348     29532.07063
  19838861.6004  -10529223.06747  -8143269.06563
  20317442.0844  -21549064.84447 -14844928.78661
  23163893.9124   -6161270.26845    128310.36461
 91  5  1 23 21 29.9980000  0  4G 2G 6G13G15
  20485570.6074   -2456541.04548     31060.41063
  19836201.0144  -10543212.28247  -8154169.74563
  20309511.5454  -21590741.31147 -14877403.88261
  23165201.6314   -6154391.05645    133670.78461
 91  5  1 23 21 44.9980000  0  4G 2G 6G13G15
  20485950.4594   -2454534.43948     32623.99764
  19833561.3184  -10557087.68447  -8164981.73863
  20301605.8034  -21632285.15547 -14909775.64461
  23166542.2404   -6147375.50645    139137.43061
 91  5  1 23 21 59.9980000  0  4G 2G 6G13G15
  20486339.7644   -2452479.09248     34225.55564
  19830942.3344  -10570845.38247  -8175702.00663
  20293726.9364  -21673692.62347 -14942041.13561
  23167901.9984   -6140220.04946    144713.08761
 91  5  1 23 22 14.9980000  0  4G 2G 6G13G15
  20486741.4124   -2450376.58348     35863.86364
  19828344.3504  -10584486.65547  -8186331.55763
  20285871.2094  -21714965.17247 -14974201.49262
  23169287.2174   -6132926.31246    150396.50861
 91  5  1 23 22 29.9980000  0  4G 2G 6G13G15
  20487150.0764   -2448227.76748     37538.25564
  19825769.9824  -10598012.13947  -8196870.89363
  20278043.9434  -21756103.35947 -15006257.14661
  23170705.6864   -6125495.14346    156187.01561
 91  5  1 23 22 44.9980000  0  4G 2G 6G13G15
  20487569.7404   -2446030.22148     39250.62064
  19823220.2644  -10611419.27447  -8207318.01563
  20270241.1864  -21797104.70847 -15038206.17961
  23172144.7724   -6117924.22446    162086.42961
 91  5  1 23 22 59.9980000  0  4G 2G 6G13G15
  20487996.1394   -2443782.47548     41002.11163
  19820692.8734  -10624706.40247  -8217671.61663
  20262467.1234  -21837967.38047 -15070047.15461
  23173611.6864   -6110212.48645    168095.57261
 91  5  1 23 23 14.9980000  0  4G 2G 6G13G15
  20488432.1784   -2441489.92047     42788.51663
  19818186.1704  -10637878.64647  -8227935.69063
  20254716.4044  -21878696.75347 -15101784.25762
  23175102.4824   -6102365.22745    174210.32061
 91  5  1 23 23 29.9980000  0  4G 2G 6G13G15
  20488878.5144   -2439149.85648     44611.93363
  19815702.2954  -10650933.14147  -8238108.00563
  20246990.7174  -21919290.06147 -15133415.33961
  23176627.1784   -6094380.04046    180432.54561
 91  5  1 23 23 44.9980000  0  4G 2G 6G13G15
  20489331.3654   -2436762.35448     46472.32863
  19813241.4514  -10663869.76747  -8248188.47763
  20239293.9204  -21959747.30847 -15164940.39661
  23178173.6784   -6086257.04646    186762.12361
 91  5  1 23 23 59.9980000  0  4G 2G 6G13G15
  20489796.0454   -2434328.41848     48368.90263
  19810799.8114  -10676689.47747  -8258177.85563
  20231621.0454  -22000069.43347 -15196360.17462
  23179745.2794   -6077997.47446    193198.12661
 91  5  1 23 24 14.9970000  0  4G 2G 6G13G15
  20490269.4544   -2431846.02848     50303.22263
  19808383.6034  -10689388.85447  -8268073.47463
  20223973.7594  -22040251.17947 -15227670.55561
  23181339.4074   -6069599.70346    199741.81361
 91  5  1 23 24 29.9970000  0  4G 2G 6G13G15
  20490751.0324   -2429317.22448     52273.72064
  19805988.8844  -10701971.78647  -8277878.35463
  20216352.1494  -22080300.36247 -15258877.64762
  23182961.0014   -6061065.30745    206391.98161
 91  5  1 23 24 44.9970000  0  4G 2G 6G13G15
  20491239.1964   -2426743.87348     54278.93263
  19803619.5014  -10714438.98747  -8287593.05163
  20208756.6574  -22120215.70047 -15289980.44062
  23184607.2204   -6052396.44645    213146.91961
 91  5  1 23 24 59.9970000  0  4G 2G 6G13G15
  20491738.0564   -2424121.69548     56322.17863
  19801268.0174  -10726785.86747  -8297213.99263
  20201186.8294  -22159992.67447 -15320975.42161
  23186285.8604   -6043589.16045    220009.75661
 91  5  1 23 25 14.9970000  0  4G 2G 6G13G15
  20492248.3994   -2421450.97548     58403.26463
  19798940.0954  -10739012.62647  -8306741.33363
  20193643.2284  -22199631.66447 -15351862.88762
  23187990.0644   -6034643.46645    226980.43461
 91  5  1 23 25 29.9970000  0  4G 2G 6G13G15
  20492763.3924   -2418734.06648     60520.33763
  19796636.8844  -10751121.28547  -8316176.64763
  20186126.8844  -22239134.61147 -15382644.34761
  23189722.4464   -6025561.92046    234056.95261
 91  5  1 23 25 44.9970000  0  4G 2G 6G13G15
  20493288.0794   -2415968.95448     62674.96463
  19794354.6894  -10763109.76647  -8325518.30762
  20178636.4934  -22278499.57047 -15413318.27561
  23191478.0244   -6016342.98546    241240.51861
 91  5  1 23 25 59.9970000  0  4G 2G 6G13G15
  20493825.1734   -2413156.99848     64866.09963
  19792094.7434  -10774979.40647  -8334767.36162
  20171169.8924  -22317727.93647 -15443885.77761
  23193257.3064   -6006988.03846    248530.04961
 91  5  1 23 26 14.9970000  0  4G 2G 6G13G15
  20494368.7284   -2410299.51048     67092.71563
  19789858.6184  -10786731.17047  -8343924.56862
  20163732.5794  -22356820.89847 -15474347.76362
  23195062.8374   -5997498.41946    255924.52961
 91  5  1 23 26 29.9970000  0  4G 2G 6G13G15
  20494920.4074   -2407397.59348     69353.94563
  19787645.7204  -10798365.99247  -8352990.65263
  20156317.8144  -22395779.45747 -15504705.02562
  23196892.7354   -5987875.53545    263422.86261
 91  5  1 23 26 44.9970000  0  4G 2G 6G13G15
  20495481.3534   -2404445.00548     71654.65863
  19785455.7594  -10809877.45647  -8361960.61763
  20148930.8764  -22434597.15047 -15534952.51162
  23198746.7744   -5978113.28845    271029.78861
 91  5  1 23 26 59.9970000  0  4G 2G 6G13G15
  20496054.6424   -2401444.65948     73992.57764
  19783288.4464  -10821268.25647  -8370836.56363
  20141568.7284  -22473276.95347 -15565092.56161
  23200629.9234   -5968214.69345    278742.98361
 91  5  1 23 27 14.9970000  0  4G 2G 6G13G15
  20496632.8924   -2398397.30147     76367.13463
  19781142.4154  -10832539.00647  -8379618.96663
  20134236.1034  -22511819.21347 -15595125.43062
  23202542.9784   -5958180.75445    286561.61861
 91  5  1 23 27 29.9970000  0  4G 2G 6G13G15
  20497221.3454   -2395301.98948     78779.05964
  19779021.5174  -10843688.40947  -8388306.81163
  20126928.1424  -22550222.73747 -15625050.20061
  23204482.5174   -5948010.47746    294486.48861
 91  5  1 23 27 44.9970000  0  4G 2G 6G13G15
  20497819.7044   -2392159.53347     81227.71164
  19776922.6574  -10854717.33447  -8396900.77562
  20119645.5644  -22588488.53747 -15654867.64662
  23206439.7044   -5937704.92546    302516.76661
 91  5  1 23 27 59.9970000  0  4G 2G 6G13G15
  20498426.2124   -2388972.30648     83711.25363
  19774846.1424  -10865628.07047  -8405402.63862
  20112389.6894  -22626619.16147 -15684579.76362
  23208426.3994   -5927267.01245    310650.18161
 91  5  1 23 28 14.9970000  0  4G 2G 6G13G15
  20499042.8764   -2385735.31248     86233.58663
  19772792.6264  -10876415.20047  -8413808.17662
  20105160.6894  -22664609.19247 -15714182.32462
  23210440.2284   -5916691.45745    318890.85561
 91  5  1 23 28 29.9970000  0  4G 2G 6G13G15
  20499668.2594   -2382452.50748     88791.61563
  19770764.3604  -10887082.43747  -8422120.29962
  20097957.3604  -22702462.33947 -15743678.22561
  23212474.1344   -5905982.27745    327235.67561
 91  5  1 23 28 44.9970000  0  4G 2G 6G13G15
  20500302.7044   -2379119.94948     91388.41363
  19768757.5794  -10897625.75147  -8430335.85963
  20090780.2744  -22740174.87147 -15773064.55462
  23214536.4464   -5895135.64545    335687.58661
 91  5  1 23 28 59.9970000  0  4G 2G 6G13G15
  20500944.9074   -2375738.48748     94023.32063
  19766776.2284  -10908045.86347  -8438455.42163
  20083631.0404  -22777747.43947 -15802341.82362
  23216628.7904   -5884152.79945    344245.64361
 91  5  1 23 29 14.9970000  0  4G 2G 6G13G15
  20501597.3924   -2372310.83248     96694.21263
  19764815.1574  -10918345.45947  -8446481.07763
  20076506.5404  -22815182.57847 -15831511.99562
  23218744.8924   -5873036.71845    352907.49661
 91  5  1 23 29 29.9970000  0  4G 2G 6G13G15
  20502258.7434   -2368833.79647     99403.58563
  19762877.9854  -10928520.94947  -8454410.02662
  20069409.7354  -22852476.87747 -15860572.42862
  23220885.5094   -5861784.11846    361675.72061
 91  5  1 23 29 44.9970000  0  4G 2G 6G13G15
  20502928.1344   -2365311.26647    102148.40363
  19760965.1344  -10938576.19147  -8462245.27362
  20062339.1424  -22889634.24647 -15889526.16262
  23223055.1574   -5850399.04846    370547.14861
 91  5  1 23 29 59.9970000  0  4G 2G 6G13G15
  20503607.1494   -2361742.79547    104929.00663
  19759073.8214  -10948510.43447  -8469986.23562
  20055293.3374  -22926654.04447 -15918372.69762
  23225245.2744   -5838881.15545    379522.10361
 91  5  1 23 30 14.9970000  0  4G 2G 6G13G15
  20504295.0484   -2358124.04148    107748.80363
  19757207.4394  -10958319.30147  -8477629.50062
  20048277.8994  -22963531.97847 -15947108.69261
  23227459.5174   -5827226.61345    388603.53461
 91  5  1 23 30 29.9970000  0  4G 2G 6G13G15
  20504993.5954   -2354458.32648    110605.19763
  19755364.0564  -10968005.93347  -8485177.51962
  20041285.6264  -23000271.26347 -15975736.64162
  23229703.8374   -5815438.77045    397788.87661
 91  5  1 23 30 44.9970000  0  4G 2G 6G13G15
  20505701.5244   -2350748.36648    113496.06763
  19753544.6104  -10977572.88547  -8492632.28162
  20034320.6104  -23036874.75447 -16004258.78662
  23231973.8454   -5803520.61745    407075.74961
 91  5  1 23 30 59.9970000  0  4G 2G 6G13G15
  20506416.5794   -2346989.23548    116425.27163
  19751747.9314  -10987015.03747  -8499989.79063
  20027382.0404  -23073337.23447 -16032671.05562
  23234269.6184   -5791467.23445    416467.97661
 91  5  1 23 31 14.9970000  0  4G 2G 6G13G15
  20507139.6424   -2343184.36648    119390.10063
  19749972.7824  -10996335.55947  -8507252.53063
  20020468.6814  -23109662.01947 -16060976.03062
  23236585.6814   -5779282.14746    425962.83161
 91  5  1 23 31 29.9970000  0  4G 2G 6G13G15
  20507873.3214   -2339328.18348    122394.90663
  19748225.0244  -11005528.89947  -8514416.16563
  20013584.0874  -23145843.65647 -16089169.46162
  23238931.5324   -5766960.20046    435564.30761
 91  5  1 23 31 44.9970000  0  4G 2G 6G13G15
  20508615.4544   -2335426.35848    125435.28163
  19746497.5644  -11014600.36847  -8521484.83763
  20006723.1654  -23181887.37547 -16117255.41762
  23241301.5644   -5754506.97146    445268.08461
 91  5  1 23 31 59.9970000  0  4G 2G 6G13G15
  20509367.8374   -2331476.67448    128512.94963
  19744795.5484  -11023547.61647  -8528456.72063
  19999889.9784  -23217790.95047 -16145232.17362
  23243699.7594   -5741920.45946    455075.73461
 91  5  1 23 32 14.9970000  0  4G 2G 6G13G15
  20510127.0644   -2327481.60148    131625.98763
  19743115.4234  -11032373.13147  -8535333.74262
  19993086.6654  -23253556.97747 -16173101.74862
  23246117.5404   -5729203.56945    464984.97261
 91  5  1 23 32 29.9970000  0  4G 2G 6G13G15
  20510896.6894   -2323437.78148    134777.01463
  19741460.7514  -11041073.33747  -8542113.12062
  19986306.8604  -23289182.06047 -16200861.49962
  23248561.4394   -5716353.20145    474998.23361
 91  5  1 23 32 44.9970000  0  4G 2G 6G13G15
  20511676.3064   -2319345.41748    137965.86063
  19739828.8144  -11049648.32547  -8548794.92362
  19979553.9234  -23324666.25547 -16228511.46462
  23251028.4234   -5703369.83945    485115.12661
 91  5  1 23 32 59.9970000  0  4G 2G 6G13G15
  20512464.5954   -2315205.80148    141191.53963
  19738221.0404  -11058099.19347  -8555380.00162
  19972828.1654  -23360010.90647 -16256052.70562
  23253526.9854   -5690254.70945    495334.70861
 91  5  1 23 33 14.9970000  0  4G 2G 6G13G15
  20513260.9464   -2311015.74848    144456.52063
  19736637.0644  -11066422.54547  -8561865.71762
  19966129.6034  -23395212.42147 -16283482.40162
  23256048.8764   -5677004.65645    505659.39361
 91  5  1 23 33 29.9970000  0  4G 2G 6G13G15
  20514066.7984   -2306780.43848    147756.75763
  19735076.6574  -11074623.36147  -8568255.95563
  19959457.3994  -23430275.85547 -16310804.49962
  23258595.9234   -5663624.96145    516085.09861
 91  5  1 23 33 44.9970000  0  4G 2G 6G13G15
  20514882.0324   -2302498.23948    151093.53064
  19733539.1494  -11082699.84847  -8574549.31663
  19952812.2284  -23465199.66147 -16338017.79362
  23261169.4784   -5650114.37845    526612.78161
 91  5  1 23 33 59.9970000  0  4G 2G 6G13G15
  20515706.5484   -2298167.78848    154467.90463
  19732026.5404  -11090650.55547  -8580744.66762
  19946193.3454  -23499982.44447 -16365121.20662
  23263765.7904   -5636471.82745    537243.28861
 91  5  1 23 34 14.9970000  0  4G 2G 6G13G15
  20516537.8924   -2293788.33548    157880.45363
  19730536.6814  -11098474.61647  -8586841.33163
  19939601.5874  -23534623.45447 -16392114.15262
  23266381.7674   -5622696.76045    547977.06461
 91  5  1 23 34 29.9970000  0  4G 2G 6G13G15
  20517382.2284   -2289362.08348    161329.47563
  19729072.6574  -11106174.13947  -8592840.95363
  19933036.3214  -23569124.97747 -16418998.40862
  23269030.1654   -5608791.60845    558812.22761
 91  5  1 23 34 44.9970000  0  4G 2G 6G13G15
  20518233.1424   -2284887.26648    164816.35063
  19727631.2284  -11113747.27447  -8598742.09263
  19926497.3684  -23603484.99047 -16445772.38662
  23271699.7434   -5594754.67645    569750.07661
 91  5  1 23 34 59.9970000  0  4G 2G 6G13G15
  20519093.0564   -2280365.92648    168339.47463
  19726213.5324  -11121195.67047  -8604546.03163
  19919985.7594  -23637705.46647 -16472437.64762
  23274396.7204   -5580588.07145    580788.98861
 91  5  1 23 35 14.9970000  0  4G 2G 6G13G15
  20519964.8214   -2275793.12148    171902.70763
  19724820.2744  -11128514.34447  -8610248.89063
  19913499.7284  -23671781.28647 -16498990.17862
  23277117.5014   -5566287.21445    591932.49461
 91  5  1 23 35 29.9970000  0  4G 2G 6G13G15
  20520842.9934   -2271172.11548    175503.49963
  19723453.3534  -11135706.53247  -8615853.18863
  19907042.9784  -23705715.81847 -16525432.61762
  23279865.7984   -5551855.64145    603177.85861
 91  5  1 23 35 44.9970000  0  4G 2G 6G13G15
  20521732.2824   -2266498.16148    179145.53563
  19722108.9074  -11142767.26847  -8621355.04663
  19900612.0644  -23739504.40647 -16551761.33062
  23282640.1184   -5537288.78546    614528.62061
 91  5  1 23 35 59.9970000  0  4G 2G 6G13G15
  20522630.5794   -2261780.99748    182821.24763
  19720788.7434  -11149706.20947  -8626762.01163
  19894209.6734  -23773156.69547 -16577983.83762
  23285432.2904   -5522596.48745    625977.11261
 91  5  1 23 36 14.9970000  0  4G 2G 6G13G15
  20523538.7824   -2257014.96848    186535.03763
  19719492.9074  -11156517.51247  -8632069.51863
  19887832.5794  -23806666.78247 -16604095.53962
  23288253.5324   -5507773.25445    637527.63761
 91  5  1 23 36 29.9970000  0  4G 2G 6G13G15
  20524454.1734   -2252199.24448    190287.54763
  19718219.1494  -11163200.21947  -8637276.81962
  19881482.5714  -23840034.01747 -16630095.92461
  23291094.9854   -5492818.59245    649180.58461
 91  5  1 23 36 44.9970000  0  4G 2G 6G13G15
  20525379.4314   -2247333.74248    194078.85063
  19716973.3374  -11169754.04847  -8642383.68862
  19875160.3294  -23873258.01447 -16655984.70762
  23293968.1814   -5477732.64745    660935.83361
 91  5  1 23 36 59.9970000  0  4G 2G 6G13G15
  20526314.3684   -2242419.71348    197907.96863
  19715749.6814  -11176180.09747  -8647390.98362
  19868865.2594  -23906340.00247 -16681762.82662
  23296864.6424   -5462516.80245    672792.32061
 91  5  1 23 37 14.9970000  0  4G 2G 6G13G15
  20527258.9394   -2237458.57548    201773.78463
  19714551.5714  -11182479.82247  -8652299.85162
  19862596.2984  -23939281.50147 -16707431.47262
  23299785.1424   -5447172.63445    684748.80161
 91  5  1 23 37 29.9970000  0  4G 2G 6G13G15
  20528211.9464   -2232450.08348    205676.50263
  19713376.3684  -11188652.68147  -8657109.86462
  19856355.2354  -23972082.35447 -16732990.52962
  23302730.5404   -5431700.22845    696805.19761
 91  5  1 23 37 44.9970000  0  4G 2G 6G13G15
  20529175.1424   -2227394.10448    209616.21364
  19712227.4464  -11194698.35147  -8661820.77563
  19850139.9704  -24004742.00447 -16758439.55262
  23305700.3144   -5416099.45945    708961.62161
 91  5  1 23 37 59.9970000  0  4G 2G 6G13G15
  20530146.6184   -2222289.37148    213593.92263
  19711101.6104  -11200615.55747  -8666431.59463
  19843952.1184  -24037259.44047 -16783777.75862
  23308691.6894   -5400369.46645    721218.72561
 91  5  1 23 38 14.9970000  0  4G 2G 6G13G15
  20531126.5324   -2217135.68748    217609.77463
  19709999.5324  -11206403.90147  -8670941.98963
  19837790.8144  -24069634.25847 -16809004.83362
  23311705.1734   -5384510.06545    733576.67461
 91  5  1 23 38 29.9970000  0  4G 2G 6G13G15
  20532114.6034   -2211933.21248    221663.63163
  19708923.0644  -11212063.46647  -8675352.04363
  19831657.2124  -24101866.85847 -16834121.08062
  23314751.1104   -5368521.97345    746034.88461
 91  5  1 23 38 44.9970000  0  4G 2G 6G13G15
  20533114.9464   -2206682.27348    225755.25563
  19707868.2204  -11217594.65347  -8679662.05862
  19825551.5954  -24133957.51547 -16859126.72762
  23317817.8534   -5352405.63645    758593.02261
 91  5  1 23 38 59.9970000  0  4G 2G 6G13G15
  20534123.9394   -2201383.48848    229884.17463
  19706840.4074  -11222997.75747  -8683872.27062
  19819470.6574  -24165906.61447 -16884022.07562
  23320910.2284   -5336161.84245    771250.49161
 91  5  1 23 39 14.9970000  0  4G 2G 6G13G15
  20535140.6104   -2196037.96448    234049.51763
  19705838.2594  -11228273.92947  -8687983.56962
  19813418.4544  -24197715.36447 -16908808.05262
  23324025.5014   -5319791.94245    784006.20261
 91  5  1 23 39 29.9970000  0  4G 2G 6G13G15
  20536167.3064   -2190642.58948    238253.69963
  19704860.5014  -11233419.73047  -8691993.27463
  19807392.5714  -24229380.51047 -16933482.13262
  23327163.7044   -5303292.86045    796862.58461
 91  5  1 23 39 44.9970000  0  4G 2G 6G13G15
  20537202.8684   -2185200.46948    242494.30963
  19703902.5094  -11238438.12147  -8695903.70363
  19801394.9464  -24260905.23847 -16958046.80662
  23330324.8994   -5286668.21145    809816.83461
 91  5  1 23 39 59.9970000  0  4G 2G 6G13G15
  20538248.1894   -2179709.99348    246772.59463
  19702970.7744  -11243327.46247  -8699713.58363
  19795420.4234  -24292287.90947 -16982500.78162
  23333515.2744   -5269916.47145    822870.12061
 91  5  1 23 40 14.9970000  0  4G 2G 6G13G15
  20539302.5794   -2174168.95748    251090.27963
  19702068.0714  -11248085.52547  -8703421.17763
  19789477.4784  -24323526.34347 -17006842.36862
  23336725.6654   -5253035.73645    836023.91761
 91  5  1 23 40 29.9970000  0  4G 2G 6G13G15
  20540366.3064   -2168580.96148    255444.55763
  19701187.3064  -11252715.70247  -8707029.10563
  19783558.2744  -24354624.04847 -17031074.28862
  23339964.4074   -5236029.85345    849275.25461
 91  5  1 23 40 44.9970000  0  4G 2G 6G13G15
  20541439.3994   -2162946.71748    259834.87063
  19700328.8844  -11257218.59047  -8710537.84462
  19777669.2204  -24385581.64647 -17055197.04462
  23343227.1814   -5218899.62145    862623.43961
 91  5  1 23 40 59.9970000  0  4G 2G 6G13G15
  20542518.9234   -2157263.77648    264263.11763
  19699498.8604  -11261591.61347  -8713945.39362
  19771804.7284  -24416396.65847 -17079208.69562
  23346510.7204   -5201642.91945    876070.17361
 91  5  1 23 41 14.9970000  0  4G 2G 6G13G15
  20543610.7744   -2151531.63748    268729.69764
  19698688.2824  -11265834.01147  -8717251.15462
  19765966.1814  -24447068.32647 -17103108.65362
  23349819.0324   -5184259.17445    889615.88861
 91  5  1 23 41 29.9970000  0  4G 2G 6G13G15
  20544710.1814   -2145748.31548    273236.16063
  19697907.6034  -11269943.84047  -8720453.62062
  19760158.0094  -24477594.97047 -17126895.60262
  23353146.8214   -5166746.85545    903261.80361
 91  5  1 23 41 44.9970000  0  4G 2G 6G13G15
  20545821.2594   -2139916.07848    277780.73963
  19697150.8374  -11273923.29947  -8723554.49562
  19754376.4934  -24507979.00347 -17150571.42062
  23356506.3214   -5149108.60045    917005.85561
 91  5  1 23 41 59.9970000  0  4G 2G 6G13G15
  20546941.4624   -2134035.39148    282363.07963
  19696417.6894  -11277772.80747  -8726554.10162
  19748621.5954  -24538220.89647 -17174136.48062
  23359886.3684   -5131345.18945    930847.45761
 91  5  1 23 42 14.9970000  0  4G 2G 6G13G15
  20548066.5324   -2128107.25448    286982.39863
  19695712.3924  -11281493.24247  -8729453.13562
  19742893.5404  -24568321.81247 -17197591.68762
  23363285.7204   -5113457.90945    944785.56961
 91  5  1 23 42 29.9970000  0  4G 2G 6G13G15
  20549205.0484   -2122132.43748    291638.08663
  19695027.2594  -11285085.19747  -8732252.06163
  19737190.9624  -24598282.27747 -17220937.44962
  23366718.8844   -5095447.54845    958819.61261
 91  5  1 23 42 44.9970000  0  4G 2G 6G13G15
  20550351.1894   -2116105.87748    296334.10063
  19694367.6574  -11288543.61047  -8734946.93363
  19731519.0954  -24628097.07247 -17244169.71162
  23370167.7674   -5077309.27445    972953.28561
 91  5  1 23 42 59.9970000  0  4G 2G 6G13G15
  20551507.5954   -2110032.09348    301066.91063
  19693733.8294  -11291872.80647  -8737541.11163
  19725872.4074  -24657770.62747 -17267291.91462
  23373644.9154   -5059047.87345    987182.91061
 91  5  1 23 43 14.9970000  0  4G 2G 6G13G15
  20552672.9154   -2103908.57348    305838.47963
  19693125.5014  -11295070.10647  -8740032.51663
  19720253.0644  -24687300.41047 -17290302.09162
  23377144.9934   -5040661.10845   1001510.20961
 91  5  1 23 43 29.9970000  0  4G 2G 6G13G15
  20553847.5174   -2097732.78048    310650.78063
  19692543.8684  -11298132.95347  -8742419.14963
  19714662.5094  -24716684.09947 -17313198.43062
  23380667.3994   -5022146.78745   1015936.91861
 91  5  1 23 43 44.9970000  0  5G 2G 6G12G13G15
  20555031.4934   -2091509.02848    315500.44763
  19691985.3534  -11301065.51347  -8744704.26363
  24435425.6264         -0.69953
  19709097.1574  -24745925.92947 -17335984.22762
  23384214.4154   -5003509.38645   1030459.51761
 91  5  1 23 43 59.9970000  0  5G 2G 6G12G13G15
  20556225.3924   -2085235.77648    320388.68063
  19691451.8064  -11303866.11447  -8746886.55363
  24424302.4314     -58429.84043
  19703559.4234  -24775024.37747 -17358658.29762
  23387782.8454   -4984747.51245   1045079.09761
 91  5  1 23 44 14.9970000  0  5G 2G 6G12G13G15
  20557427.0014   -2078917.67448    325311.85863
  19690942.4934  -11306539.43747  -8748969.66562
  24413178.5404    -116877.09743
  19698046.8684  -24803984.10847 -17381224.26862
  23391370.6494   -4965866.02645   1059791.91861
 91  5  1 23 44 29.9970000  0  5G 2G 6G12G13G15
  20558640.0174   -2072550.12648    330273.56263
  19690459.5874  -11309080.62747  -8750949.80762
  24402048.7204    -175337.71542
  19692563.5174  -24832800.66146 -17403678.67262
  23394991.7044   -4946860.75145   1074601.19761
 91  5  1 23 44 44.9970000  0  5G 2G 6G12G13G15
  20559862.6494   -2066133.09548    335273.83463
  19690001.1574  -11311489.67747  -8752826.97562
  24390921.5484    -233811.55142
  19687107.5644  -24861473.78747 -17426021.31462
  23398634.1814   -4927731.75145   1089506.89561
 91  5  1 23 44 59.9970000  0  5G 2G 6G12G13G15
  20561091.7044   -2059668.27448    340311.34263
  19689569.2044  -11313768.04947  -8754602.32762
  24379787.9074    -292300.09142
  19681678.0244  -24890005.25546 -17448253.57762
  23402297.6344   -4908481.10645   1104507.34961
 91  5  1 23 45 14.9970000  0  5G 2G 6G12G13G15
  20562330.5794   -2053157.51148    345384.64863
  19689160.5244  -11315917.55847  -8756277.26863
  24368663.5714    -350805.02642
  19676276.0794  -24918396.94347 -17470376.91362
  23405981.4624   -4889110.73545   1119601.09661
 91  5  1 23 45 29.9970000  0  5G 2G 6G12G13G15
  20563579.5404   -2046594.90048    350498.35263
  19688775.2984  -11317932.41547  -8757847.28863
  24357533.0174    -409320.40743
  19670900.4074  -24946643.05147 -17492386.81662
  23409693.7284   -4869614.96545   1134792.54761
 91  5  1 23 45 44.9970000  0  5G 2G 6G12G13G15
  20564837.0094   -2039980.87248    355652.11763
  19688418.2434  -11319812.88947  -8759312.60363
  24346395.2674    -467846.56743        -0.37171
  19665554.5484  -24974744.24847 -17514283.80662
  23413423.8764   -4849995.04045   1150080.75761
 91  5  1 23 45 59.9970000  0  5G 2G 6G12G13G15
  20566105.8294   -2033318.00148    360843.94363
  19688083.6264  -11321561.29047  -8760675.00763
  24335260.3534    -526385.73044
  19660233.3374  -25002702.73347 -17536069.59762
  23417178.1104   -4830253.63445   1165463.63461
 91  5  1 23 46 14.9970000  0  5G 2G 6G12G13G15
  20567381.9934   -2026609.33448    366071.45463
  19687777.5484  -11323180.77947  -8761936.95763
  24324117.3684    -584940.82943
  19654940.4624  -25030521.56947 -17557746.57662
  23420964.1344   -4810393.66545   1180938.90961
 91  5  1 23 46 29.9970000  0  5G 2G 6G12G13G15
  20568668.4934   -2019849.39148    371338.93063
  19687496.2674  -11324665.66547  -8763094.00963
  24312969.5174    -643506.14543
  19649672.3294  -25058195.41547 -17579310.56762
  23424765.0794   -4790409.78345   1196510.72761
 91  5  1 23 46 44.9970000  0  5G 2G 6G12G13G15
  20569966.9854   -2013040.72048    376644.37563
  19687235.0484  -11326018.33647  -8764148.03462
  24301816.9154    -702084.09442
  19644433.0324  -25085726.87047 -17600763.60062
  23428592.5174   -4770305.15045   1212176.62961
 91  5  1 23 46 59.9970000  0  5G 2G 6G12G13G15
  20571270.7284   -2006180.89148    381989.69362
  19687005.0484  -11327236.47347  -8765097.23062
  24290667.5324    -760672.09742
  19639222.7904  -25113113.42347 -17622103.72562
  23432438.5324   -4750077.40745   1227938.45761
 91  5  1 23 47 14.9970000  0  5G 2G 6G12G13G15
  20572584.4704   -1999271.90048    387373.32062
  19686799.1104  -11328322.06147  -8765943.12862
  24279513.6734    -819272.08142
  19634039.6654  -25140357.35647 -17643332.72362
  23436313.9394   -4729729.07945   1243794.23761
 91  5  1 23 47 29.9970000  0  5G 2G 6G12G13G15
  20573908.4544   -1992311.77848    392796.77462
  19686618.6814  -11329272.89147  -8766684.03363
  24268356.4234    -877881.86642
  19628882.5244  -25167456.72047 -17664449.07462
  23440208.0954   -4709258.47445   1259745.30061
 91  5  1 23 47 44.9970000  0  5G 2G 6G12G13G15
  20575242.7984   -1985303.30148    398257.91663
  19686462.4544  -11330091.73747  -8767322.10263
  24257204.5954    -936504.00643
  19623751.6574  -25194414.03447 -17685454.73562
  23444121.4624   -4688668.65145   1275789.26561
 91  5  1 23 47 59.9970000  0  5G 2G 6G12G13G15
  20576586.8294   -1978244.61348    403758.18163
  19686334.6574  -11330776.65447  -8767855.80662
  24246053.2594    -995136.61043        -0.09071
  19618650.0484  -25221227.77847 -17706348.51962
  23448063.3144   -4667957.81645   1291927.54561
 91  5  1 23 48 14.9970000  0  5G 2G 6G12G13G15
  20577938.1814   -1971135.71448    409297.56663
  19686228.7824  -11331327.53947  -8768285.06563
  24234894.3844   -1053779.49643    -45695.78961
  19613573.4624  -25247897.85547 -17727130.35962
  23452028.8924   -4647126.24145   1308159.91961
 91  5  1 23 48 29.9970000  0  5G 2G 6G12G13G15
  20579298.2674   -1963979.64748    414873.69863
  19686148.8844  -11331747.32347  -8768612.16863
  24223729.5094   -1112435.38143    -91401.66461
  19608524.6184  -25274427.08847 -17747802.44562
  23456017.3844   -4626177.22645   1324483.78661
 91  5  1 23 48 44.9970000  0  5G 2G 6G12G13G15
  20580671.2984   -1956775.27648    420487.46863
  19686092.8294  -11332034.73047  -8768836.13163
  24212562.6034   -1171103.08643   -137116.72061
  19603502.5014  -25300814.68047 -17768364.16762
  23460025.7434   -4605110.05045   1340899.72561
 91  5  1 23 48 59.9970000  0  5G 2G 6G12G13G15
  20582051.8144   -1949521.69047    426139.60063
  19686060.9154  -11332188.99947
  24201395.1344   -1229781.54543   -182840.21361
  19598508.0564  -25327059.73147 -17788814.80762
  23464059.8454   -4583924.11545   1357408.18261
 91  5  1 23 49 14.9970000  0  5G 2G 6G12G13G15
  20583440.8764   -1942218.33547    431830.51063
  19686057.4154  -11332209.47647
  24190230.2434   -1288469.98543   -228571.42661
  19593542.7434  -25353161.57847 -17809153.86762
  23468111.7124   -4562618.95945   1374009.55761
 91  5  1 23 49 29.9970000  0  5G 2G 6G12G13G15
  20584840.3064   -1934867.89048    437558.11163
  19686081.3994  -11332098.53147
  24179062.0874   -1347170.88042   -274312.39261
  19588602.6264  -25379122.91647 -17829383.43862
  23472190.4934   -4541197.29945   1390701.71361
 91  5  1 23 49 44.9970000  0  5G 2G 6G12G13G15
  20586249.9394   -1927466.12648    443325.70863
  19686126.0484  -11331852.11147
  24167890.6034   -1405879.82843   -320059.61961
  19583691.2124  -25404939.64947 -17849500.32962
  23476288.3214   -4519655.52045   1407487.45561
 91  5  1 23 49 59.9970000  0  5G 2G 6G12G13G15
  20587667.0644   -1920012.71548    449133.54563
  19686197.8064  -11331469.69347
  24156721.9234   -1464596.42944   -365812.81561
  19578805.0484  -25430611.55947 -17869504.37062
  23480412.8294   -4497993.69845   1424366.75561
 91  5  1 23 50 14.9970000  0  5G 2G 6G12G13G15
  20589094.4934   -1912510.25048    454979.61062
  19686300.3604  -11330953.89947        -0.46472
  24145547.1814   -1523323.16444   -411573.88461
  19573946.5324  -25456141.37647 -17889397.68862
  23484553.2434   -4476214.62645   1441337.42961
 91  5  1 23 50 29.9970000  0  5G 2G 6G12G13G15
  20590534.0644   -1904954.74948    460867.00562
  19686420.5564  -11330300.74247       508.48462
  24134371.0954   -1582055.81844   -457339.57461
  19569115.7354  -25481525.11847 -17909177.18162
  23488722.7204   -4454314.79045   1458402.20661
 91  5  1 23 50 44.9970000  0  5G 2G 6G12G13G15
  20591979.0484   -1897348.04248    466794.30162
  19686572.4314  -11329511.84147      1123.20762
  24123192.3534   -1640795.91844   -503111.04361
  19564311.7674  -25506764.33747 -17928844.05862
  23492913.2904   -4432296.13745   1475559.55761
 91  5  1 23 50 59.9970000  0  5G 2G 6G12G13G15
  20593437.8534   -1889691.78648    472760.20762
  19686748.1574  -11328588.89847      1842.37762
  24112008.2594   -1699545.07343   -548889.52661
  19559533.6964  -25531860.99347 -17948399.85062
  23497126.9624   -4410160.61045   1492807.97561
 91  5  1 23 51 14.9970000  0  5G 2G 6G12G13G15
  20594905.6734   -1881987.54948    478763.49963
  19686947.3534  -11327533.27347      2664.93862
  24100823.7044   -1758304.42643   -594676.01761
  19554786.3844  -25556816.63147 -17967845.75462
  23501361.1814   -4387909.82145   1510146.18661
 91  5  1 23 51 29.9970000  0  5G 2G 6G12G13G15
  20596379.5094   -1874232.28948    484806.54263
  19687175.8684  -11326341.93847      3593.25662
  24089644.3534   -1817070.92543   -640468.02961
  19550063.6344  -25581628.49147 -17987179.62762
  23505615.0794   -4365541.00445   1527576.36961
 91  5  1 23 51 44.9970000  0  5G 2G 6G12G13G15
  20597861.9154   -1866426.37547    490889.05963
  19687430.9624  -11325015.35447      4626.96762
  24078455.0094   -1875844.77942   -686265.81361
  19545372.0174  -25606296.93547 -18006401.74462
  23509890.3604   -4343054.86545   1545097.99861
 91  5  1 23 51 59.9970000  0  5G 2G 6G12G13G15
  20599359.3604   -1858567.58648    497012.77263
  19687706.7354  -11323551.08747      5767.96062
  24067269.7044   -1934623.63342   -732067.41761
  19540702.8144  -25630819.65547 -18025510.30762
  23514191.5714   -4320449.40544   1562712.60161
 91  5  1 23 52 14.9970000  0  5G 2G 6G12G13G15
  20600864.4934   -1850661.35048    503173.46563
  19688008.5794  -11321954.56147      7012.00262
  24056083.1894   -1993412.70542   -777877.04861
  19536064.1964  -25655202.21947 -18044509.66162
  23518515.0404   -4297730.47645   1580415.63061
 91  5  1 23 52 29.9970000  0  5G 2G 6G12G13G15
  20602377.1184   -1842704.67047    509373.46163
  19688336.9464  -11320222.88047      8361.35262
  24044895.6034   -2052208.89642   -823692.18561
  19531452.0244  -25679441.67947 -18063397.50962
  23522865.7594   -4274895.49245   1598209.07561
 91  5  1 23 52 44.9970000  0  5G 2G 6G12G13G15
  20603902.1104   -1834695.92747    515614.01063
  19688694.1104  -11318354.21847      9817.43262
  24033701.9854   -2111010.32542   -869511.43861
  19526867.3764  -25703536.52047 -18082172.67462
  23527235.6184   -4251943.13245   1616093.94761
 91  5  1 23 52 59.9970000  0  5G 2G 6G12G13G15
  20605434.9544   -1826635.08947    521895.15863
  19689077.4074  -11316348.49147     11380.32663
  24022521.0484   -2169816.75543   -915334.54661
  19522309.7044  -25727486.56447 -18100835.00362
  23531625.0714   -4228873.50045   1634070.21761
 91  5  1 23 53 14.9970000  0  5G 2G 6G12G13G15
  20606977.7674   -1818524.73447    528214.89363
  19689487.0094  -11314208.13847     13048.12263
  24011330.1654   -2228630.58244   -961163.48361
  19517781.1424  -25751294.42547 -18119386.54762
  23536035.8604   -4205689.41945   1652135.66061
 91  5  1 23 53 29.9970000  0  5G 2G 6G12G13G15
  20608531.9934   -1810364.70948    534573.34463
  19689918.7354  -11311933.30947     14820.70663
  24000141.4624   -2287451.78645  -1006998.09161
  19513275.5794  -25774960.47347 -18137827.58262
  23540468.9624   -4182391.20845   1670290.05561
 91  5  1 23 53 44.9970000  0  5G 2G 6G12G13G15
  20610095.9544   -1802153.95348    540971.32363
  19690375.3534  -11309522.71347     16699.07862
  23988949.5174   -2346278.86945  -1052837.26961
  19508800.0324  -25798483.52847 -18156157.20562
  23544922.6894   -4158978.07045   1688534.01361
 91  5  1 23 53 59.9970000  0  5G 2G 6G12G13G15
  20611667.3214   -1793889.85747    547410.86463
  19690859.5404  -11306973.78747     18685.24262
  23977752.2124   -2405109.06345  -1098678.88961
  19504350.7904  -25821861.19747 -18174373.53861
  23549398.9464   -4135447.80945   1706869.24261
 91  5  1 23 54 14.9970000  0  5G 2G 6G12G13G15
  20613247.8764   -1785574.82347    553890.10062
  19691375.1494  -11304288.55947     20777.62362
  23966556.8764   -2463944.42344  -1144524.53261
  19499928.0874  -25845095.65247 -18192478.26862
  23553899.4784   -4111802.82745   1725293.86261
 91  5  1 23 54 29.9970000  0  5G 2G 6G12G13G15
  20614843.3534   -1777208.64548    560409.18462
  19691907.1104  -11301467.05547     22976.19562
  23955348.1184   -2522784.76043  -1190374.02061
  19495534.3534  -25868187.04547 -18210471.52262
  23558420.1494   -4088043.53845   1743807.54461
 91  5  1 23 54 44.9970000  0  5G 2G 6G12G13G15
  20616442.9234   -1768792.18148    566967.46262
  19692471.6814  -11298510.05747     25280.35162
  23944142.1964   -2581630.68742  -1236227.95561
  19491167.3604  -25891136.08247 -18228353.84561
  23562962.6964   -4064171.00745   1762409.47761
 91  5  1 23 54 59.9970000  0  5G 2G 6G12G13G15
  20618056.9154   -1760324.88848    573565.35262
  19693058.5404  -11295416.88747     27690.60863
  23932942.3604   -2640481.46842  -1282085.72161
  19486828.8144  -25913942.29747 -18246124.88361
  23567528.1964   -4040184.77345   1781099.98061
 91  5  1 23 55 14.9970000  0  5G 2G 6G12G13G15
  20619675.5564   -1751806.51148    580203.04662
  19693676.2984  -11292187.45047     30207.04463
  23921750.4704   -2699336.68743  -1327946.84561
  19482514.3684  -25936605.60847 -18263784.57061
  23572117.9934   -4016084.85545   1799879.08061
 91  5  1 23 55 29.9970000  0  5G 2G 6G12G13G15
  20621309.3144   -1743235.17048    586882.00863
  19694314.2204  -11288819.65247     32831.28763
  23910551.3454   -2758194.37043  -1373809.92761
  19478230.0714  -25959124.04647 -18281331.36661
  23576726.2824   -3991869.77745   1818747.90761
 91  5  1 23 55 44.9970000  0  5G 2G 6G12G13G15
  20622947.0714   -1734613.68847    593600.03363
  19694982.3924  -11285316.39947     35561.08263
  23899357.5404   -2817057.03744  -1419676.86361
  19473972.3454  -25981500.64647 -18298767.64661
  23581351.1574   -3967542.61545   1837704.07261
 91  5  1 23 55 59.9970000  0  5G 2G 6G12G13G15
  20624594.3064   -1725940.64547    600358.22763
  19695677.0244  -11281676.33147     38397.47863
  23888155.0014   -2875923.21144  -1465546.54061
  19469740.8764  -26003734.19947 -18316092.46861
  23585999.1574   -3943102.33845   1856748.38861
 91  5  1 23 56 14.9970000  0  5G 2G 6G12G13G15
  20626257.3214   -1717217.50647    607155.46363
  19696392.8454  -11277900.82347     41339.41763
  23876948.3144   -2934794.06744  -1511419.86361
  19465537.9934  -26025826.09847 -18333306.90561
  23590674.6424   -3918550.93445   1875879.30861
 91  5  1 23 56 29.9970000  0  5G 2G 6G12G13G15
  20627929.1184   -1708443.11347    613992.64563
  19697137.9544  -11273988.71947     44387.79563
  23865740.2674   -2993668.46944  -1557295.96761
  19461359.5794  -26047775.61947 -18350410.39561
  23595363.0324   -3893887.70245   1895097.37061
 91  5  1 23 56 44.9970000  0  5G 2G 6G12G13G15
  20629607.5484   -1699617.38247    620869.82463
  19697907.7904  -11269939.87747     47542.71263
  23854539.2044   -3052545.99044  -1603174.48961
  19457209.6344  -26069582.37447 -18367402.63962
  23600080.7044   -3869112.42145   1914402.74461
 91  5  1 23 56 59.9970000  0  5G 2G 6G12G13G15
  20631296.6654   -1690742.47747    627785.31163
  19698703.5564  -11265756.36147     50802.58163
  23843336.1654   -3111428.51044  -1649056.91361
  19453087.5954  -26091248.52947 -18384285.31661
  23604819.7514   -3844227.49045   1933793.53061
 91  5  1 23 57 14.9970000  0  5G 2G 6G12G13G15
  20632997.1104   -1681818.43648    634739.09763
  19699524.4074  -11261438.10947     54167.44163
  23832128.9784   -3170315.83544  -1694943.06261
  19448991.8144  -26112774.33647 -18401058.63361
  23609579.1494   -3819233.31045   1953269.45761
 91  5  1 23 57 29.9970000  0  5G 2G 6G12G13G15
  20634705.2984   -1672841.83548    641733.85562
  19700371.3684  -11256981.70847     57639.95463
  23820925.5094   -3229204.29544  -1740830.11761
  19444923.7744  -26134156.46847 -18417719.99261
  23614353.5324   -3794126.63445   1972833.04661
 91  5  1 23 57 44.9970000  0  5G 2G 6G12G13G15
  20636421.1424   -1663813.44047    648768.96662
  19701247.0094  -11252388.03547     61219.43863
  23809715.3924   -3288094.70744  -1786718.64561
  19440881.0794  -26155395.99547 -18434270.23662
  23619152.0404   -3768908.75945   1992483.28561
 91  5  1 23 57 59.9970000  0  5G 2G 6G12G13G15
  20638148.0794   -1654734.35647    655843.56962
  19702149.7434  -11247658.09547     64905.10563
  23798511.4154   -3346987.97543  -1832609.46861
  19436865.9394  -26176494.15147 -18450710.32361
  23623968.1494   -3743581.34644   2012218.88361
 91  5  1 23 58 14.9970000  0  5G 2G 6G12G13G15
  20639883.6734   -1645602.76747    662959.09262
  19703077.9234  -11242790.16947     68698.29962
  23787304.4544   -3405882.08943  -1878500.89761
  19432880.4074  -26197449.01647 -18467038.76161
  23628807.8844   -3718142.70044   2032041.16461
 91  5  1 23 58 29.9970000  0  5G 2G 6G12G13G15
  20641633.3294   -1636418.37147    670115.74862
  19704027.0794  -11237783.95947     72599.24562
  23776093.6894   -3464776.58843  -1924392.61861
  19428917.7824  -26218260.47247 -18483255.44761
  23633673.4154   -3692592.99145   2051950.00661
 91  5  1 23 58 44.9970000  0  5G 2G 6G12G13G15
  20643391.6494   -1627183.76047    677311.53662
  19705005.0644  -11232641.92447     76606.01662
  23764880.0324   -3523673.71642  -1970286.40161
  19424984.9934  -26238931.05547 -18499362.35861
  23638556.9314   -3666934.77245   2071943.33761
 91  5  1 23 58 59.9970000  0  5G 2G 6G12G13G15
  20645157.3764   -1617896.16548    684548.62362
  19706013.3454  -11227361.33547     80720.74562
  23753671.7514   -3582570.61942  -2016179.99461
  19421080.2824  -26259458.18247 -18515357.49562
  23643461.2514   -3641165.67545   2092023.08461
 91  5  1 23 59 14.9970000  0  5G 2G 6G12G13G15
  20646936.9784   -1608556.40147    691826.35163
  19707039.6494  -11221943.01447     84942.79362
  23742462.7674   -3641467.90842  -2062073.93961
  19417199.7744  -26279842.91348 -18531241.66262
  23648386.1654   -3615287.03845   2112188.19961
 91  5  1 23 59 29.9970000  0  5G 2G 6G12G13G15
  20648721.0094   -1599166.45147    699143.18063
  19708101.4854  -11216388.81647     89270.72062
  23731253.5324   -3700367.30143  -2107969.53161
  19413346.8064  -26300087.26847 -18547016.44962
  23653330.5714   -3589300.90145   2132437.09261
 91  5  1 23 59 44.9970000  0  5G 2G 6G12G13G15
  20650519.5404   -1589723.38047    706501.40463
  19709180.4234  -11210695.76147     93706.86462
  23720053.3764   -3759265.69244  -2153864.27561
  19409523.0404  -26320188.20448 -18562679.48662
  23658287.3374   -3563204.74944   2152771.73961
 91  5  1 23 59 59.9970000  0  5G 2G 6G12G13G15
  20652324.8454   -1580229.70947    713899.05463
  19710291.5714  -11204866.58047     98249.07362
  23708845.7594   -3818165.58244  -2199760.18761
  19405724.1104  -26340148.59947 -18578233.01661
  23663278.5244   -3537001.63945   2173189.73461
 91  5  2  0  0 14.9970000  0  5G 2G 6G12G13G15
  20654139.6734   -1570684.46747    721336.87863
  19711428.4074  -11198900.24747    102898.15462
  23697636.8844   -3877065.72645  -2245656.28361
  19401951.3064  -26359967.75147 -18593676.47561
  23668292.7594   -3510690.57345   2193691.83461
 91  5  2  0  0 29.9970000  0  5G 2G 6G12G13G15
  20655968.6964   -1561089.52247    728813.42463
  19712586.0014  -11192798.57747    107652.69862
  23686431.1104   -3935967.61445  -2291553.80361
  19398206.9544  -26379647.19047 -18609011.07462
  23673319.2124   -3484273.76845   2214276.30761
 91  5  2  0  0 44.9970000  0  5G 2G 6G12G13G15
  20657806.1264   -1551440.80447    736331.89162
  19713775.4854  -11186557.40047    112515.94662
  23675223.0324   -3994866.91844  -2337449.24961
  19394489.9934  -26399183.07747 -18624233.81562
  23678365.7434   -3457747.47145   2234946.06561
 91  5  2  0  0 59.9970000  0  5G 2G 6G12G13G15
  20659649.9464   -1541738.20747    743892.35562
  19714989.2594  -11180176.74447    117487.88362
  23664013.0094   -4053763.46144  -2383342.57061
  19390800.7124  -26418575.57747 -18639344.82262
  23683436.1424   -3431111.97745   2255700.92661
 91  5  2  0  1 14.9970000  0  5G 2G 6G12G13G15
  20661504.0404   -1531983.89047    751493.11362
  19716231.5874  -11173658.89647    122566.71662
  23652807.8534   -4112659.52444  -2429235.49561
  19387137.2284  -26437827.09147 -18654345.97162
  23688520.5954   -3404369.95545   2276538.80461
 91  5  2  0  1 29.9970000  0  5G 2G 6G12G13G15
  20663371.9314   -1522175.42947    759136.05262
  19717499.3604  -11167001.25947    127754.47062
  23641596.8924   -4171552.23544  -2475125.82061
  19383500.2204  -26456935.18847 -18669235.36262
  23693625.7434   -3377519.26144   2297461.37161
 91  5  2  0  1 44.9970000  0  5G 2G 6G12G13G15
  20665248.3534   -1512316.25847    766818.51362
  19718792.9394  -11160207.21547    133048.52363
  23630388.3764   -4230444.79743  -2521016.03561
  19379890.0954  -26475903.36347 -18684015.73062
  23698755.0094   -3350563.60844   2318465.74961
 91  5  2  0  1 59.9970000  0  5G 2G 6G12G13G15
  20667133.8924   -1502408.50348    774538.81662
  19720110.5484  -11153279.11047    138447.03863
  23619175.2124   -4289339.23243  -2566907.72461
  19376308.7674  -26494733.78947 -18698688.75162
  23703906.8144   -3323505.57944   2339549.91661
 91  5  2  0  2 14.9970000  0  5G 2G 6G12G13G15
  20669031.4074   -1492446.75248    782301.20362
  19721453.1184  -11146211.40347    143954.32663
  23607968.0954   -4348229.82143  -2612796.39861
  19372751.5404  -26513421.07647 -18713250.24262
  23709075.1184   -3296339.72344   2360718.08361
 91  5  2  0  2 29.9970000  0  5G 2G 6G12G13G15
  20670939.2354   -1482428.66248    790107.49362
  19722824.4074  -11139001.79547    149572.18163
  23596769.8604   -4407114.12143  -2658680.18161
  19369221.2674  -26531963.18147 -18727698.60162
  23714267.7204   -3269064.25145   2381971.66561
 91  5  2  0  2 44.9970000  0  5G 2G 6G12G13G15
  20672854.5874   -1472358.51548    797954.35362
  19724221.8144  -11131654.55747    155297.28163
  23585565.8604   -4465996.07644  -2704562.13261
  19365718.4154  -26550364.60447 -18742037.34462
  23719480.1814   -3241683.76445   2403307.06361
 91  5  2  0  2 59.9970000  0  5G 2G 6G12G13G15
  20674776.9234   -1462236.63548    805841.52262
  19725650.1574  -11124170.02947    161129.36462
  23574358.7434   -4524875.90344  -2750442.42261
  19362244.0874  -26568625.76747 -18756266.79061
  23724708.5794   -3214198.91445   2424723.79661
 91  5  2  0  3 14.9970000  0  5G 2G 6G12G13G15
  20676716.7124   -1452062.71347    813769.23463
  19727096.8604  -11116547.93447    167068.64462
  23563158.6184   -4583753.07544  -2796320.61161
  19358796.7514  -26586746.38947 -18770386.72261
  23729960.2124   -3186609.83045   2446221.70761
 91  5  2  0  3 29.9970000  0  5G 2G 6G12G13G15
  20678663.5714   -1441837.29247    821737.08363
  19728573.5014  -11108788.83747    173114.68262
  23551948.0954   -4642627.80343  -2842196.96061
  19355376.5874  -26604727.15447 -18784397.67762
  23735228.4624   -3158917.23045   2467800.29061
 91  5  2  0  3 44.9970000  0  5G 2G 6G12G13G15
  20680616.5094   -1431556.24847    829748.27162
  19730077.8294  -11100888.57347    179270.72262
  23540742.8294   -4701495.86243  -2888068.11261
  19351983.7904  -26622564.13047 -18798296.59161
  23740520.7514   -3131117.23445   2489462.58761
 91  5  2  0  3 59.9970000  0  5G 2G 6G12G13G15
  20682584.3994   -1421225.42347    837798.24862
  19731604.2904  -11092853.03947    185532.16462
  23529549.7744   -4760362.78043  -2933938.35461
  19348614.7514  -26640263.36247 -18812088.17961
  23745829.2514   -3103216.13745   2511203.68861
 91  5  2  0  4 14.9970000  0  5G 2G 6G12G13G15
  20684560.2904   -1410841.07447    845889.93262
  19733162.5644  -11084678.52247    191901.90262
  23518344.6344   -4819224.73043  -2979804.74661
  19345272.3994  -26657821.37747 -18825769.71662
  23751157.6344   -3075210.60945   2533026.11961
 91  5  2  0  4 29.9970000  0  5G 2G 6G12G13G15
  20686543.6894   -1400403.12647    854023.38462
  19734745.6264  -11076364.84447    198380.07862
  23507153.7434   -4878081.26844  -3025666.89461
  19341958.3374  -26675237.93548 -18839341.03662
  23756506.8844   -3047100.54645   2554930.05361
 91  5  2  0  4 44.9970000  0  5G 2G 6G12G13G15
  20688542.7674   -1389914.53547    862196.29662
  19736350.8454  -11067915.08747    204964.29262
  23495951.1424   -4936935.32944  -3071527.14361
  19338669.7354  -26692516.35148 -18852804.70961
  23761869.3844   -3018889.49645   2576912.65261
 91  5  2  0  4 59.9970000  0  5G 2G 6G12G13G15
  20690547.8994   -1379371.06347    870411.96862
  19737988.1264  -11059325.20647    211657.68762
  23484758.4784   -4995782.59645  -3117382.07861
  19335409.2204  -26709652.49948 -18866157.52961
  23767259.0874   -2990573.86245   2598976.74561
 91  5  2  0  5 14.9970000  0  5G 2G 6G12G13G15
  20692562.6574   -1368774.40447    878669.08962
  19739650.1574  -11050596.85547    218458.97962
  23473551.1814   -5054624.44044  -3163232.78961
  19332174.4464  -26726648.18748 -18879400.89961
  23772671.7124   -2962155.41145   2621120.95261
 91  5  2  0  5 29.9960000  0  5G 2G 6G12G13G15
  20694590.1524   -1358127.22547    886965.57662
  19741338.1454  -11041732.47747    225366.26662
  23462358.3874   -5113458.66544  -3209077.58561
  19328967.1684  -26743504.36248 -18892535.56461
  23778097.2774   -2933638.17545   2643342.08761
 91  5  2  0  5 44.9960000  0  5G 2G 6G12G13G15
  20696626.3564   -1347426.30947    895303.95062
  19743048.2934  -11032729.07847    232381.88862
  23451165.3714   -5172290.92845  -3254920.79261
  19325786.3954  -26760221.40547 -18905561.80961
  23783545.0824   -2905016.68245   2665644.45661
 91  5  2  0  5 59.9960000  0  5G 2G 6G12G13G15
  20698674.3324   -1336670.56247    903685.03962
  19744788.6764  -11023585.52547    239506.72662
  23439977.1524   -5231115.37345  -3300757.93861
  19322631.5984  -26776796.79347 -18918477.67761
  23789009.0984   -2876291.73645   2688027.49361
 91  5  2  0  6 14.9960000  0  5G 2G 6G12G13G15
  20700732.1214   -1325860.46647    912108.48762
  19746556.1294  -11014302.46747    246740.27162
  23428778.8324   -5289932.51145  -3346589.38861
  19319504.5124  -26793231.08747 -18931283.58961
  23794494.6524   -2847464.11645   2710490.52661
 91  5  2  0  6 29.9960000  0  5G 2G 6G12G13G15
  20702798.0824   -1315001.11347    920570.30763
  19748348.3874  -11004884.90747    254078.62062
  23417586.6914   -5348746.95944  -3392418.74161
  19316403.8954  -26809529.66047 -18943983.75662
  23800002.6064   -2818539.29545   2733029.36061
 91  5  2  0  6 44.9960000  0  5G 2G 6G12G13G15
  20704873.0594   -1304089.08347    929073.17862
  19750167.7704  -10995329.46647    261524.40762
  23406385.4494   -5407555.12543  -3438243.18761
  19313327.3324  -26825689.21047 -18956575.58961
  23805521.8794   -2789514.29445   2755646.23361
 91  5  2  0  6 59.9960000  0  5G 2G 6G12G13G15
  20706960.3324   -1293125.41947    937616.27663
  19752011.4414  -10985637.35047    269076.69562
  23395188.8714   -5466357.92542  -3484063.50061
  19310278.1454  -26841710.79847 -18969059.92061
  23811066.2854   -2760390.63445   2778339.96061
 91  5  2  0  7 14.9960000  0  5G 2G 6G12G13G15
  20709057.7774   -1282105.76247    946203.00463
  19753879.2234  -10975804.07647    276738.98562
  23384001.2854   -5525150.77843  -3529876.06061
  19307256.1764  -26857590.27047 -18981433.51162
  23816627.5904   -2731164.05045   2801113.90261
 91  5  2  0  7 29.9960000  0  5G 2G 6G12G13G15
  20711165.3014   -1271035.62047    954829.06063
  19755774.9574  -10965835.18347    284506.93662
  23372821.5904   -5583938.82744  -3575684.84061
  19304260.4884  -26873333.14247 -18993700.66261
  23822209.6844   -2701840.26845   2823963.57361
 91  5  2  0  7 44.9960000  0  5G 2G 6G12G13G15
  20713279.2934   -1259910.49047    963497.97963
  19757704.6604  -10955726.24047    292384.02662
  23361645.8324   -5642717.51445  -3621486.29761
  19301291.5744  -26888934.97647 -19005857.90961
  23827807.7774   -2672415.18545   2846892.16361
 91  5  2  0  7 59.9960000  0  5G 2G 6G12G13G15
  20715410.7074   -1248731.06247    972209.20763
  19759650.2314  -10945477.95447    300369.68662
  23350466.4264   -5701487.26945  -3667280.80761
  19298349.0204  -26904396.73447 -19017906.02161
  23833429.2314   -2642889.74145   2869898.94361
 91  5  2  0  8 14.9960000  0  5G 2G 6G12G13G15
  20717543.9414   -1237498.91247    980961.51363
  19761629.0124  -10935092.02247    308462.60162
  23339280.2464   -5760249.44745  -3713069.44061
  19295433.7774  -26919720.11247 -19029846.28562
  23839066.1684   -2613265.89545   2892982.43361
 91  5  2  0  8 29.9960000  0  5G 2G 6G12G13G15
  20719694.5204   -1226212.41347    989756.16663
  19763629.7704  -10924566.84147    316664.02862
  23328100.4574   -5819002.35945  -3758850.82761
  19292543.6994  -26934904.03247 -19041677.88362
  23844718.8014   -2583542.30245   2916143.62661
 91  5  2  0  8 44.9960000  0  5G 2G 6G12G13G15
  20721850.2234   -1214870.95047    998593.64763
  19765660.7624  -10913901.86247    324974.38362
  23316915.2624   -5877744.99044  -3804624.20461
  19289682.1064  -26949947.84947 -19053400.31462
  23850398.2464   -2553718.88344   2939382.62461
 91  5  2  0  8 59.9960000  0  5G 2G 6G12G13G15
  20724022.1214   -1203475.01347   1007473.57962
  19767715.3324  -10903097.70047    333393.19862
  23305737.9184   -5936477.67044  -3850389.85461
  19286846.3794  -26964852.24847 -19065014.10562
  23856091.4264   -2523796.50044   2962698.72261
 91  5  2  0  9 14.9960000  0  5G 2G 6G12G13G15
  20726198.8404   -1192027.42547   1016393.76862
  19769801.3714  -10892157.06547    341918.35862
  23294567.1994   -5995202.98744  -3896149.77361
  19284036.3874  -26979620.14248 -19076521.52962
  23861799.3014   -2493778.15543   2986089.62561
 91  5  2  0  9 29.9960000  0  5G 2G 6G12G13G15
  20728386.6214   -1180525.03647   1025356.65362
  19771910.3094  -10881076.93347    350552.21562
  23283400.6374   -6053917.59045  -3941901.30161
  19281252.4964  -26994248.52747 -19087920.24862
  23867529.7544   -2463661.25544   3009557.28961
 91  5  2  0  9 44.9960000  0  5G 2G 6G12G13G15
  20730587.9344   -1168968.40247   1034361.80962
  19774040.9734  -10869857.99847    359294.23062
  23272227.0514   -6112621.95845  -3987644.85861
  19278495.5594  -27008738.29748 -19099210.95862
  23873283.3634   -2433446.73044   3033101.06361
 91  5  2  0  9 59.9960000  0  5G 2G 6G12G13G15
  20732797.2704   -1157359.26047   1043407.87962
  19776199.9184  -10858501.91147    368143.11462
  23261059.1764   -6171317.32645  -4033381.36161
  19275763.8714  -27023091.15448 -19110394.98062
  23879049.5824   -2403136.40344   3056719.51661
 91  5  2  0 10 14.9960000  0  5G 2G 6G12G13G15
  20735016.1684   -1145695.07847   1052496.84362
  19778387.8714  -10847006.10547    377100.86862
  23249885.1604   -6230000.99745  -4079108.79661
  19273058.8164  -27037304.78048 -19121470.50862
  23884837.8404   -2372728.17745   3080414.21061
 91  5  2  0 10 29.9960000  0  5G 2G 6G12G13G15
  20737246.8404   -1133977.81947
  19780602.4814  -10835372.69947
  23238719.1374   -6288674.62844  -4124828.41961
  19270379.0044  -27051381.10248 -19132439.05162
  23890641.1374   -2342224.24845   3104183.47461
 91  5  2  0 10 44.9960000  0  5G 2G 6G12G13G15
  20739485.6684   -1122208.20647
  19782841.6844  -10823602.52246
  23227541.7624   -6347338.92942  -4170540.83461
  19267727.3794  -27065321.36548 -19143301.57762
  23896461.3564   -2311625.79344   3128026.41661
 91  5  2  0 10 59.9960000  0  5G 2G 6G12G13G15
  20741737.0124   -1110385.76647   1080010.53462
  19785106.6064  -10811695.12346    404615.84362
  23216378.3164   -6405993.12643  -4216245.33861
  19265101.6764  -27079125.08548 -19154057.69762
  23902306.7464   -2280932.67445   3151943.12361
 91  5  2  0 11 14.9960000  0  5G 2G 6G12G13G15
  20743996.2384   -1098507.03047   1089266.68362
  19787399.9654  -10799647.13447    414003.86562
  23205233.4494   -6464633.55644  -4261939.09661
  19262500.9344  -27092789.02648 -19164704.90561
  23908160.4494   -2250141.90245   3175935.91461
 91  5  2  0 11 29.9960000  0  5G 2G 6G12G13G15
  20746267.7774   -1086574.15047   1098565.01662
  19789721.3484  -10787460.72847    423499.74762
  23194076.0514   -6523262.10744  -4307623.61061
  19259925.9884  -27106315.37648 -19175244.90262
  23914046.2624   -2219256.05345   3200002.72661
 91  5  2  0 11 44.9960000  0  5G 2G 6G12G13G15
  20748547.0124   -1074587.00747   1107905.64362
  19792068.5514  -10775135.73947    433103.62162
  23182927.3244   -6581878.33245  -4353298.47561
  19257378.5124  -27119704.20348 -19185677.72962
  23919936.4184   -2188274.97544   3224143.78661
 91  5  2  0 11 59.9960000  0  5G 2G 6G12G13G15
  20750838.6374   -1062542.94547   1117290.61662
  19794439.4184  -10762669.87147    442817.27562
  23171776.9884   -6640479.51045  -4398961.63861
  19254856.7314  -27132953.30448 -19196001.68362
  23925851.3714   -2157196.75944   3248360.49461
 91  5  2  0 12 14.9960000  0  5G 2G 6G12G13G15
  20753142.3714   -1050448.11447   1126715.15162
  19796835.1294  -10750069.19647    452635.96962
  23160628.2234   -6699071.51345  -4444617.63961
  19252360.4104  -27146068.80448 -19206221.52962
  23931781.8094   -2126027.71643   3272648.03161
 91  5  2  0 12 29.9960000  0  5G 2G 6G12G13G15
  20755450.6374   -1038297.85647   1136182.86762
  19799263.9654  -10737328.96947    462563.41062
  23149482.8014   -6757649.29945  -4490262.57261
  19249890.5124  -27159046.14048 -19216333.71862
  23937728.9574   -2094763.30543   3297009.92661
 91  5  2  0 12 44.9960000  0  5G 2G 6G12G13G15
  20757775.0354   -1026095.05547   1145691.52462
  19801711.8094  -10724452.29947    472597.16262
  23138338.1294   -6816215.79445  -4535898.70861
  19247447.0044  -27171888.53748 -19226340.75762
  23943694.6914   -2063407.36943   3321443.08561
 91  5  2  0 12 59.9960000  0  5G 2G 6G12G13G15
  20760106.2624   -1013839.75647   1155241.08662
  19804189.3014  -10711439.42547    482737.04062
  23127194.6134   -6874770.81445  -4581525.89561
  19245030.4104  -27184596.52748 -19236243.06862
  23949680.3404   -2031960.12944   3345947.40161
 91  5  2  0 13 14.9960000  0  5G 2G 6G12G13G15
  20762451.1764   -1001528.31747   1164834.40262
  19806690.3714  -10698286.60547    492985.97062
  23116049.8164   -6933310.44245  -4627141.08361
  19242638.9024  -27197166.35448 -19246037.70962
  23955681.3714   -2000418.24744   3370525.43661
 91  5  2  0 13 29.9960000  0  5G 2G 6G12G13G15
  20764800.6294    -989163.49347   1174469.30662
  19809221.3404  -10684996.72547    503341.69962
  23104910.6374   -6991837.17545  -4672746.25361
  19240272.3794  -27209600.85348 -19255726.91762
  23961706.1294   -1968784.64445   3395174.96161
 91  5  2  0 13 44.9960000  0  5G 2G 6G12G13G15
  20767167.0514    -976742.18247   1184148.22262
  19811774.9494  -10671566.62647    513806.69662
  23093773.5594   -7050347.51945  -4718338.61361
  19237930.5124  -27221897.08848 -19265308.37862
  23967745.1134   -1937056.42045   3419898.24561
 91  5  2  0 13 59.9960000  0  5G 2G 6G12G13G15
  20769542.4264    -964264.30347   1193871.22462
  19814357.2774  -10657996.42747    524380.86562
  23082647.1064   -7108841.20045  -4763918.03761
  19235616.1524  -27234055.27348 -19274782.26962
  23973800.6994   -1905234.03444   3444694.89661
 91  5  2  0 14 14.9960000  0  5G 2G 6G12G13G15
  20771925.3094    -951733.71147   1203635.30262
  19816967.9654  -10644289.97747    535061.20862
  23071521.0044   -7167321.99345  -4809487.37761
  19233328.0274  -27246079.38447 -19284151.69062
  23979868.5354   -1873321.73844   3469561.59761
 91  5  2  0 14 29.9960000  0  5G 2G 6G12G13G15
  20774319.8404    -939148.70747   1213441.78662
  19819602.7464  -10630445.74947    545848.91062
  23060397.2074   -7225787.88945  -4855045.13561
  19231065.4654  -27257968.01547 -19293415.54362
  23985960.8874   -1841318.14843   3494499.42661
 91  5  2  0 14 44.9960000  0  5G 2G 6G12G13G15
  20776725.3164    -926510.20847   1223289.96262
  19822260.2074  -10616464.69647    556743.21862
  23049273.5124   -7284239.60845  -4900591.79761
  19228829.8484  -27269722.14248 -19302574.58562
  23992066.7314   -1809224.68743   3519507.32661
 91  5  2  0 14 59.9960000  0  5G 2G 6G12G13G15
  20779142.8404    -913815.09147   1233182.25062
  19824947.0044  -10602343.73847    567746.54262
  23038153.2934   -7342673.74045  -4946124.78161
  19226619.8794  -27281339.01948 -19311626.68162
  23998190.0204   -1777038.43642   3544587.50661
 91  5  2  0 15 14.9960000  0  5G 2G 6G12G13G15
  20781569.0434    -901064.49647   1243117.76862
  19827659.6374  -10588084.15347    578857.88862
  23027033.1764   -7401091.30445  -4991644.85561
  19224435.7154  -27292819.97448 -19320572.86662
  24004330.0204   -1744761.14643   3569738.60161
 91  5  2  0 15 29.9960000  0  5G 2G 6G12G13G15
  20784003.8794    -888260.23347   1253095.10462
  19830400.4264  -10573687.87647    590075.74262
  23015916.3714   -7459493.72845  -5037153.17461
  19222275.8404  -27304166.93448 -19329414.64162
  24010494.0434   -1712394.85843   3594959.07061
 91  5  2  0 15 44.9960000  0  5G 2G 6G12G13G15
  20786449.2624    -875401.16347   1263115.14562
  19833167.9024  -10559153.80147    601400.97863
  23004803.7154   -7517879.69845  -5082648.62261
  19220142.6134  -27315378.95248 -19338151.25962
  24016669.5594   -1679938.85044   3620249.32961
 91  5  2  0 15 59.9960000  0  5G 2G 6G12G13G15
  20788907.9964    -862484.35147   1273180.17262
  19835962.4024  -10544479.12247    612835.77263
  22993703.2464   -7576246.11945  -5128128.86361
  19218034.7544  -27326453.32348 -19346780.62162
  24022864.8714   -1647390.00744   3645612.01461
 91  5  2  0 16 14.9960000  0  5G 2G 6G12G13G15
  20791377.3874    -849511.91447   1283288.54762
  19838780.3014  -10529666.06947    624378.39063
  22982597.4184   -7634594.75645  -5173595.23661
  19215953.5664  -27337392.27648 -19355304.46462
  24029075.0594   -1614751.28344   3671044.69661
 91  5  2  0 16 29.9960000  0  5G 2G 6G12G13G15
  20793858.8014    -836488.31447   1293436.77762
  19841622.3164  -10514719.02047    636025.43163
  22971500.6764   -7692929.88045  -5219051.04661
  19213896.1914  -27348200.70548 -19363726.60562
  24035300.7934   -1582027.41843   3696543.74561
 91  5  2  0 16 44.9960000  0  5G 2G 6G12G13G15
  20796345.4494    -823408.14447   1303629.10462
  19844492.5354  -10499632.77847    647780.92762
  22960403.6064   -7751245.70145  -5264491.84161
  19211865.3244  -27358873.23048 -19372042.84862
  24041545.2934   -1549213.36743   3722113.12861
 91  5  2  0 16 59.9960000  0  5G 2G 6G12G13G15
  20798843.2384    -810271.81147   1313865.18362
  19847392.6684  -10484407.73847    659644.57562
  22949311.2074   -7809542.37645  -5309917.71361
  19209861.9494  -27369410.43148 -19380253.64262
  24047805.9184   -1516309.79443   3747752.27461
 91  5  2  0 17 14.9960000  0  5G 2G 6G12G13G15
  20801356.3244    -797083.32947   1324141.89962
  19850311.6524  -10469048.16947    671613.05562
  22938215.7934   -7867823.76145  -5355331.67661
  19207882.0984  -27379816.50048 -19388362.25862
  24054084.8404   -1483320.88044   3773457.93361
 91  5  2  0 17 29.9960000  0  5G 2G 6G12G13G15
  20803875.5594    -783836.62547   1334463.98762
  19853264.8484  -10453548.00647    683691.08862
  22927126.1994   -7926083.46645  -5400728.78461
  19205926.4814  -27390085.60348 -19396364.13962
  24060379.3244   -1450241.13544   3799234.38361
 91  5  2  0 17 44.9960000  0  5G 2G 6G12G13G15
  20806408.4574    -770534.26447   1344829.45562
  19856237.1374  -10437909.91147    695876.59562
  22916040.2624   -7984323.99945  -5446110.92661
  19203997.2854  -27400220.61448 -19404261.53462
  24066694.1214   -1417073.82044   3825079.04761
 91  5  2  0 17 59.9960000  0  4G 2G 6G12G13
  20808946.3634    -757174.83947   1355239.37962
  19859244.4414  -10422132.67847    708170.52462
  22904966.5354   -8042543.66545  -5491476.81961
  19202093.7934  -27410220.26747 -19412053.45362
 91  5  2  0 18 14.9960000  0  4G 2G 6G12G13
  20811503.3794    -743761.86647   1365691.02162
  19862269.7544  -10406220.01247    720569.99162
  22893886.2544   -8100745.82045  -5536829.05561
  19200215.7854  -27420088.46147 -19419742.93562
 91  5  2  0 18 29.9960000  0  4G 2G 6G12G13
  20814065.3164    -730292.85147   1376186.33063
  19865324.6844  -10390169.28147    733077.04762
  22882818.4184   -8158927.55045  -5582165.39261
  19198362.1994  -27429822.76047 -19427328.08162
 91  5  2  0 18 44.9960000  0  4G 2G 6G12G13
  20816636.8404    -716767.53647   1386725.50063
  19868407.0434  -10373980.34747    745691.78962
  22871753.0744   -8217088.45245  -5627485.50461
  19196535.1064  -27439423.11047 -19434808.85562
 91  5  2  0 18 59.9960000  0  4G 2G 6G12G13
  20819220.8634    -703187.20847   1397307.54263
  19871511.4574  -10357654.86847    758412.92962
  22860692.2154   -8275229.61445  -5672790.19861
  19194734.3634  -27448891.07347 -19442186.46362
 91  5  2  0 19 14.9960000  0  4G 2G 6G12G13
  20821817.6454    -689549.59547   1407934.22462
  19874643.5204  -10341190.48847    771242.29762
  22849633.5044   -8333348.48745  -5718077.54961
  19192959.1994  -27458224.56947 -19449459.30462
 91  5  2  0 19 29.9960000  0  4G 2G 6G12G13
  20824424.9264    -675857.90147   1418603.04662
  19877800.5824  -10324590.42647    784177.38762
  22838573.6524   -8391448.01945  -5763349.82361
  19191208.2854  -27467426.84647 -19456629.89362
 91  5  2  0 19 44.9960000  0  4G 2G 6G12G13
  20827042.2774    -662110.90247   1429314.97362
  19880986.6134  -10307853.73147    797218.94362
  22827518.1844   -8449526.78745  -5808605.93161
  19189482.8484  -27476496.91347 -19463697.46362
 91  5  2  0 19 59.9960000  0  4G 2G 6G12G13
  20829668.8164    -648307.76847   1440070.64562
  19884197.5984  -10290979.65847    810367.55462
  22816470.6604   -8507583.66545  -5853845.00661
  19187780.4344  -27485434.36347 -19470661.69062
 91  5  2  0 20 14.9960000  0  4G 2G 6G12G13
  20832305.3564    -634446.87247   1450871.32362
  19887434.4104  -10273966.44347    823624.58062
  22805432.0744   -8565616.65345  -5899065.43861
  19186105.4184  -27494237.62747 -19477521.36762
 91  5  2  0 20 29.9960000  0  4G 2G 6G12G13
  20834953.6994    -620529.84647   1461715.73662
  19890698.1844  -10256816.10047    836988.46562
  22794397.4964   -8623627.24845  -5944268.40661
  19184456.0204  -27502908.69647 -19484278.03162
 91  5  2  0 20 44.9960000  0  4G 2G 6G12G13
  20837610.0044    -606557.06547   1472603.60262
  19893992.4494  -10239529.01247    850458.90162
  22783361.4734   -8681615.50046  -5989453.95961
  19182830.6764  -27511448.12947 -19490932.12562
 91  5  2  0 20 59.9960000  0  4G 2G 6G12G13
  20840277.6914    -592529.93647   1483533.80362
  19897309.1134  -10222106.80247    864034.62662
  22772331.6214   -8739582.62545  -6034623.03261
  19181231.5984  -27519857.50247 -19497484.86862
 91  5  2  0 21 14.9960000  0  4G 2G 6G12G13
  20842961.3244    -578445.87447   1494508.37862
  19900648.5204  -10204546.86447    877717.66262
  22761300.6134   -8797525.63645  -6079773.34261
  19179655.0204  -27528134.58047 -19503934.52662
 91  5  2  0 21 29.9960000  0  4G 2G 6G12G13
  20845652.5594    -564305.17247   1505527.08862
  19904014.3714  -10186849.57847    891507.73262
  22750272.2774   -8855444.64445  -6124904.96261
  19178105.9344  -27536279.63848 -19510281.30962
 91  5  2  0 21 44.9960000  0  4G 2G 6G12G13
  20848353.2314    -550104.74047   1516592.33662
  19907410.8954  -10169011.90647    905407.19062
  22739255.6684   -8913336.24045  -6170015.27061
  19176582.0664  -27544289.66148 -19516522.86662
 91  5  2  0 21 59.9960000  0  4G 2G 6G12G13
  20851066.6294    -535851.96547   1527698.37562
  19910828.5664  -10151041.52647    919410.06062
  22728253.3164   -8971207.64745  -6215109.81261
  19175081.0594  -27552172.43748 -19522665.28062
 91  5  2  0 22 14.9960000  0  4G 2G 6G12G13
  20853788.4414    -521543.15347   1538848.07662
  19914275.1214  -10132935.07647    933518.95062
  22717246.0204   -9029055.08446  -6260185.62361
  19173607.0594  -27559924.52648 -19528705.85462
 91  5  2  0 22 29.9960000  0  4G 2G 6G12G13
  20856521.9734    -507175.55447   1550043.57562
  19917745.5824  -10114689.76447    947736.05062
  22706241.7704   -9086875.58846  -6305240.46461
  19172155.8954  -27567543.74448 -19534642.89562
 91  5  2  0 22 44.9960000  0  4G 2G 6G12G13
  20859267.5984    -492745.54947   1561287.68862
  19921246.8164  -10096301.92947    962064.19962
  22695247.6134   -9144665.02546  -6350271.08261
  19170731.9964  -27575026.34948 -19540473.48261
 91  5  2  0 22 59.9960000  0  4G 2G 6G12G13
  20862026.3634    -478261.54347   1572573.89862
  19924768.4964  -10077780.30647    976496.61962
  22684249.5354   -9202431.56745  -6395283.88261
  19169332.5744  -27582381.13948 -19546204.47262
 91  5  2  0 23 14.9960000  0  4G 2G 6G12G13
  20864789.9964    -463718.66047   1583905.99462
  19928320.6294  -10059120.11347    991037.00662
  22673260.0434   -9260170.10445  -6440274.86061
  19167958.4024  -27589603.39248 -19551832.19561
 91  5  2  0 23 29.9960000  0  4G 2G 6G12G13
  20867569.7854    -449119.89347   1595281.63462
  19931899.8484  -10040324.30747   1005683.06062
  22662274.1994   -9317883.44445  -6485246.22061
  19166609.4104  -27596696.34548 -19557359.15861
 91  5  2  0 23 44.9960000  0  4G 2G 6G12G13
  20870360.8164    -434463.76247   1606701.98262
  19935499.5434  -10021391.58547   1020435.80262
  22651298.9494   -9375569.72445  -6530196.47561
  19165285.4654  -27603658.73148 -19562784.38762
 91  5  2  0 23 59.9960000  0  4G 2G 6G12G13
  20873159.3634    -419752.33147   1618165.41462
  19939127.7774  -10002324.06447   1035293.58662
  22640323.9184   -9433230.78045  -6575127.08061
  19163985.0044  -27610492.83748 -19568109.65762
 91  5  2  0 24 14.9960000  0  4G 2G 6G12G13
  20875970.7704    -404984.64647   1629672.67161
  19942782.4344   -9983121.33947   1050256.72262
  22629360.8324   -9490865.53945  -6620037.19461
  19162708.9964  -27617198.09648 -19573334.52862
 91  5  2  0 24 29.9960000  0  4G 2G 6G12G13
  20878791.0514    -390159.91147   1641224.39862
  19946462.6914   -9963782.31847   1065326.06262
  22618396.5594   -9548472.67145  -6664925.78361
  19161457.2234  -27623773.63548 -19578458.31262
 91  5  2  0 24 44.9960000  0  4G 2G 6G12G13
  20881622.2774    -375278.25147   1652820.47762
  19950168.6524   -9944307.54847   1080501.18262
  22607438.2314   -9606052.39145  -6709793.02961
  19160229.6454  -27630220.04848 -19583481.48462
 91  5  2  0 24 59.9960000  0  4G 2G 6G12G13
  20884464.8794    -360340.14747   1664460.52562
  19953900.6064   -9924697.43747   1095781.74962
  22596490.3794   -9663604.69945  -6754638.88861
  19159027.0274  -27636537.97148 -19588404.53462
 91  5  2  0 25 14.9960000  0  4G 2G 6G12G13
  20887320.5354    -345342.22047   1676147.20162
  19957658.2934   -9904948.77847   1111170.28762
  22585546.2774   -9721125.89845  -6799460.49861
  19157849.3484  -27642724.13347 -19593224.90462
 91  5  2  0 25 29.9960000  0  4G 2G 6G12G13
  20890184.3794    -330289.74247   1687876.38462
  19961440.7384   -9885066.92347   1126662.61062
  22574606.1134   -9778621.08045  -6844261.84161
  19156696.4264  -27648784.13347 -19597946.97762
 91  5  2  0 25 44.9960000  0  4G 2G 6G12G13
  20893057.2544    -315179.53347   1699650.54662
  19965251.2934   -9865048.93447   1142261.00763
  22563672.3634   -9836086.72145  -6889040.16061
  19155568.7624  -27654715.00148 -19602568.40462
 91  5  2  0 25 59.9960000  0  4G 2G 6G12G13
  20895942.6994    -300013.34947   1711468.32462
  19969087.9654   -9844896.74447   1157963.98162
  22552739.2154   -9893524.43245  -6933796.72361
  19154464.2774  -27660518.86748 -19607090.87562
 91  5  2  0 26 14.9960000  0  4G 2G 6G12G13
  20898840.9344    -284792.55247   1723328.65662
  19972946.7074   -9824611.70347   1173770.48162
  22541811.1064   -9950935.17445  -6978532.27061
  19153384.2774  -27666197.35348 -19611515.66262
 91  5  2  0 26 29.9960000  0  4G 2G 6G12G13
  20901749.2384    -269514.22547   1735233.81662
  19976831.2074   -9804191.26047   1189682.48462
  22530894.9574  -10008316.04945  -7023244.54661
  19152327.4344  -27671747.90648 -19615840.75962
 91  5  2  0 26 44.9960000  0  4G 2G 6G12G13
  20904666.0904    -254176.43247   1747185.31362
  19980745.9024   -9783633.56347   1205701.44162
  22519982.3794  -10065664.71545  -7067931.71961
  19151296.0354  -27677168.66548 -19620064.71962
 91  5  2  0 26 59.9960000  0  4G 2G 6G12G13
  20907599.3404    -238777.02447   1759184.83462
  19984682.3634   -9762936.51347   1221828.99062
  22509071.5124  -10122978.70045  -7112591.90261
  19150290.3714  -27682457.68248 -19624186.02762
 91  5  2  0 27 14.9960000  0  4G 2G 6G12G13
  20910538.8484    -223317.07247   1771231.51662
  19988648.5984   -9742101.27647   1238064.20962
  22498172.4884  -10180258.76545  -7157225.62361
  19149307.5984  -27687616.14548 -19628205.60862
 91  5  2  0 27 29.9960000  0  4G 2G 6G12G13
  20913490.9734    -207804.55247   1783319.15962
  19992637.1764   -9721136.16547   1254400.62862
  22487279.4574  -10237512.70846  -7201839.00961
  19148348.7934  -27692652.56848 -19632130.08061
 91  5  2  0 27 44.9960000  0  4G 2G 6G12G13
  20916453.6064    -192236.10047   1795450.39262
  19996652.1064   -9700038.01247   1270840.72062
  22476388.1914  -10294736.90446  -7246429.19561
  19147414.3634  -27697563.91348 -19635957.09061
 91  5  2  0 27 59.9960000  0  4G 2G 6G12G13
  20919428.6524    -176609.03747   1807627.29562
  20000691.6374   -9678804.03947   1287386.64062
  22465507.5904  -10351928.32346  -7290993.83961
  19146504.1374  -27702347.50048 -19639684.55462
 91  5  2  0 28 14.9960000  0  4G 2G 6G12G13
  20922413.0984    -160927.16447   1819846.90462
  20004757.8404   -9657438.41547   1304035.15662
  22454630.7544  -10409090.59546  -7335535.77161
  19145616.9814  -27707007.36748 -19643315.60262
 91  5  2  0 28 29.9960000  0  4G 2G 6G12G13
  20925405.7774    -145188.96147   1832110.42062
  20008851.1994   -9635939.55747   1320787.48862
  22443757.3014  -10466221.61545  -7380053.37161
  19144753.8244  -27711542.30447 -19646849.30762
 91  5  2  0 28 44.9960000  0  4G 2G 6G12G13
  20928411.5744    -129390.23547   1844421.08662
  20012967.4964   -9614303.46947   1337646.75262
  22432890.2234  -10523317.19445  -7424543.36061
  19143915.3634  -27715948.50947 -19650282.70562
 91  5  2  0 28 59.9960000  0  4G 2G 6G12G13
  20931427.1764    -113533.26847   1856777.13762
  20017110.4964   -9592532.81947   1354610.86662
  22422033.7384  -10580379.44545  -7469007.40861
  19143100.8164  -27720228.36948 -19653617.64962
 91  5  2  0 29 14.9960000  0  4G 2G 6G12G13
  20934458.1994     -97616.20647   1869180.00762
  20021277.1764   -9570625.74047   1371681.29862
  22411182.9184  -10637406.21146  -7513443.77861
  19142310.0984  -27724380.44147 -19656853.01962
 91  5  2  0 29 29.9960000  0  4G 2G 6G12G13
  20937498.8794     -81642.54547   1881626.98462
  20025472.0824   -9548586.04547   1388855.04962
  22400336.7314  -10694400.64846  -7557854.93361
  19141543.8404  -27728408.42447 -19659991.68962
 91  5  2  0 29 44.9960000  0  4G 2G 6G12G13
  20940551.9264     -65610.24447   1894119.65762
  20029691.2314   -9526411.66947   1406133.75862
  22389501.3954  -10751360.22346  -7602238.91261
  19140802.2464  -27732310.48348 -19663032.24262
 91  5  2  0 29 59.9960000  0  4G 2G 6G12G13
  20943612.0124     -49519.91747   1906657.55462
  20033937.8244   -9504103.29247   1423516.87262
  22378665.4184  -10808285.44846  -7646596.13361
  19140086.0434  -27736087.38548 -19665975.26962
 91  5  2  0 30 14.9960000  0  4G 2G 6G12G13
  20946685.1994     -33372.18047   1919240.18262
  20038208.6214   -9481661.76347   1441003.74162
  22367838.7704  -10865176.65046  -7690926.85961
  19139390.9884  -27739739.69248 -19668821.21962
 91  5  2  0 30 29.9960000  0  4G 2G 6G12G13
  20949769.7704     -17164.67747   1931869.38862
  20042505.7384   -9459084.96447   1458596.01862
  22357015.9574  -10922031.03045  -7735228.87761
  19138718.5594  -27743265.61348 -19671568.68162
 91  5  2  0 30 44.9960000  0  4G 2G 6G12G13
  20952863.9104       -901.49047   1944541.97762
  20046827.1684   -9436377.20947   1476290.33262
  22346205.4964  -10978852.69245  -7779505.40961
  19138069.1134  -27746669.67548 -19674221.18962
 91  5  2  0 30 59.9960000  0  4G 2G 6G12G13
  20955969.7704      15420.18547   1957260.14462
  20051171.2704   -9413535.81347   1494088.78362
  22335395.4734  -11035638.47945  -7823754.00361
  19137447.1844  -27749949.15748 -19676776.62662
 91  5  2  0 31 14.9960000  0  4G 2G 6G12G13
  20959086.7854      31801.46447   1970024.75162
  20055542.9264   -9390559.66447   1511992.24462
  22324596.5744  -11092386.80145  -7867973.43161
  19136846.4654  -27753103.26248 -19679234.36062
 91  5  2  0 31 29.9960000  0  4G 2G 6G12G13
  20962215.9414      48242.14447   1982835.63962
  20059941.4494   -9367449.31947   1530000.26862
  22313805.3094  -11149097.72345  -7912163.68961
  19136269.4734  -27756132.49048 -19681594.79361
 91  5  2  0 31 44.9960000  0  4G 2G 6G12G13
  20965356.4574      64742.09947   1995692.71562
  20064365.1294   -9344205.16047   1548112.56362
  22303024.1294  -11205771.16946  -7956324.72461
  19135717.8564  -27759037.33748 -19683858.29762
 91  5  2  0 31 59.9960000  0  4G 2G 6G12G13
  20968508.7384      81300.17447   2008595.09062
  20068813.7624   -9320828.21047   1566328.33862
  22292244.6294  -11262407.75346  -8000457.04261
  19135186.4654  -27761818.95548 -19686025.79462
 91  5  2  0 32 14.9960000  0  4G 2G 6G12G13
  20971667.9964      97915.71347   2021542.24262
  20073287.9344   -9297319.41347   1584646.86062
  22281473.9574  -11319007.96345  -8044561.01661
  19134681.2234  -27764478.39748 -19688098.07661
 91  5  2  0 32 29.9960000  0  4G 2G 6G12G13
  20974843.4814     114593.36647   2034537.79562
  20077786.0744   -9273674.29847   1603071.60262
  22270706.7544  -11375566.92245  -8088632.86761
  19134200.4344  -27767011.23548 -19690071.71661
 91  5  2  0 32 44.9960000  0  4G 2G 6G12G13
  20978026.3164     131329.06447   2047578.58162
  20082312.9734   -9249897.13347   1621599.23562
  22259950.7234  -11432088.27645  -8132675.40961
  19133741.5824  -27769421.82748 -19691950.09962
 91  5  2  0 32 59.9960000  0  4G 2G 6G12G13
  20981223.6844     148121.89047   2060663.87362
  20086862.2074   -9225989.25247   1640228.73162
  22249206.4264  -11488572.91945  -8176689.32761
  19133305.4024  -27771711.45248 -19693734.22262
 91  5  2  0 33 14.9960000  0  4G 2G 6G12G13
  20984428.8324     164974.63347   2073795.84462
  20091436.3164   -9201947.58747   1658962.46562
  22238468.6844  -11545017.60446  -8220672.11261
  19132893.8244  -27773877.34948 -19695421.93062
 91  5  2  0 33 29.9960000  0  4G 2G 6G12G13
  20987647.9654     181884.40247   2086972.24862
  20096036.6524   -9177775.49746   1677797.82862
  22227733.7234  -11601424.85446  -8264625.73961
  19132503.6914  -27775922.76748 -19697015.76362
 91  5  2  0 33 44.9960000  0  4G 2G 6G12G13
  20990877.3714     198851.55447   2100193.38762
  20100662.9184   -9153472.72546   1696735.02962
  22217003.2624  -11657794.17146  -8308549.80461
  19132136.6134  -27777847.81348 -19698515.80662
 91  5  2  0 33 59.9960000  0  4G 2G 6G12G13
  20994117.8794     215881.90147   2113463.76162
  20105311.0204   -9129033.70546   1715778.39662
  22206286.5514  -11714119.50946  -8352439.61961
  19131794.6914  -27779646.73248 -19699917.56262
 91  5  2  0 34 14.9960000  0  4G 2G 6G12G13
  20997366.7934     232969.06446   2126778.39562
  20109986.6374   -9104465.00246   1734922.81362
  22195577.8874  -11770406.94346  -8396299.88061
  19131473.6214  -27781326.25948 -19701226.27862
 91  5  2  0 34 29.9960000  0  4G 2G 6G12G13
  21000630.4494     250114.18946   2140138.19362
  20114686.8164   -9079765.67946   1754169.01562
  22184875.9414  -11826655.13346  -8440129.57361
  19131176.1994  -27782885.67748 -19702441.40662
 91  5  2  0 34 44.9960000  0  4G 2G 6G12G13
  21003904.7774     267315.91847   2153542.09562
  20119411.0594   -9054937.20346   1773515.85362
  22174178.1844  -11882864.97646  -8483929.34761
  19130901.8954  -27784326.25848 -19703563.92262
 91  5  2  0 34 59.9960000  0  4G 2G 6G12G13
  21007188.1764     284572.95947   2166989.11362
  20124159.9104   -9029981.00946   1792962.20362
  22163488.4024  -11939037.39746  -8527699.98261
  19130650.3244  -27785649.54648 -19704595.04562
 91  5  2  0 35 14.9960000  0  4G 2G 6G12G13
  21010483.6914     301890.41947   2180483.21461
  20128933.2464   -9004892.27546   1812511.82662
  22152807.5824  -11995167.06946  -8571437.30961
  19130422.4104  -27786851.04148 -19705531.26562
 91  5  2  0 35 29.9960000  0  4G 2G 6G12G13
  21013791.4964     319267.59547   2194023.85861
  20133733.1064   -8979671.88946   1832164.03062
  22142130.1374  -12051254.57646  -8615141.78861
  19130214.4964  -27787931.53348 -19706373.20262
 91  5  2  0 35 44.9960000  0  4G 2G 6G12G13
  21017107.7074     336705.68447   2207611.96261
  20138559.1294   -8954318.90246   1851919.56662
  22131466.2544  -12107298.42146  -8658812.25861
  19130033.5434  -27788890.06448 -19707120.10162
 91  5  2  0 35 59.9960000  0  4G 2G 6G12G13
  21020437.0044     354203.73247   2221246.78561
  20143409.4494   -8928834.15446   1871777.76861
  22120812.4104  -12163299.10046  -8702449.08861
  19129875.1294  -27789727.85248 -19707772.91562
 91  5  2  0 36 14.9960000  0  4G 2G 6G12G13
  21023778.9964     371759.35047   2234926.45861
  20148284.0044   -8903220.41446   1891736.48961
  22110164.8564  -12219258.73346  -8746053.91661
  19129736.7774  -27790447.84248 -19708333.94262
 91  5  2  0 36 29.9960000  0  4G 2G 6G12G13
  21027132.7774     389373.28447   2248651.58161
  20153181.4494   -8877477.25046   1911796.07361
  22099523.7774  -12275176.20946  -8789625.89461
  19129622.6294  -27791049.18048 -19708802.52162
 91  5  2  0 36 44.9960000  0  4G 2G 6G12G13
  21030495.5434     407048.22347   2262424.23961
  20158106.8794   -8851602.09346   1931958.49561
  22088888.1914  -12331048.78246  -8833162.89461
  19129534.2624  -27791529.69148 -19709176.95262
 91  5  2  0 36 59.9960000  0  4G 2G 6G12G13
  21033869.3954     424784.78847   2276244.91062
  20163054.9264   -8825594.36046   1952224.22561
  22078267.2464  -12386875.30546  -8876664.01461
  19129466.6134  -27791888.99848 -19709456.93462
 91  5  2  0 37 14.9960000  0  4G 2G 6G12G13
  21037255.8794     442582.56247   2290113.28462
  20168026.5354   -8799454.63446   1972592.79461
  22067654.9414  -12442655.82946  -8920129.29761
  19129420.7234  -27792127.65348
 91  5  2  0 37 29.9960000  0  4G 2G 6G12G13
  21040655.8634     460440.39447   2304028.45961
  20173026.1374   -8773184.45846   1993063.01861
  22057045.8164  -12498391.30046  -8963559.45861
  19129398.1064  -27792247.01648
 91  5  2  0 37 44.9960000  0  4G 2G 6G12G13
  21044063.7154     478358.20047   2317990.36162
  20178048.2544   -8746783.95946   2013634.78761
  22046447.2624  -12554081.48946  -9006954.33861
  19129398.2154  -27792247.55548
 91  5  2  0 37 59.9960000  0  4G 2G 6G12G13
  21047482.9734     496332.68847   2331996.42362
  20183098.1374   -8720256.82446   2034305.23761
  22035853.8564  -12609729.46246  -9050316.33961
  19129420.4654  -27792133.08248
 91  5  2  0 38 14.9960000  0  4G 2G 6G12G13
  21050918.2314     514367.59847   2346049.55761
  20188170.8634   -8693599.43246   2055077.19961
  22025273.9734  -12665331.26546  -9093642.35561
  19129465.0354  -27791899.87448
 91  5  2  0 38 29.9960000  0  4G 2G 6G12G13
  21054359.9654     532464.13747   2360150.74361
  20193268.6524   -8666810.85046   2075951.38161
  22014707.7464  -12720885.31546  -9136931.17261
  19129533.5664  -27791547.15248
 91  5  2  0 38 44.9960000  0  4G 2G 6G12G13
  21057815.1844     550620.80047   2374298.77461
  20198393.3164   -8639892.80446   2096926.45361
  22004145.0274  -12776392.72246  -9180183.59461
  19129620.2544  -27791076.52648        -0.33272
 91  5  2  0 38 59.9960000  0  4G 2G 6G12G13
  21061281.0904     568841.45446   2388496.68261
  20203541.2234   -8612841.36746   2118005.46761
  21993593.6294  -12831849.49346  -9223396.57961
  19129732.9024  -27790484.47348       461.01162
 91  5  2  0 39 14.9960000  0  4G 2G 6G12G13
  21064761.3564     587119.71146   2402739.45761
  20208711.0204   -8585663.24846   2139183.18061
  21983049.5664  -12887261.61846  -9266574.77561
  19129868.1374  -27789777.74848      1011.71162
 91  5  2  0 39 29.9960000  0  4G 2G 6G12G13
  21068251.5514     605459.17546   2417029.91361
  20213905.5434   -8558355.22446   2160462.11661
  21972510.8014  -12942625.21346  -9309715.16061
  19130023.5904  -27788952.87348      1654.47662
 91  5  2  0 39 44.9960000  0  4G 2G 6G12G13
  21071751.6374     623858.79246   2431367.24462
  20219128.4264   -8530918.43146   2181841.37961
  21961982.8404  -12997940.99646  -9352818.31161
  19130203.1374  -27788011.25248      2388.21062
 91  5  2  0 39 59.9960000  0  4G 2G 6G12G13
  21075265.6064     642317.46946   2445750.59362
  20224372.4184   -8503354.13746   2203319.99561
  21951466.0354  -13053209.78046  -9395884.84561
  19130404.5514  -27786954.35448      3211.77662
 91  5  2  0 40 14.9960000  0  4G 2G 6G12G13
  21078790.5124     660840.94546   2460184.44262
  20229643.4734   -8475656.74646   2224902.32661
  21940954.6294  -13108425.41146  -9438909.96961
  19130628.2074  -27785776.55748      4129.54262
 91  5  2  0 40 29.9960000  0  4G 2G 6G12G13
  21082326.7854     679426.77446   2474666.87262
  20234940.1134   -8447828.99846   2246586.22961
  21930460.8714  -13163590.06046  -9481895.33161
  19130873.8094  -27784480.71448      5139.29562
 91  5  2  0 40 44.9960000  0  4G 2G 6G12G13
  21085873.6844     698070.43446   2489194.35262
  20240261.1844   -8419875.47046   2268368.16661
  21919971.1684  -13218707.87446  -9524844.22061
  19131142.5124  -27783071.55748      6237.33662
 91  5  2  0 40 59.9960000  0  4G 2G 6G12G13
  21089432.2234     716775.87246   2503769.97962
  20245607.0044   -8391792.61346   2290250.89061
  21909494.7544  -13273774.74646  -9567753.39761
  19131431.5904  -27781545.46148      7426.49862
 91  5  2  0 41 14.9960000  0  4G 2G 6G12G13
  21093003.9104     735539.10146   2518390.63462
  20250974.6214   -8363584.50546   2312231.22161
  21899026.1764  -13328794.20046  -9610625.63261
  19131742.5594  -27779906.57048      8703.55162
 91  5  2  0 41 29.9960000  0  4G 2G 6G12G13
  21096588.1294     754361.69347   2533057.55962
  20256366.4574   -8335249.80446   2334310.17961
  21888566.0274  -13383764.49746  -9653459.55161
  19132078.0664  -27778153.68448     10069.43762
 91  5  2  0 41 44.9960000  0  4G 2G 6G12G13
  21100181.1684     773246.30947   2547772.81761
  20261779.0354   -8306786.18446   2356489.58661
  21878111.1764  -13438682.75546  -9696252.95061
  19132432.0354  -27776284.73848     11525.76262
 91  5  2  0 41 59.9960000  0  4G 2G 6G12G13
  21103783.5904     792189.08947   2562533.40461
  20267219.5124   -8278197.44146   2378766.46761
  21867670.9964  -13493552.30746  -9739008.38461
  19132809.7774  -27774303.61748     13069.49162
 91  5  2  0 42 14.9960000  0  4G 2G 6G12G13
  21107401.9964     811194.22647   2577342.57361
  20272681.7464   -8249480.12546   2401143.54761
  21857240.7074  -13548368.76346  -9781722.45361
  19133206.5354  -27772206.29447     14703.77162
 91  5  2  0 42 29.9960000  0  4G 2G 6G12G13
  21111029.0984     830260.89647   2592199.69961
  20278171.3484   -8220635.01046   2423620.20861
  21846820.8954  -13603132.68746  -9824395.57661
  19133629.3954  -27769994.00248     16427.63362
 91  5  2  0 42 44.9960000  0  4G 2G 6G12G13
  21114669.6604     849388.88747   2607104.60161
  20283687.8164   -8191662.39746   2446196.21461
  21836408.0824  -13657843.97146  -9867027.67361
  19134073.2934  -27767667.08748     18240.81262
 91  5  2  0 42 59.9960000  0  4G 2G 6G12G13
  21118320.0274     868576.55847   2622056.01162
  20289224.4184   -8162564.28346   2468870.02561
  21826005.0664  -13712504.10846  -9909619.91461
  19134539.7154  -27765227.80548     20141.55262
 91  5  2  0 43 14.9960000  0  4G 2G 6G12G13
  21121983.1294     887827.40247   2637056.63261
  20294788.0044   -8133337.44446   2491644.13261
  21815615.6374  -13767109.06346  -9952169.15861
  19135024.6134  -27762672.73348     22132.51562
 91  5  2  0 43 29.9960000  0  4G 2G 6G12G13
  21125658.1524     907136.86647   2652102.93962
  20300372.4654   -8103986.47746   2514514.97561
  21805232.1524  -13821662.95146  -9994678.63361
  19135533.2464  -27760006.69848     24209.93662
 91  5  2  0 43 44.9960000  0  4G 2G 6G12G13
  21129344.7074     926507.05847   2667196.55262
  20305982.3014   -8074509.64246   2537483.90261
  21794861.4494  -13876163.62246 -10037146.65061
  19136060.5744  -27757228.13848     26375.04262
 91  5  2  0 43 59.9960000  0  4G 2G 6G12G13
  21133043.2934     945940.34347   2682339.33862
  20311614.8634   -8044904.86346   2560552.52461
  21784502.5744  -13930608.47046 -10079571.15761
  19136611.9024  -27754334.79748     28629.58762
 91  5  2  0 44 14.9960000  0  4G 2G 6G12G13
  21136751.6134     965432.46946   2697527.96961
  20317270.2154   -8015176.27246   2583717.60661
  21774152.6454  -13985001.15546 -10121954.99961
  19137182.6844  -27751331.02648     30970.17862
 91  5  2  0 44 29.9960000  0  4G 2G 6G12G13
  21140473.9184     984987.59246   2712765.69461
  20322953.5664   -7985320.24046   2606981.99061
  21763813.8714  -14039337.23846 -10164294.72061
  19137776.4264  -27748213.23048     33399.62462
 91  5  2  0 44 44.9960000  0  4G 2G 6G12G13
  21144207.0274    1004608.29646   2728054.52661
  20328659.6604   -7955334.28246   2630347.62261
  21753483.2774  -14093613.99446 -10206588.20661
  19138391.4574  -27744979.03048     35919.77662
 91  5  2  0 44 59.9960000  0  4G 2G 6G12G13
  21147952.7464    1024290.61146   2743391.35961
  20334390.0434   -7925222.77446   2653811.08661
  21743165.3564  -14147835.00646 -10248838.27861
  19139028.0274  -27741632.72848     38527.28162
 91  5  2  0 45 14.9960000  0  4G 2G 6G12G13
  21151709.1914    1044031.58246   2758773.90661
  20340144.1134   -7894988.87046   2677369.92461
  21732855.4494  -14202002.83046 -10291046.90361
  19139685.1604  -27738177.59248     41219.59162
 91  5  2  0 45 29.9960000  0  4G 2G 6G12G13
  21155475.6844    1063832.62846   2774203.25461
  20345919.8874   -7864630.91746   2701025.41861
  21722556.4734  -14256115.56246 -10333212.62161
  19140364.9494  -27734612.15048     43997.85562
 91  5  2  0 45 44.9960000  0  4G 2G 6G12G13
  21159256.8484    1083696.41246   2789681.48262
  20351721.1684   -7834146.77546   2724779.22861
  21712272.1214  -14310170.32646 -10375333.17161
  19141064.2464  -27730934.18448     46863.79962
 91  5  2  0 45 59.9960000  0  4G 2G 6G12G13
  21163047.1294    1103620.17046   2805206.43662
  20357547.3564   -7803539.64946   2748628.87961
  21702000.3714  -14364169.84346 -10417410.66461
  19141784.6214  -27727146.87948     49814.94162
 91  5  2  0 46 14.9960000  0  4G 2G 6G12G13
  21166853.1994    1123607.45246   2820780.89462
  20363395.6064   -7772805.97646   2772577.14461
  21691736.4574  -14418110.04446 -10459441.90861
  19142524.9964  -27723246.94748     52853.84662
 91  5  2  0 46 29.9960000  0  4G 2G 6G12G13
  21170665.6524    1143659.07547   2836405.49062
  20369269.1294   -7741945.24646   2796624.41661
  21681484.7234  -14471989.71346 -10501425.99461
  19143288.3714  -27719233.73748     55981.01762
 91  5  2  0 46 44.9960000  0  4G 2G 6G12G13
  21174496.3164    1163774.43647   2852079.76562
  20375164.1604   -7710958.29346   2820770.03861
  21671239.5124  -14525809.29946 -10543363.26061
  19144075.4884  -27715108.20148     59195.72062
 91  5  2  0 46 59.9960000  0  4G 2G 6G12G13
  21178336.7934    1183952.01947   2867802.52462
  20381082.2464   -7679846.84746   2845012.66561
  21661003.8564  -14579569.94346 -10585254.61361
  19144881.2704  -27710872.31448     62496.40762
 91  5  2  0 47 14.9960000  0  4G 2G 6G12G13
  21182186.9734    1204189.81247   2883572.20362
  20387026.9414   -7648613.28646   2869350.44961
  21650784.4654  -14633273.31446 -10627101.35461
  19145708.2234  -27706528.18048     65881.45062
 91  5  2  0 47 29.9960000  0  4G 2G 6G12G13
  21186050.1604    1224490.27847   2899390.71962
  20392996.6764   -7617255.17046   2893785.29561
  21640578.4264  -14686916.49346 -10668901.19661
  19146556.8404  -27702073.62848     69352.52162
 91  5  2  0 47 44.9960000  0  4G 2G 6G12G13
  21189925.1374    1244853.15646   2915257.86062
  20398987.7544   -7585772.86746   2918316.91561
  21630382.8874  -14740499.43746 -10710654.07161
  19147426.0664  -27697509.08348     72909.30262
 91  5  2  0 47 59.9960000  0  4G 2G 6G12G13
  21193810.7314    1265275.39246   2931171.24562
  20405000.6134   -7554170.05546   2942942.43561
  21620198.6914  -14794025.00446 -10752362.23861
  19148313.9494  -27692838.05948     76549.05462
 91  5  2  0 48 14.9960000  0  4G 2G 6G12G13
  21197708.1374    1285757.54146   2947131.31662
  20411035.6454   -7522446.17646   2967662.27761
  21610026.3634  -14847492.29446 -10794024.98061
  19149223.7704  -27688060.15648     80272.08462
 91  5  2  0 48 29.9960000  0  4G 2G 6G12G13
  21201617.1214    1306304.92246   2963142.21262
  20417097.1294   -7490596.35646   2992480.25661
  21599860.1374  -14900895.70546 -10835637.96261
  19150153.8634  -27683170.64748     84082.08462
 91  5  2  0 48 44.9960000  0  4G 2G 6G12G13
  21205540.3714    1326916.57746   2979203.19661
  20423183.8324   -7458621.70746   3017395.51561
  21589708.3404  -14954235.85046 -10877201.65861
  19151105.6914  -27678170.86248     87978.00662
 91  5  2  0 48 59.9960000  0  4G 2G 6G12G13
  21209475.7154    1347592.87846   2995314.55161
  20429293.2314   -7426522.32146   3042407.97561
  21579568.2314  -15007512.21146 -10918715.66061
  19152078.1214  -27673060.85648     91959.82662
 91  5  2  0 49 14.9950000  0  4G 2G 6G12G13
  21213421.5154    1368326.50046   3011470.57361
  20435421.7264   -7394306.13646   3067511.45061
  21569444.3354  -15060726.61346 -10960181.38561
  19153070.5624  -27667846.78148     96022.73262
 91  5  2  0 49 29.9950000  0  4G 2G 6G12G13
  21217378.6324    1389123.20046   3027675.75661
  20441574.5624   -7361966.13646   3092711.39761
  21559329.3514  -15113882.64646 -11001601.61161
  19154082.1484  -27662524.96448    100169.59662
 91  5  2  0 49 44.9950000  0  4G 2G 6G12G13
  21221347.4054    1409982.72746   3043929.89261
  20447750.5074   -7329503.66246   3118006.77561
  21549226.6634  -15166975.55946 -11042972.65661
  19155116.1554  -27657095.36148    104400.44962
 91  5  2  0 49 59.9950000  0  4G 2G 6G12G13
  21225330.2884    1430905.72146   3060233.49261
  20453951.7024   -7296918.21646   3143397.97961
  21539135.3354  -15220004.32446 -11084293.70161
  19156167.8434  -27651557.34148    108715.78062
 91  5  2  0 50 14.9950000  0  4G 2G 6G12G13
  21229323.6484    1451887.56846   3076582.96461
  20460173.9684   -7264214.87446   3168881.04461
  21529057.6014  -15272973.28246 -11125568.15861
  19157240.9834  -27645916.07948    113111.56262
 91  5  2  0 50 29.9950000  0  4G 2G 6G12G13
  21233325.4604    1472932.60146   3092981.64361
  20466421.5464   -7231389.68646   3194459.04061
  21518990.4134  -15325877.93046 -11166792.49761
  19158335.8124  -27640167.74148    117590.77962
 91  5  2  0 50 44.9950000  0  4G 2G 6G12G13
  21237344.5624    1494037.82646   3109427.22061
  20472690.2964   -7198445.51346   3220129.74961
  21508935.8124  -15378720.64146 -11207968.58761
  19159449.6634  -27634315.21148    122151.18662
 91  5  2  0 50 59.9950000  0  4G 2G 6G12G13
  21241370.0384    1515205.39446   3125921.39461
  20478984.7414   -7165380.58446   3245894.57961
  21498893.4294  -15431498.97346 -11249094.50161
  19160585.1404  -27628356.58648    126794.26262
 91  5  2  0 51 14.9950000  0  4G 2G 6G12G13
  21245410.1634    1536437.38546   3142465.75961
  20485299.3274   -7132193.12146   3271754.88661
  21488856.7104  -15484210.65246 -11290168.48661
  19161740.8824  -27622290.52248    131521.05862
 91  5  2  0 51 29.9950000  0  4G 2G 6G12G13
  21249464.7494    1557732.02046   3159058.94261
  20491636.1164   -7098885.11246   3297709.11661
  21478840.6404  -15536857.13446 -11331191.66861
  19162913.8514  -27616118.99348    136330.03162
 91  5  2  0 51 44.9950000  0  4G 2G 6G12G13
  21253528.0464    1579089.97846   3175701.46961
  20497995.5854   -7065456.06646   3323757.65861
  21468835.5624  -15589437.30046 -11372163.17261
  19164107.9134  -27609841.52848    141221.55162
 91  5  2  0 51 59.9950000  0  4G 2G 6G12G13
  21257604.2804    1600512.15846   3192394.01961
  20504383.4294   -7031905.45546   3349900.92862
  21458841.1484  -15641950.05346 -11413082.13861
  19165323.2024  -27603457.62148    146196.01662
 91  5  2  0 52 14.9950000  0  4G 2G 6G12G13
  21261691.5304    1621998.27746   3209136.39661
  20510791.3904   -6998233.71846   3376138.59862
  21448859.9914  -15694395.14546 -11453948.40461
  19166557.8274  -27596967.46348    151253.26762
 91  5  2  0 52 29.9950000  0  4G 2G 6G12G13
  21265793.0694    1643544.91047   3225925.93161
  20517222.6014   -6964444.64446   3402467.69662
  21438894.3584  -15746775.79046 -11494764.43961
  19167812.7264  -27590375.01948    156390.22262
 91  5  2  0 52 44.9950000  0  4G 2G 6G12G13
  21269906.5624    1665157.96747   3242767.22961
  20523673.8124   -6930532.49246   3428892.68562
  21428941.6714  -15799085.79146 -11535525.41061
  19169087.6944  -27583674.64248    161611.28362
 91  5  2  0 52 59.9950000  0  4G 2G 6G12G13
  21274030.9914    1686833.43847   3259657.15461
  20530150.8274   -6896501.47546   3455410.29862
  21419002.9444  -15851328.65646 -11576234.05961
  19170382.5544  -27576870.49648    166913.21062
 91  5  2  0 53 14.9950000  0  4G 2G 6G12G13
  21278168.2184    1708572.52047   3276596.65361
  20536649.4994   -6862350.72246   3482021.21362
  21409070.1944  -15903502.96346 -11616889.29061
  19171696.6874  -27569961.83448    172296.57262
 91  5  2  0 53 29.9950000  0  4G 2G 6G12G13
  21282317.2574    1730373.56447   3293584.42761
  20543170.4914   -6828082.04746   3508724.01862
  21399153.7804  -15955609.87846 -11657492.01661
  19173030.6084  -27562950.63448    177759.83662
 91  5  2  0 53 44.9950000  0  4G 2G 6G12G13
  21286477.7334    1752238.51847   3310622.01061
  20549713.3514   -6793693.90446   3535519.91162
  21389247.7734  -16007647.34046 -11698040.64561
  19174385.0934  -27555835.44348    183304.13362
 91  5  2  0 53 59.9950000  0  4G 2G 6G12G13
  21290652.4524    1774171.58147   3327712.66861
  20556279.8514   -6759182.30846   3562411.98862
  21379360.3744  -16059610.82446 -11738531.65161
  19175759.1714  -27548612.26148    188932.58062
 91  5  2  0 54 14.9950000  0  4G 2G 6G12G13
  21294836.2184    1796169.32946   3344853.73761
  20562871.3354   -6724550.89346   3589397.42662
  21369488.2654  -16111503.28046 -11778967.28961
  19177154.4374  -27541284.51448    194642.50862
 91  5  2  0 54 29.9950000  0  4G 2G 6G12G13
  21299035.8274    1818231.12546   3362044.69461
  20569485.4214   -6689800.62746   3616475.47762
  21359629.9294  -16163325.20347 -11819347.94961
  19178567.2734  -27533853.33348    200433.03562
 91  5  2  0 54 44.9950000  0  4G 2G 6G12G13
  21303244.7334    1840355.01046   3379284.03961
  20576120.6554   -6654933.88746   3643644.29662
  21349783.7574  -16215078.11047 -11859674.80761
  19179999.9994  -27526321.22048    206302.21262
 91  5  2  0 54 59.9950000  0  4G 2G 6G12G13
  21307468.4834    1862541.65246   3396572.28661
  20582779.1944   -6619949.90846   3670904.48262
  21339946.1164  -16266760.86047 -11899947.00561
  19181452.1084  -27518687.18348    212250.80362
 91  5  2  0 55 14.9950000  0  4G 2G 6G12G13
  21311700.5934    1884791.01146   3413909.40961
  20589456.2654   -6584849.13646   3698255.67162
  21330123.9684  -16318373.16046 -11940164.31961
  19182925.2414  -27510951.95148    218278.25062
 91  5  2  0 55 29.9950000  0  4G 2G 6G12G13
  21315948.2804    1907104.18146   3431296.24161
  20596158.3904   -6549630.68846   3725698.55061
  21320313.4834  -16369913.52046 -11980325.59061
  19184416.3124  -27503114.67248    224385.21362
 91  5  2  0 55 44.9950000  0  4G 2G 6G12G13
  21320206.5154    1929481.96646   3448733.42061
  20602883.5854   -6514294.23446   3753233.38762
  21310517.5774  -16421380.94846 -12020430.04761
  19185928.2884  -27495174.93148    230572.01562
 91  5  2  0 55 59.9950000  0  4G 2G 6G12G13
  21324476.1164    1951922.70246   3466219.63761
  20609629.0464   -6478841.45446   3780858.87062
  21300738.9054  -16472776.64046 -12060478.59961
  19187459.3124  -27487134.46948    236837.29862
 91  5  2  0 56 14.9950000  0  4G 2G 6G12G13
  21328758.5544    1974426.80346   3483755.23561
  20616397.8044   -6443272.18646   3808575.11562
  21290975.5854  -16524099.85947 -12100470.65761
  19189005.6554  -27478993.30248    243181.05662
 91  5  2  0 56 29.9950000  0  4G 2G 6G12G13
  21333054.5544    1996996.15046   3501341.68861
  20623188.6244   -6407584.86946   3836383.34162
  21281220.8434  -16575348.40646 -12140404.52361
  19190574.8584  -27470749.88648    249604.48462
 91  5  2  0 56 44.9950000  0  4G 2G 6G12G13
  21337360.8904    2019629.04946   3518977.65761
  20630002.4294   -6371781.56046   3864281.94262
  21271482.2104  -16626523.70746 -12180281.31961
  19192162.2414  -27462406.19748    256106.05162
 91  5  2  0 56 59.9950000  0  4G 2G 6G12G13
  21341680.9604    2042327.73646   3536664.90761
  20636838.8124   -6335860.13547   3892272.58362
  21261759.2654  -16677623.16346 -12220099.02661
  19193769.8744  -27453960.29548    262687.26262
 91  5  2  0 57 14.9950000  0  4G 2G 6G12G13
  21346012.8514    2065091.36546   3554402.76461
  20643695.4294   -6299821.81647   3920354.31662
  21252048.1794  -16728647.35646 -12259858.08861
  19195395.6874  -27445413.38348    269347.18062
 91  5  2  0 57 29.9950000  0  4G 2G 6G12G13
  21350356.3274    2087916.28446   3572188.36361
  20650574.1244   -6263670.60046   3948524.02462
  21242353.8744  -16779599.53946 -12299561.02461
  19197040.3044  -27436769.41448    276082.73362
 91  5  2  0 57 44.9950000  0  4G 2G 6G12G13
  21354709.7884    2110805.64146   3590024.18161
  20657476.5384   -6227403.44347   3976784.07362
  21232674.2964  -16830476.09646 -12339205.03761
  19198705.6324  -27428025.44348    282896.20362
 91  5  2  0 57 59.9950000  0  4G 2G 6G12G13
  21359078.5234    2133757.42046   3607908.63161
  20664401.4054   -6191022.77747   4005132.56862
  21223005.7024  -16881278.92746 -12378791.61361
  19200389.2804  -27419183.79948    289785.78662
 91  5  2  0 58 14.9950000  0  4G 2G 6G12G13
  21363457.6944    2156773.07346   3625842.86061
  20671345.6554   -6154527.12747   4033570.66062
  21213352.2414  -16932005.90446 -12418319.07461
  19202090.3904  -27410242.96648    296752.66062
 91  5  2  0 58 29.9950000  0  4G 2G 6G12G13
  21367851.4604    2179855.61046   3643829.20961
  20678313.3904   -6117913.89247   4062100.39262
  21203713.8514  -16982653.79846 -12457784.91461
  19203812.7264  -27401200.44048    303798.78162
 91  5  2  0 58 44.9950000  0  4G 2G 6G12G13
  21372255.2264    2203001.55446   3661864.96261
  20685301.3274   -6081186.85447   4090718.80062
  21194089.4374  -17033225.88046 -12497191.67961
  19205548.9214  -27392060.14548    310921.08162
 91  5  2  0 58 59.9950000  0  4G 2G 6G12G13
  21376672.8514    2226212.51946   3679951.38561
  20692311.1084   -6044344.67746   4119426.91662
  21184479.7334  -17083719.99446 -12536537.69261
  19207307.0854  -27382820.85947    318120.51462
 91  5  2  0 59 14.9950000  0  4G 2G 6G12G13
  21381102.4604    2249484.80446   3698085.59461
  20699343.5304   -6007391.40946   4148221.59462
  21174887.1084  -17134139.70946 -12575825.73461
  19209084.7104  -27373486.52148    325394.01862
 91  5  2  0 59 29.9950000  0  4G 2G 6G12G13
  21385542.7734    2272820.51046   3716269.22161
  20706396.3984   -5970325.08946   4177104.37162
  21165306.9524  -17184482.42546 -12615053.78261
  19210878.5854  -27364055.28347    332743.03262
 91  5  2  0 59 44.9950000  0  4G 2G 6G12G13
  21389995.7334    2296226.03946   3734507.25461
  20713474.1874   -5933139.67946   4206079.92962
  21155742.4524  -17234741.42047 -12654216.59861
  19212693.0934  -27354521.09347    340172.26462
 91  5  2  0 59 59.9950000  0  4G 2G 6G12G13
  21394462.1554    2319696.08646   3752795.55661
  20720570.6324   -5895840.88847   4235143.84962
  21146195.6084  -17284921.84047 -12693318.17361
  19214526.0234  -27344889.69247    347677.24662
 91  5  2  1  0 14.9950000  0  4G 2G 6G12G13
  21398939.8824    2343227.39446   3771131.57162
  20727688.9994   -5858432.05546   4264293.51462
  21136661.6874  -17335026.46647 -12732360.68861
  19216375.4684  -27335164.48647    355255.31562
 91  5  2  1  0 29.9950000  0  4G 2G 6G12G13
  21403429.5074    2366823.69746   3789518.25061
  20734830.1714   -5820909.76146   4293531.58362
  21127143.9764  -17385051.12847 -12771340.87961
  19218247.3984  -27325341.86548    362909.29662
 91  5  2  1  0 44.9950000  0  4G 2G 6G12G13
  21407932.9444    2390485.68646   3807956.09461
  20741992.7734   -5783273.53547   4322858.42863
  21117638.2734  -17434994.77147 -12810257.93961
  19220133.6484  -27315421.36548    370639.54562
 91  5  2  1  0 59.9950000  0  4G 2G 6G12G13
  21412446.4994    2414211.44546   3826443.65161
  20749176.5934   -5745525.65047   4352272.29362
  21108146.6404  -17484859.06846 -12849113.18161
  19222038.6084  -27305405.40548    378444.17662
 91  5  2  1  1 14.9950000  0  4G 2G 6G12G13
  21416975.2884    2438000.34946   3844980.41661
  20756380.7964   -5707666.94147   4381772.51862
  21098675.5464  -17534644.25347 -12887906.78461
  19223963.2264  -27295294.82348    386322.53462
 91  5  2  1  1 29.9950000  0  4G 2G 6G12G13
  21421513.8354    2461854.91846   3863568.35861
  20763605.9914   -5669695.18446   4411360.83362
  21089215.0234  -17584347.51246 -12926636.54661
  19225904.8194  -27285087.28948    394276.44262
 91  5  2  1  1 44.9950000  0  4G 2G 6G12G13
  21426065.7334    2485776.28346   3882208.34261
  20770852.0154   -5631609.43646   4441037.97462
  21079769.9684  -17633967.26647 -12965301.24561
  19227866.6794  -27274782.01848    402306.51062
 91  5  2  1  1 59.9950000  0  4G 2G 6G12G13
  21430630.0934    2509760.29646   3900897.13661
  20778121.5154   -5593414.16846   4470800.45162
  21070345.0544  -17683507.28047 -13003903.81461
  19229844.2414  -27264383.40248    410409.31062
 91  5  2  1  2 14.9950000  0  4G 2G 6G12G13
  21435205.5234    2533807.12646   3919634.89061
  20785411.8904   -5555109.71846   4500648.00662
  21060933.4054  -17732967.25947 -13042444.02261
  19231841.9374  -27253891.78848    418584.57662
 91  5  2  1  2 29.9950000  0  4G 2G 6G12G13
  21439795.6874    2557920.12646   3938424.18461
  20792722.0934   -5516692.92946   4530583.09662
  21051539.2334  -17782343.50947 -13080918.97761
  19233858.2184  -27243304.37148    426834.49262
 91  5  2  1  2 44.9950000  0  4G 2G 6G12G13
  21444396.3274    2582097.09746   3957263.33961
  20800053.8354   -5478166.18346   4560603.86062
  21042160.8354  -17831637.61147 -13119329.92861
  19235891.5854  -27232623.30348    435157.39362
 91  5  2  1  2 59.9950000  0  4G 2G 6G12G13
  21449007.8584    2606337.39246   3976151.83961
  20807404.3984   -5439530.37046   4590709.61262
  21032788.2104  -17880849.83547 -13157677.06361
  19237942.7964  -27221849.58848    443552.48762
 91  5  2  1  3 14.9950000  0  4G 2G 6G12G13
  21453633.8274    2630641.06746   3995089.70961
  20814778.0694   -5400785.66446   4620900.21062
  21023444.6944  -17929979.85947 -13195960.16261
  19240007.5624  -27210983.54848    452019.52062
 91  5  2  1  3 29.9950000  0  4G 2G 6G12G13
  21458271.6714    2655006.74046   4014075.90161
  20822171.2024   -5361933.69846   4651174.38862
  21014109.3434  -17979028.53047 -13234179.86661
  19242091.4524  -27200026.52748    460557.44162
 91  5  2  1  3 44.9950000  0  4G 2G 6G12G13
  21462921.2264    2679442.72546   4033116.88761
  20829585.4604   -5322966.55546   4681538.33062
  21004794.4524  -18027987.30347 -13272329.51361
  19244196.9604  -27188970.70348    469172.36662
 91  5  2  1  3 59.9950000  0  4G 2G 6G12G13
  21467581.3434    2703942.37246   4052207.47661
  20837021.7734   -5283891.17746   4711986.60361
  20995492.1874  -18076862.40847 -13310413.95861
  19246317.1404  -27177822.97948    477858.89762
 91  5  2  1  4 14.9950000  0  4G 2G 6G12G13
  21472255.2804    2728504.90746   4071347.05661
  20844479.1324   -5244708.54446   4742518.44861
  20986206.8984  -18125654.46547 -13348433.69561
  19248455.6944  -27166584.50348    486616.15062
 91  5  2  1  4 29.9950000  0  4G 2G 6G12G13
  21476941.8984    2753130.98246   4090536.14861
  20851956.1634   -5205418.34846   4773134.10361
  20976939.6404  -18174362.41147 -13386387.88961
  19250610.9604  -27155254.82448    495444.46162
 91  5  2  1  4 44.9950000  0  4G 2G 6G12G13
  21481642.0774    2777825.83746   4109778.83961
  20859453.9524   -5166015.78846   4803837.31861
  20967684.1874  -18222980.66747 -13424272.20561
  19252785.1404  -27143829.02648    504347.67262
 91  5  2  1  4 59.9950000  0  4G 2G 6G12G13
  21486354.9294    2802587.20946   4129073.35061
  20866972.7804   -5126503.28646   4834626.18461
  20958449.4524  -18271511.10247 -13462088.09461
  19254977.7964  -27132309.75948    513323.71162
 91  5  2  1  5 14.9950000  0  4G 2G 6G12G13
  21491078.0384    2827412.06046   4148417.33061
  20874511.6874   -5086883.91046   4865498.33961
  20949236.1714  -18319956.34247 -13499837.60461
  19257186.6944  -27120700.29748    522370.03462
 91  5  2  1  5 29.9950000  0  4G 2G 6G12G13
  21495817.5384    2852307.68446   4167816.45261
  20882074.2334   -5047151.06946   4896458.90861
  20940033.2264  -18368308.98947 -13537514.95561
  19259415.5934  -27108993.81748    531491.95762
 91  5  2  1  5 44.9950000  0  4G 2G 6G12G13
  21500565.1324    2877265.24546   4187263.83461
  20889654.8354   -5007313.61846   4927500.98861
  20930845.5304  -18416577.31347 -13575126.58861
  19261660.6484  -27097199.29548    540682.47962
 91  5  2  1  5 59.9950000  0  4G 2G 6G12G13
  21505325.8744    2902289.00546   4206762.80361
  20897255.4444   -4967367.55546   4958627.71361
  20921679.9294  -18464756.54347 -13612668.79961
  19263922.2264  -27085312.55248    549944.86362
 91  5  2  1  6 14.9950000  0  4G 2G 6G12G13
  21510099.8274    2927377.63146   4226312.30861
  20904877.2104   -4927314.54846   4989837.77361
  20912526.9684  -18512847.75847 -13650142.43761
  19266202.2414  -27073335.17848    559277.86762
 91  5  2  1  6 29.9950000  0  4G 2G 6G12G13
  21514885.4994    2952528.14546   4245910.06061
  20912518.9834   -4887157.93446   5021128.56361
  20903390.6794  -18560853.66347 -13687549.58961
  19268497.0624  -27061270.61048    568678.80662
 91  5  2  1  6 44.9950000  0  4G 2G 6G12G13
  21519686.1404    2977747.90246   4265561.76161
  20920180.8124   -4846890.68246   5052505.56961
  20894271.1794  -18608766.48747 -13724884.21961
  19270812.6084  -27049112.05748    578152.98762
 91  5  2  1  6 59.9950000  0  4G 2G 6G12G13
  21524497.9834    3003035.38546   4285266.23661
  20927864.8274   -4806514.42646   5083967.51061
  20885170.0234  -18656587.33947 -13762147.18961
  19273142.3274  -27036861.00548    587699.24562
 91  5  2  1  7 14.9950000  0  4G 2G 6G12G13
  21529322.1944    3028384.67546   4305018.85461
  20935568.5154   -4766035.57446   5115509.40261
  20876088.7264  -18704321.85747 -13799342.88161
  19275489.6874  -27024523.74248    597312.67862
 91  5  2  1  7 29.9950000  0  4G 2G 6G12G13
  21534159.9134    3053800.08546   4324822.99461
  20943291.6874   -4725449.96746   5147134.47861
  20867023.8354  -18751965.23247 -13836467.55361
  19277854.3904  -27012096.05548    606996.56762
 91  5  2  1  7 44.9950000  0  4G 2G 6G12G13
  21539005.7414    3079278.19746   4344675.98961
  20951032.5854   -4684761.22846   5178839.91561
  20857974.9374  -18799520.61347 -13873523.64861
  19280236.7024  -26999581.81948    616747.90462
 91  5  2  1  7 59.9950000  0  4G 2G 6G12G13
  21543867.2734    3104824.30246   4364581.95761
  20958794.1014   -4643964.45646   5210629.51361
  20848942.3124  -18846982.32047 -13910506.74461
  19282637.2734  -26986976.08248    626570.53762
 91  5  2  1  8 14.9950000  0  4G 2G 6G12G13
  21548739.5694    3130432.45646   4384536.28561
  20966578.3274   -4603065.82646   5242498.50261
  20839928.3584  -18894355.92547 -13947421.19861
  19285051.2334  -26974285.08848    636459.60962
 91  5  2  1  8 29.9950000  0  4G 2G 6G12G13
  21553625.8824    3156107.84946   4404543.00861
  20974382.4834   -4562060.50846   5274450.61661
  20830931.1794  -18941635.97547 -13984262.75561
  19287483.4604  -26961503.92748    646418.93962
 91  5  2  1  8 44.9950000  0  4G 2G 6G12G13
  21558525.1244    3181848.31446   4424600.43161
  20982205.7654   -4520950.85746   5306484.04761
  20821949.9834  -18988824.08047 -14021032.68261
  19289930.2574  -26948634.87448    656446.76062
 91  5  2  1  8 59.9950000  0  4G 2G 6G12G13
  21563437.1014    3207656.93346   4444710.95361
  20990049.6244   -4479734.29546   5338600.76761
  20812990.9214  -19035917.06647 -14057728.48761
  19292397.4684  -26935675.53448    666544.93862
 91  5  2  1  9 14.9950000  0  4G 2G 6G12G13
  21568360.5154    3233531.69646   4464873.02961
  20997911.7574   -4438412.88746   5370799.19661
  20804047.4374  -19082916.40447 -14094351.30561
  19294882.4134  -26922627.95548    676711.86162
 91  5  2  1  9 29.9950000  0  4G 2G 6G12G13
  21573298.4294    3259470.63546   4485085.13561
  21005795.2104   -4396988.99546   5403077.45461
  20795120.0774  -19129823.64347 -14130902.34961
  19297380.7494  -26909494.19648    686945.94662
 91  5  2  1  9 44.9950000  0  4G 2G 6G12G13
  21578248.2494    3285476.29346   4505349.22161
  21013698.7494   -4355460.31546   5435437.38661
  20786212.0234  -19176636.02847 -14167379.48861
  19299896.2024  -26896272.08148    697248.88062
 91  5  2  1  9 59.9950000  0  4G 2G 6G12G13
  21583206.2804    3311545.28646   4525662.65861
  21021621.7334   -4313830.63646   5467876.01161
  20777319.7334  -19223356.63447 -14203785.11661
  19302428.2654  -26882965.44648    707617.66962
 91  5  2  1 10 14.9950000  0  4G 2G 6G12G13
  21588178.8434    3337680.04846   4546027.34161
  21029563.2804   -4272097.64546   5500395.13661
  20768447.0624  -19269982.41447 -14240116.87061
  19304978.0854  -26869571.90948    718054.17562
 91  5  2  1 10 29.9950000  0  4G 2G 6G12G13
  21593164.6084    3363879.17746   4566442.16761
  21037524.2884   -4230263.29846   5532993.22961
  20759595.2654  -19316514.72547 -14276375.79061
  19307542.0774  -26856093.45448    728556.85362
 91  5  2  1 10 44.9950000  0  4G 2G 6G12G13
  21598163.2734    3390146.09446   4586909.81161
  21045503.1404   -4188324.32846   5565672.85361
  20750759.1874  -19362949.67647 -14312558.83162
  19310124.3274  -26842527.00748    739128.09462
 91  5  2  1 10 59.9950000  0  4G 2G 6G12G13
  21603174.4294    3416477.29146   4607427.54661
  21053504.7964   -4146284.42646   5598431.12561
  20741941.1554  -19409290.28747 -14348668.35762
  19312721.1164  -26828876.36448    749764.94262
 91  5  2  1 11 14.9950000  0  4G 2G 6G12G13
  21608197.9914    3442873.73646   4627996.12961
  21061523.3514   -4104143.01946   5631268.50061
  20733141.4604  -19455535.28047 -14384703.38561
  19315335.5074  -26815140.48448    760468.20262
 91  5  2  1 11 29.9950000  0  4G 2G 6G12G13
  21613234.4054    3469337.36446   4648617.05961
  21069564.4214   -4061898.45246   5664186.26361
  20724358.6014  -19501682.37447 -14420662.11861
  19317965.9994  -26801317.81248    771239.09162
 91  5  2  1 11 44.9950000  0  4G 2G 6G12G13
  21618282.7024    3495868.97246   4669290.98661
  21077620.1084   -4019550.30146   5697184.73761
  20715595.6944  -19547730.47447 -14456543.71561
  19320612.7104  -26787408.06648    782077.84162
 91  5  2  1 11 59.9950000  0  4G 2G 6G12G13
  21623346.1714    3522463.68146   4690014.07061
  21085695.9524   -3977103.69246   5730259.92561
  20706849.9444  -19593684.07147 -14492351.66561
  19323274.1014  -26773416.16248    792980.60262
 91  5  2  1 12 14.9950000  0  4G 2G 6G12G13
  21628416.8434    3549122.94746   4710787.47461
  21093793.1874   -3934557.38546   5763412.80561
  20698122.2734  -19639541.32047 -14528084.54961
  19325954.2804  -26759340.66348    803948.50062
 91  5  2  1 12 29.9950000  0  4G 2G 6G12G13
  21633502.7734    3575848.87346   4731612.81661
  21101908.1164   -3891909.62346   5796644.72961
  20689413.3124  -19685299.68247 -14563740.39161
  19328649.1084  -26745180.21848    814982.59262
 91  5  2  1 12 44.9950000  0  4G 2G 6G12G13
  21638599.4914    3602639.05246   4752488.22161
  21110042.2884   -3849162.96146   5829953.72561
  20680725.0464  -19730961.07447 -14599320.67461
  19331360.9914  -26730937.35848    826080.90362
 91  5  2  1 12 59.9950000  0  4G 2G 6G12G13
  21643711.4374    3629494.03346   4773414.11761
  21118196.3584   -3806317.40246   5863339.78361
  20672055.5544  -19776524.80347 -14634824.86261
  19334086.4134  -26716611.87448    837243.59562
 91  5  2  1 13 14.9950000  0  4G 2G 6G12G13
  21648833.2964    3656412.74746   4794389.66361
  21126367.4054   -3763374.21146   5896801.92661
  20663405.9604  -19821991.60747 -14670253.50162
  19336825.6244  -26702205.06848    848469.66062
 91  5  2  1 13 29.9950000  0  4G 2G 6G12G13
  21653968.2654    3683398.29246   4815417.29661
  21134560.1404   -3720330.48646   5930342.40261
  20654774.1484  -19867357.92347 -14705603.83561
  19339584.7804  -26687714.05248    859761.33862
 91  5  2  1 13 44.9950000  0  4G 2G 6G12G13
  21659116.0234    3710447.88246   4836494.81361
  21142769.0774   -3677189.49046   5963958.66561
  20646160.2024  -19912626.24647 -14740877.80461
  19342356.7334  -26673142.13348    871116.06262
 91  5  2  1 13 59.9950000  0  4G 2G 6G12G13
  21664274.7104    3737560.53746   4857621.48661
  21150996.8274   -3633952.30746   5997649.88161
  20637563.3664  -19957797.02447 -14776075.76861
  19345144.2494  -26658490.32848    882533.02862
 91  5  2  1 14 14.9950000  0  4G 2G 6G12G13
  21669447.0234    3764739.23746   4878799.63361
  21159243.9374   -3590616.35346   6031418.05461
  20628983.3824  -20002866.86047 -14811195.08761
  19347946.4994  -26643755.99048    894014.30962
 91  5  2  1 14 29.9950000  0  4G 2G 6G12G13
  21674632.8274    3791981.02146   4900026.93261
  21167509.7964   -3547184.86046   6065260.67361
  20620424.3584  -20047838.49447 -14846237.88762
  19350766.8584  -26628942.19948    905557.50162
 91  5  2  1 14 44.9950000  0  4G 2G 6G12G13
  21679829.0694    3819290.78246   4921307.18461
  21175793.6324   -3503653.24746   6099181.31061
  20611888.4524  -20092706.68047 -14881200.08362
  19353601.7414  -26614044.50848    917166.07662
 91  5  2  1 14 59.9950000  0  4G 2G 6G12G13
  21685038.0304    3846666.97446   4942639.20661
  21184095.8824   -3460023.41146   6133178.49061
  20603369.6874  -20137472.60247 -14916082.58062
  19356453.0624  -26599064.76948    928838.58262
 91  5  2  1 15 14.9950000  0  4G 2G 6G12G13
  21690262.6634    3874112.47146   4964025.23761
  21192417.6324   -3416292.70746   6167254.25761
  20594871.8194  -20182133.00547 -14950882.85762
  19359318.9294  -26584000.32148    940577.09362
 91  5  2  1 15 29.9950000  0  4G 2G 6G12G13
  21695496.0074    3901621.21046   4985460.55461
  21200758.1554   -3372467.42046   6201403.73561
  20586392.9604  -20226693.47047 -14985605.26262
  19362200.6554  -26568857.38748    952376.76862
 91  5  2  1 15 44.9950000  0  4G 2G 6G12G13
  21700743.3984    3929194.94246   5006946.48961
  21209117.1944   -3328546.25946   6235627.91861
  20577932.9764  -20271152.04647 -15020248.28062
  19365097.7334  -26553634.49948    964238.74462
 91  5  2  1 15 59.9950000  0  4G 2G 6G12G13
  21706003.0774    3956833.37846   5028482.86361
  21217491.8744   -3284529.85746   6269926.31761
  20569488.9134  -20315508.70947 -15054811.88961
  19368007.6944  -26538332.38448    976162.44762
 91  5  2  1 16 14.9950000  0  4G 2G 6G12G13
  21711271.3044    3984536.02946   5050069.26661
  21225884.5154   -3240418.85846   6304298.43061
  20561069.9914  -20359763.40347 -15089296.02861
  19370934.7494  -26522951.86048    988147.24962
 91  5  2  1 16 29.9950000  0  4G 2G 6G12G13
  21716557.1084    4012304.87346   5071707.24561
  21234297.9444   -3196211.49546   6338745.62061
  20552668.4684  -20403913.82647 -15123698.91661
  19373877.9684  -26507491.27148   1000194.43662
 91  5  2  1 16 44.9950000  0  4G 2G 6G12G13
  21721856.7024    4040142.18546   5093398.57761
  21242730.0384   -3151905.96846   6373269.31361
  20544287.1634  -20447957.30247 -15158018.46361
  19376835.6244  -26491948.62348   1012305.56862
 91  5  2  1 16 59.9950000  0  4G 2G 6G12G13
  21727165.1874    4068043.53946   5115139.82661
  21251178.0154   -3107506.75746   6407866.01161
  20535926.4834  -20491897.77747 -15192257.74762
  19379809.6944  -26476328.34948   1024477.18462
 91  5  2  1 17 14.9950000  0  4G 2G 6G12G13
  21732486.8584    4096009.93046   5136931.76661
  21259645.5624   -3063013.41746   6442536.05661
  20527584.4374  -20535734.08947 -15226415.88962
  19382796.3354  -26460629.98148   1036709.64862
 91  5  2  1 17 29.9950000  0  4G 2G 6G12G13
  21737820.3514    4124039.81546   5158773.17561
  21268131.3904   -3018427.62446   6477278.15461
  20519258.7024  -20579467.25847 -15260493.66262
  19385798.9054  -26444855.03648   1049001.78962
 91  5  2  1 17 44.9950000  0  4G 2G 6G12G13
  21743166.4914    4152134.77946   5180665.28761
  21276631.2494   -2973748.21246   6512093.20461
  20510956.6554  -20623095.39747 -15294489.60762
  19388815.0234  -26429002.33348   1061354.51962
 91  5  2  1 17 59.9950000  0  4G 2G 6G12G13
  21748527.4214    4180296.35146   5202609.31661
  21285150.1164   -2928973.93945   6546982.15161
  20502676.3194  -20666616.63947 -15328402.24462
  19391846.1794  -26413070.93748   1073768.56462
 91  5  2  1 18 14.9950000  0  4G 2G 6G12G13
  21753897.5694    4208520.28946   5224601.94161
  21293690.3124   -2884109.29645   6581941.50261
  20494415.9834  -20710034.81047 -15362234.54662
  19394891.9374  -26397064.86548   1086240.80062
 91  5  2  1 18 29.9950000  0  4G 2G 6G12G13
  21759281.6714    4236810.30546   5246646.01261
  21302245.1244   -2839150.81045   6616973.97761
  20486176.6554  -20753345.72448 -15395983.26862
  19397952.0234  -26380980.89148   1098773.73562
 91  5  2  1 18 44.9950000  0  4G 2G 6G12G13
  21764676.9054    4265164.52945   5268740.14061
  21310819.0304   -2794100.77546   6652077.79361
  20477954.9054  -20796551.03947 -15429649.69662
  19401027.6014  -26364821.20148   1111365.67362
 91  5  2  1 18 59.9950000  0  4G 2G 6G12G13
  21770082.9604    4293583.03045   5290884.33961
  21319407.9994   -2748959.39446   6687252.79161
  20469751.5694  -20839650.32247 -15463233.51562
  19404117.4054  -26348585.94348   1124016.49762
 91  5  2  1 19 14.9950000  0  4G 2G 6G12G13
  21775505.6944    4322066.99046   5313079.55161
  21328015.7104   -2703725.79946   6722499.65461
  20461570.9994  -20882641.94547 -15496733.45262
  19407220.0464  -26332274.23048   1136726.90162
 91  5  2  1 19 29.9950000  0  4G 2G 6G12G13
  21780938.2024    4350618.85646   5335327.69161
  21336642.1634   -2658397.80546   6757820.07761
  20453409.1794  -20925523.05747 -15530147.29362
  19410339.2184  -26315883.74548   1149498.68162
 91  5  2  1 19 44.9950000  0  4G 2G 6G12G13
  21786383.5544    4379236.15946   5357626.81061
  21345284.8514   -2612978.28146   6793211.81761
  20445269.1324  -20968295.83747 -15563476.71362
  19413474.7494  -26299417.35248   1162329.61162
 91  5  2  1 19 59.9950000  0  4G 2G 6G12G13
  21791842.4374    4407918.44046   5379976.57561
  21353944.4604   -2567467.76346   6828674.46761
  20437151.2334  -21010960.28247 -15596721.69862
  19416621.8354  -26282875.64948   1175219.22562
 91  5  2  1 20 14.9950000  0  4G 2G 6G12G13
  21797314.3434    4436666.80546   5402377.82661
  21362622.0464   -2521865.58746   6864208.53161
  20429053.1164  -21053515.04147 -15629881.21262
  19419784.5304  -26266257.97148   1188168.04062
 91  5  2  1 20 29.9950000  0  4G 2G 6G12G13
  21802796.0234    4465478.79046   5424828.64061
  21371315.9294   -2476174.70246   6899811.71661
  20420975.7574  -21095962.23847 -15662956.91562
  19422959.6404  -26249567.07248   1201173.91762
 91  5  2  1 20 44.9950000  0  4G 2G 6G12G13
  21808289.3744    4494352.75346   5447327.74961
  21380028.6714   -2430396.74746   6935482.73861
  20412917.6084  -21138303.02347 -15695949.71362
  19426150.3274  -26232804.67648   1214235.50362
 91  5  2  1 20 59.9950000  0  4G 2G 6G12G13
  21813797.3044    4523295.70445   5469880.61461
  21388758.9214   -2384525.12146   6971226.75761
  20404879.8984  -21180529.93647 -15728853.78462
  19429355.6164  -26215963.90048   1227358.16962
 91  5  2  1 21 14.9950000  0  4G 2G 6G12G13
  21819316.2184    4552303.51245   5492484.01261
  21397503.2414   -2338564.16846   7007040.38861
  20396866.1554  -21222646.63547 -15761671.97362
  19432572.6014  -26199049.24048   1240538.40262
 91  5  2  1 21 29.9950000  0  4G 2G 6G12G13
  21824849.4684    4581373.89245   5515136.17261
  21406266.8044   -2292516.61446   7042921.49561
  20388873.8514  -21264655.25847 -15794405.94262
  19435805.8664  -26182063.46548   1253774.04062
 91  5  2  1 21 44.9950000  0  4G 2G 6G12G13
  21830392.7414    4610508.11545   5537838.07961
  21415046.0624   -2246381.26546   7078871.00661
  20380900.3194  -21306554.06547 -15827054.33362
  19439051.3434  -26165005.54648   1267065.90162
 91  5  2  1 21 59.9950000  0  4G 2G 6G12G13
  21835949.4054    4639705.85145   5560589.47161
  21423842.3124   -2200158.99846   7114888.26261
  20372946.7264  -21348343.12047 -15859617.20962
  19442310.3354  -26147875.86448   1280413.67862
 91  5  2  1 22 14.9950000  0  4G 2G 6G12G13
  21841519.4134    4668970.44445   5583392.97161
  21432654.8984   -2153846.55146   7150975.79761
  20365014.7184  -21390018.55547 -15892091.55162
  19445583.9834  -26130671.28648   1293819.81862
 91  5  2  1 22 29.9950000  0  4G 2G 6G12G13
  21847100.1944    4698300.50745   5606247.48861
  21441483.3434   -2107445.87945   7187132.06761
  20357107.5304  -21431581.58847 -15924478.30462
  19448873.8354  -26113393.65848   1307282.88262
 91  5  2  1 22 44.9950000  0  4G 2G 6G12G13
  21852694.8044    4727691.76145   5629149.68261
  21450329.7024   -2060961.45945   7223353.59261
  20349221.5854  -21473036.15547 -15956780.53562
  19452174.8664  -26096047.49348   1320799.34862
 91  5  2  1 22 59.9950000  0  4G 2G 6G12G13
  21858299.8274    4757151.05545   5652104.88361
  21459193.2734   -2014386.62545   7259645.55861
  20341356.2804  -21514374.80748 -15988992.43862
  19455489.3744  -26078626.16648   1334374.38862
 91  5  2  1 23 14.9950000  0  4G 2G 6G12G13
  21863915.6714    4786678.33045   5675113.06461
  21468072.9764   -1967721.96545   7296007.52861
  20333509.3664  -21555597.52747 -16021114.00462
  19458818.8434  -26061130.02448   1348007.71362
 91  5  2  1 23 29.9950000  0  4G 2G 6G12G13
  21869547.5154    4816268.50345   5698170.25661
  21476971.6404   -1920972.82846   7332435.32561
  20325686.5074  -21596708.97747 -16053148.86962
  19462161.1794  -26043564.50148   1361695.12162
 91  5  2  1 23 44.9950000  0  4G 2G 6G12G13
  21875191.4444    4845925.88645   5721279.84461
  21485885.0304   -1874135.19846   7368932.07761
  20317883.9214  -21637704.29447 -16085093.26062
  19465519.3824  -26025925.25948   1375439.97762
 91  5  2  1 23 59.9950000  0  4G 2G 6G12G13
  21880846.2494    4875644.78945   5744437.35461
  21494811.9834   -1827215.03346   7405493.14261
  20310105.5234  -21678588.83747 -16116951.33562
  19468887.6554  -26008218.36948   1389237.53062
 91  5  2  1 24 14.9950000  0  4G 2G 6G12G13
  21886512.6794    4905426.26645   5767643.62961
  21503756.0934   -1780211.35145   7442119.27961
  20302346.3514  -21719361.03947 -16148721.86362
  19472269.3664  -25990443.06648   1403088.38962
 91  5  2  1 24 29.9950000  0  4G 2G 6G12G13
  21892192.8744    4935272.26645   5790900.17361
  21512716.1244   -1733122.74045   7478811.59661
  20294609.7964  -21760018.81347 -16180403.21562
  19475665.2574  -25972597.68048   1416993.85662
 91  5  2  1 24 44.9950000  0  4G 2G 6G12G13
  21897886.0934    4965185.88745   5814209.39561
  21521692.4834   -1685946.29745   7515572.35261
  20286894.7884  -21800558.59247 -16211992.62162
  19479076.8274  -25954679.32148   1430956.19262
 91  5  2  1 24 59.9950000  0  4G 2G 6G12G13
  21903590.8514    4995164.61445   5837569.35161
  21530687.4374   -1638685.01645   7552399.21261
  20279202.1164  -21840982.58047 -16243491.80762
  19482497.0234  -25936690.74648   1444973.24462
 91  5  2  1 25 14.9950000  0  4G 2G 6G12G13
  21909307.8354    5025208.30246   5860979.91961
  21539696.6714   -1591339.18645   7589291.96461
  20271530.3434  -21881290.42447 -16274900.50262
  19485934.1944  -25918632.27948   1459044.75562
 91  5  2  1 25 29.9950000  0  4G 2G 6G12G13
  21915038.2104    5055313.74246   5884438.61761
  21548721.9604   -1543912.17845   7626247.96361
  20263881.8194  -21921484.91747 -16306220.86662
  19489384.0154  -25900507.38948   1473168.02562
 91  5  2  1 25 44.9950000  0  4G 2G 6G12G13
  21920779.6244    5085483.32946   5907947.30261
  21557762.2334   -1496402.14545   7663268.64461
  20256257.3434  -21961563.39147 -16337450.82162
  19492846.9764  -25882314.10948   1487344.57862
 91  5  2  1 25 59.9950000  0  4G 2G 6G12G13
  21926533.9214    5115720.03646   5931508.28661
  21566818.9604   -1448806.36245   7700356.15461
  20248655.0934  -22001522.44748 -16368587.72462
  19496322.8354  -25864049.71648   1501576.55462
 91  5  2  1 26 14.9950000  0  4G 2G 6G12G13
  21932298.5774    5146020.16746   5955118.70461
  21575894.3434   -1401128.83945   7737507.34561
  20241071.9214  -22041365.53848 -16399634.26462
  19499810.8514  -25845718.09448   1515860.91362
 91  5  2  1 26 29.9950000  0  4G 2G 6G12G13
  21938077.8664    5176383.19046   5978778.11861
  21584980.6324   -1353370.39346   7774721.60761
  20233511.5464  -22081092.81148 -16430590.55362
  19503312.0774  -25827319.72248   1530197.28062
 91  5  2  1 26 44.9950000  0  4G 2G 6G12G13
  21943867.4684    5206810.81246   6002487.87061
  21594085.5154   -1305529.65146   7811999.99161
  20225972.4524  -22120702.13447 -16461454.93862
  19506826.1404  -25808853.53548   1544586.49062
 91  5  2  1 26 59.9950000  0  4G 2G 6G12G13
  21949670.4444    5237303.71046   6026248.49361
  21603206.4524   -1257606.12546   7849342.89061
  20218460.1084  -22160192.37847 -16492226.53862
  19510352.4214  -25790318.97148   1559028.99262
 91  5  2  1 27 14.9950000  0  4G 2G 6G12G13
  21955482.6244    5267858.61945   6050057.44461
  21612339.8274   -1209603.35845   7886747.53961
  20210966.7104  -22199566.36947 -16522907.53662
  19513892.1944  -25771719.39248   1573522.14562
 91  5  2  1 27 29.9950000  0  4G 2G 6G12G13
  21961309.6014    5298477.85145   6073916.51761
  21621490.1404   -1161519.38545   7924215.45661
  20203496.8584  -22238821.60647 -16553496.00462
  19517444.9764  -25753052.95248   1588067.40262
 91  5  2  1 27 44.9950000  0  4G 2G 6G12G13
  21967150.7264    5329163.08045   6097827.01061
  21630653.9134   -1113352.96345   7961747.62761
  20196048.9294  -22277956.22547 -16583990.47662
  19521010.8194  -25734318.13648   1602665.92662
 91  5  2  1 27 59.9950000  0  4G 2G 6G12G13
  21973002.1484    5359915.45445   6121789.82961
  21639837.3744   -1065103.14645   7999344.77461
  20188625.7334  -22316968.50747 -16614389.62862
  19524589.2104  -25715514.10148   1617318.39962
 91  5  2  1 28 14.9950000  0  4G 2G 6G12G13
  21978863.3274    5390727.26645   6145798.98561
  21649033.5074   -1016778.00845   8037000.62961
  20181221.6404  -22355865.80447 -16644699.18062
  19528179.0624  -25696648.97848   1632018.47662
 91  5  2  1 28 29.9950000  0  4G 2G 6G12G13
  21984740.4524    5421605.95945   6169860.23561
  21658247.4684    -968370.25345   8074720.84761
  20173843.5384  -22394640.07147 -16674912.87062
  19531780.8274  -25677715.21248   1646772.03962
 91  5  2  1 28 44.9950000  0  4G 2G 6G12G13
  21990629.3514    5452549.75245   6193972.20561
  21667472.4834    -919882.09345   8112503.73761
  20166487.3354  -22433292.86847 -16705031.91062
  19535396.7494  -25658714.83048   1661577.51062
 91  5  2  1 28 59.9950000  0  4G 2G 6G12G13
  21996530.7024    5483558.68045   6218134.93261
  21676714.5384    -871313.62845   8150349.19161
  20159156.5774  -22471823.83047 -16735056.01162
  19539025.3434  -25639648.00248   1676434.75862
 91  5  2  1 29 14.9950000  0  4G 2G 6G12G13
  22002444.6404    5514631.20845   6242347.21561
  21685971.7184    -822666.85945   8188255.65861
  20151845.7104  -22510234.10147 -16764986.07162
  19542666.0544  -25620516.52548   1691342.38262
 91  5  2  1 29 29.9950000  0  4G 2G 6G12G13
  22008370.9604    5545768.85246   6266610.21461
  21695244.8434    -773940.38045   8226224.24261
  20144561.4604  -22548521.68747 -16794820.52362
  19546318.2264  -25601319.18348   1706301.32862
 91  5  2  1 29 44.9950000  0  4G 2G 6G12G13
  22014309.3354    5576971.96946   6290924.23761
  21704533.2964    -725134.42545   8264254.74261
  20137299.1244  -22586686.03647 -16824558.93962
  19549983.3354  -25582056.08348   1721311.51062
 91  5  2  1 29 59.9950000  0  4G 2G 6G12G13
  22020258.1634    5608238.15246   6315287.41061
  21713834.6634    -676251.51545   8302345.21561
  20130058.5234  -22624729.11548 -16854202.85262
  19553661.6084  -25562729.65448   1736371.04162
 91  5  2  1 30 14.9950000  0  4G 2G 6G12G13
  22026219.8744    5639569.63946   6339701.46161
  21723151.5624    -627289.79545   8340497.09261
  20122845.1084  -22662648.33948 -16883750.25662
  19557351.0384  -25543337.90048   1751481.47762
 91  5  2  1 30 29.9950000  0  4G 2G 6G12G13
  22032195.9994    5670962.88446   6364163.64161
  21732483.0154    -578253.11245   8378707.38961
  20115651.3434  -22700446.99247 -16913203.71462
  19561053.6794  -25523884.63148   1766639.84562
 91  5  2  1 30 44.9950000  0  4G 2G 6G12G13
  22038180.6874    5702417.18946   6388673.40161
  21741830.9444    -529142.53045   8416975.26461
  20108481.4914  -22738125.35047 -16942563.44062
  19564767.6164  -25504370.86948   1781845.35062
 91  5  2  1 30 59.9950000  0  4G 2G 6G12G13
  22044178.3124    5733938.79746   6413235.60561
  21751189.5694    -479951.94345   8455305.48261
  20101336.8584  -22775676.60947 -16971824.13562
  19568492.7804  -25484790.58848   1797102.68962
 91  5  2  1 31 14.9950000  0  4G 2G 6G12G13
  22050186.7494    5765521.26146   6437845.22861
  21760564.0384    -430688.23445   8493692.68361
  20094213.4764  -22813107.03147 -17000990.67562
  19572229.6794  -25465150.51748   1812406.61862
 91  5  2  1 31 29.9950000  0  4G 2G 6G12G13
  22056209.6324    5797170.02846   6462506.52061
  21769951.4684    -381346.12145   8532140.95061
  20087113.6164  -22850410.71247 -17030058.44762
  19575980.3434  -25445445.31748   1827761.29462
 91  5  2  1 31 44.9950000  0  4G 2G 6G12G13
  22062244.6944    5828881.28846   6487216.50461
  21779357.2264    -331929.83345   8570647.01961
  20080038.8824  -22887591.16547 -17059030.19862
  19579742.2184  -25425679.04148   1843163.57062
 91  5  2  1 31 59.9950000  0  4G 2G 6G12G13
  22068290.5934    5860658.06346   6511977.54561
  21788777.1084    -282436.73345   8609212.94861
  20072987.6084  -22924644.96947 -17087903.26362
  19583516.3354  -25405848.88048   1858615.62062
 91  5  2  1 32 14.9950000  0  4G 2G 6G12G13
  22074349.4214    5892501.18146   6536790.29861
  21798208.8124    -232866.02345   8647839.34761
  20065962.5234  -22961570.86447 -17116676.65562
  19587302.3434  -25385954.20948   1874117.94162
 91  5  2  1 32 29.9950000  0  4G 2G 6G12G13
  22080423.0624    5924405.46846   6561650.69161
  21807653.9444    -183223.37345   8686521.81861
  20058959.5074  -22998373.71447 -17145354.16962
  19591099.4294  -25366000.43148   1889666.32162
 91  5  2  1 32 44.9950000  0  4G 2G 6G12G13
  22086505.7264    5956378.49145   6586564.67761
  21817116.3824    -133501.53645   8725266.00361
  20051979.1244  -23035045.67748 -17173929.69162
  19594908.4444  -25345980.40048   1905266.32762
 91  5  2  1 32 59.9950000  0  4G 2G 6G12G13
  22092601.4994    5988412.81845   6611526.42861
  21826593.7414     -83708.10545   8764065.97061
  20045024.4994  -23071593.70448 -17202408.63362
  19598729.5694  -25325901.54948   1920912.16962
 91  5  2  1 33 14.9950000  0  4G 2G 6G12G13
  22098710.2334    6020508.19045   6636535.74761
  21836085.6244     -33843.68445   8802921.25661
  20038093.9994  -23108017.59848 -17230790.85162
  19602561.0694  -25305764.15248   1936603.63462
 91  5  2  1 33 29.9950000  0  4G 2G 6G12G13
  22104827.7734    6052665.64845   6661593.44561
  21845584.8664      16092.44345   8841832.41461
  20031185.9444  -23144316.13247 -17259075.39762
  19606405.0074  -25285567.53748   1952341.23662
 91  5  2  1 33 44.9950000  0  4G 2G 6G12G13
  22110959.4914    6084887.11345   6686701.00361
  21855101.7414      66102.11345   8880800.87661
  20024300.4294  -23180486.71947 -17287260.25262
  19610258.2024  -25265309.80248   1968126.46162
 91  5  2  1 33 59.9950000  0  4G 2G 6G12G13
  22117104.3584    6117170.96745   6711857.19261
  21864632.3354     116183.15945   8919824.94061
  20017442.2264  -23216530.81647 -17315346.53762
  19614124.9374  -25244992.97548   1983957.73562
 91  5  2  1 34 14.9950000  0  4G 2G 6G12G13
  22123259.1874    6149516.39346   6737061.36561
  21874174.9214     166334.47745   8958903.76061
  20010607.7414  -23252449.08047 -17343334.77062
  19618002.4834  -25224618.32248   1999834.06762
 91  5  2  1 34 29.9950000  0  4G 2G 6G12G13
  22129426.5694    6181923.78246   6762313.80661
  21883730.2734     216556.14945   8998037.41961
  20003797.9684  -23288240.51548 -17371224.15762
  19621890.3044  -25204185.77348   2015755.51662
 91  5  2  1 34 44.9950000  0  4G 2G 6G12G13
  22135605.9604    6214396.86646   6787617.43361
  21893300.8664     266851.66545   9037228.58961
  19997010.4444  -23323901.09848 -17399011.58062
  19625791.3584  -25183691.71648   2031724.89262
 91  5  2  1 34 59.9950000  0  4G 2G 6G12G13
  22141798.0694    6246933.46546   6812970.55761
  21902886.2654     317218.38545   9076475.26161
  19990248.8744  -23359432.70747 -17426698.51062
  19629702.6404  -25163138.52748   2047740.34962
 91  5  2  1 35 14.9950000  0  4G 2G 6G12G13
  22148000.5694    6279535.91346   6838375.01461
  21912486.0464     367658.43745   9115779.07461
  19983512.4914  -23394832.67647 -17454282.87862
  19633623.2264  -25142524.04748   2063803.56862
 91  5  2  1 35 29.9950000  0  4G 2G 6G12G13
  22154216.4374    6312200.37246   6863827.76061
  21922095.1714     418167.81245   9155136.89861
  19976800.0074  -23430104.24047 -17481767.20763
  19637558.0304  -25121852.29448   2079911.40862
 91  5  2  1 35 44.9950000  0  4G 2G 6G12G13
  22160446.4134    6344930.10246   6889331.36661
  21931722.9214     468749.30245   9194550.92661
  19970115.6634  -23465243.97047 -17509148.80462
  19641503.0774  -25101120.33748   2096066.16262
 91  5  2  1 35 59.9950000  0  4G 2G 6G12G13
  22166685.0934    6377719.22345   6914881.25461
  21941358.4374     519396.69145   9234016.29061
  19963452.2414  -23500257.36948 -17536431.95962
  19645457.7804  -25080334.21148   2112263.13662
 91  5  2  1 36 14.9950000  0  4G 2G 6G12G13
  22172934.5234    6410572.40745   6940481.04161
  21951013.4134     570114.50444   9273536.51961
  19956816.2024  -23535139.32148 -17563612.66262
  19649423.6634  -25059489.46548   2128505.78562
 91  5  2  1 36 29.9950000  0  4G 2G 6G12G13
  22179201.1944    6443491.02945   6966131.84461
  21960675.7414     620903.95644   9313112.59861
  19950201.6554  -23569887.93448 -17590689.46362
  19653402.4994  -25038584.69348   2144795.20962
 91  5  2  1 36 44.9950000  0  4G 2G 6G12G13
  22185479.0544    6476475.88645   6991834.24561
  21970352.4214     671765.45844   9352744.82461
  19943614.8044  -23604502.14648 -17617661.53262
  19657390.8984  -25017619.41348   2161131.76862
 91  5  2  1 36 59.9950000  0  4G 2G 6G12G13
  22191767.7104    6509522.72745   7017584.97161
  21980047.7334     722694.37245   9392429.57961
  19937050.8194  -23638985.88947 -17644531.95362
  19661392.2494  -24996598.20248   2177511.91262
 91  5  2  1 37 14.9950000  0  4G 2G 6G12G13
  22198065.3744    6542629.13345   7043382.09061
  21989750.4374     773688.08745   9432164.82361
  19930511.4214  -23673341.20347 -17671302.31862
  19665402.2884  -24975523.55548   2193933.69762
 91  5  2  1 37 29.9950000  0  4G 2G 6G12G13
  22204377.2804    6575802.09345   7069231.09261
  21999470.2264     824753.20145   9471955.70561
  19924000.8984  -23707560.70047 -17697966.86463
  19669424.4294  -24954388.80048   2210402.32662
 91  5  2  1 37 44.9950000  0  4G 2G 6G12G13
  22210703.3434    6609038.25845   7095129.32461
  22009199.4054     875886.21845   9511799.49261
  19917517.2494  -23741647.42247 -17724527.93663
  19673458.1164  -24933197.39448   2226915.09562
 91  5  2  1 37 59.9950000  0  4G 2G 6G12G13
  22217042.4604    6642337.84845   7121076.99961
  22018942.4054     927086.98045   9551696.07361
  19911058.0464  -23775600.78648 -17750985.08263
  19677501.3354  -24911949.27848   2243472.05562
 91  5  2  1 38 14.9940000  0  4G 2G 6G12G13
  22223389.7214    6675698.48745   7147072.24061
  22028699.8694     978351.46345   9591642.29661
  19904621.0654  -23809418.52648 -17777336.54362
  19681554.7754  -24890646.42548   2260071.65762
 91  5  2  1 38 29.9940000  0  4G 2G 6G12G13
  22229749.0724    6709124.59145   7173118.51061
  22038467.6504    1029686.28945   9631643.35161
  19898209.6744  -23843104.70848 -17803585.48162
  19685619.9864  -24869286.38848   2276715.82962
 91  5  2  1 38 44.9940000  0  4G 2G 6G12G13
  22236120.2684    6742612.56645   7199212.96161
  22048245.7524    1081086.35545   9671695.22861
  19891825.0654  -23876657.96147 -17829730.84662
  19689693.4474  -24847872.09248   2293402.27162
 91  5  2  1 38 59.9940000  0  4G 2G 6G12G13
  22242509.0334    6776163.91945   7225356.76861
  22058043.7834    1132552.91845   9711798.93761
  19885462.8544  -23910076.27147 -17855771.06962
  19693779.0884  -24826401.95748   2310132.22862
 91  5  2  1 39 14.9940000  0  4G 2G 6G12G13
  22248904.9554    6809779.32145   7251550.55561
  22067847.7214    1184086.47345   9751954.80261
  19879129.9084  -23943358.68947 -17881705.40562
  19697876.2754  -24804875.43648   2326906.12562
 91  5  2  1 39 29.9940000  0  4G 2G 6G12G13
  22255313.3304    6843456.28045   7277792.24761
  22077666.0574    1235684.12345   9792160.66761
  19872824.2444  -23976507.40847 -17907535.55763
  19701983.0884  -24783295.45648   2343721.67962
 91  5  2  1 39 44.9940000  0  4G 2G 6G12G13
  22261732.1664    6877192.79145   7304080.36661
  22087497.3694    1287343.50145   9832414.55561
  19866540.9794  -24009524.10547 -17933262.83663
  19706099.4714  -24761664.31948   2360577.09062
 91  5  2  1 39 59.9940000  0  4G 2G 6G12G13
  22268164.5024    6910991.11345   7330416.63861
  22097340.4244    1339066.57645   9872718.12061
  19860283.2684  -24042406.11947 -17958885.16263
  19710225.0494  -24739979.75648   2377474.13962
 91  5  2  1 40 14.9940000  0  4G 2G 6G12G13
  22274607.6904    6944851.37445   7356801.15761
  22107195.9634    1390853.13045   9913071.15961
  19854051.8694  -24075153.17547 -17984402.32863
  19714362.2294  -24718241.84248   2394412.76062
 91  5  2  1 40 29.9940000  0  4G 2G 6G12G13
  22281065.6194    6978776.13545   7383235.94161
  22117060.6194    1442705.60645   9953475.54861
  19847848.4084  -24107762.12847 -18009811.88463
  19718509.6824  -24696448.16448   2411394.82462
 91  5  2  1 40 44.9940000  0  4G 2G 6G12G13
  22287532.0494    7012764.45745   7409720.26061
  22126942.3854    1494622.58045   9993930.20661
  19841667.3544  -24140233.64647 -18035114.35863
  19722667.6274  -24674600.11548   2428419.25662
 91  5  2  1 40 59.9940000  0  4G 2G 6G12G13
  22294007.7294    7046812.32545   7436251.01061
  22136829.7364    1546599.87045  10034431.87361
  19835512.5104  -24172571.42147 -18060312.60663
  19726835.7294  -24652702.09448   2445482.62962
 91  5  2  1 41 14.9940000  0  4G 2G 6G12G13
  22300501.8224    7080924.23745   7462831.65061
  22146735.6504    1598641.51845  10074983.70161
  19829387.4474  -24204770.72247 -18085402.95363
  19731012.4164  -24630749.72648   2462588.35462
 91  5  2  1 41 29.9940000  0  4G 2G 6G12G13
  22307005.9084    7115098.32144   7489460.71961
  22156650.0494    1650745.64745  10115584.21761
  19823286.1434  -24236832.76347 -18110386.33963
  19735199.6744  -24608744.55648   2479735.21962
 91  5  2  1 41 44.9940000  0  4G 2G 6G12G13
  22313520.1274    7149336.30845   7516139.61661
  22166581.3384    1702913.57145  10156234.42261
  19817209.9404  -24268755.66847 -18135261.30962
  19739395.7914  -24586685.32648   2496924.21962
 91  5  2  1 41 59.9940000  0  4G 2G 6G12G13
  22320047.7914    7183637.18944   7542867.50961
  22176518.3934    1755143.82245  10196933.20061
  19811161.0184  -24300540.11347 -18160028.38962
  19743604.9474  -24564573.27548   2514154.36662
 91  5  2  1 42 14.9940000  0  4G 2G 6G12G13
  22326586.8774    7217999.37444   7569643.17261
  22186468.8074    1807434.60745  10237679.14261
  19805139.1194  -24332187.37147 -18184688.56762
  19747820.7994  -24542410.21948   2531424.26362
 91  5  2  1 42 29.9940000  0  4G 2G 6G12G13
  22333139.0724    7252423.23344   7596466.86361
  22196431.1044    1859786.02545  10278472.29361
  19799144.0494  -24363696.58148 -18209241.17562
  19752047.4794  -24520195.77948   2548734.19862
 91  5  2  1 42 44.9940000  0  4G 2G 6G12G13
  22339698.2054    7286907.23144   7623337.46061
  22206405.4164    1912196.27845  10319311.34061
  19793173.0254  -24395068.93448 -18233687.14063
  19756284.9554  -24497932.03148   2566082.56362
 91  5  2  1 42 59.9940000  0  4G 2G 6G12G13
  22346272.7914    7321454.66244   7650257.47761
  22216391.0414    1964668.41045  10360198.55861
  19787231.3774  -24426300.76148 -18258023.60963
  19760530.7994  -24475615.58748   2583471.98362
 91  5  2  1 43 14.9940000  0  4G 2G 6G12G13
  22352858.1434    7356062.55643   7677224.58261
  22226386.2294    2017199.24745  10401131.54661
  19781313.7834  -24457394.63648 -18282252.58363
  19764787.2134  -24453249.61948   2600899.99762
 91  5  2  1 43 29.9940000  0  4G 2G 6G12G13
  22359459.3694    7390736.87144   7704243.44461
  22236395.0414    2069794.42545  10442114.66361
  19775422.7684  -24488344.25747 -18306369.16063
  19769054.4244  -24430828.07248   2618371.30762
 91  5  2  1 43 44.9940000  0  4G 2G 6G12G13
  22366071.2604    7425473.84045   7731311.16161
  22246416.7994    2122449.77345  10483144.67761
  19769560.3464  -24519153.12247 -18330376.06263
  19773329.6114  -24408355.15148   2635882.67862
 91  5  2  1 43 59.9940000  0  4G 2G 6G12G13
  22372689.6434    7460271.63044   7758426.27461
  22256444.6274    2175163.17245  10524219.92061
  19763723.8614  -24549822.70448 -18354274.42163
  19777615.0414  -24385832.97148   2653432.40162
 91  5  2  1 44 14.9940000  0  4G 2G 6G12G13
  22379325.1664    7495129.50244   7785588.20161
  22266487.7994    2227933.61445  10565339.62361
  19757914.2684  -24580353.42748 -18378064.56662
  19781910.8774  -24363262.46448   2671019.79962
 91  5  2  1 44 29.9940000  0  4G 2G 6G12G13
  22385968.3154    7530051.58744   7812800.09361
  22276542.8074    2280764.92845  10606506.74661
  19752131.2994  -24610740.74448 -18401742.96562
  19786218.1194  -24340639.80448   2688647.82762
 91  5  2  1 44 44.9940000  0  4G 2G 6G12G13
  22392627.9084    7565034.19544   7840059.22161
  22286607.8854    2333653.03345  10647718.12961
  19746376.8934  -24640988.07147 -18425312.28262
  19790532.2294  -24317968.87248   2706313.47262
 91  5  2  1 44 59.9940000  0  4G 2G 6G12G13
  22399296.0884    7600074.81944   7867363.55661
  22296680.5254    2386595.20145  10688971.63561
  19740648.0574  -24671097.50347 -18448774.15362
  19794855.4324  -24295252.29148   2724014.68462
 91  5  2  1 45 14.9940000  0  4G 2G 6G12G13
  22405977.5884    7635178.21644
  22306765.2914    2439596.01545  10730270.82961
  19734944.5884  -24701063.78947 -18472124.48062
  19799187.5884  -24272485.23748   2741755.22962
 91  5  2  1 45 29.9940000  0  4G 2G 6G12G13
  22412668.3544    7670342.77745
  22316863.2134    2492653.32745  10771614.08061
  19729268.8224  -24730888.48047 -18495364.48763
  19803528.6744  -24249669.81248   2759533.46762
 91  5  2  1 45 44.9940000  0  4G 2G 6G12G13
  22419373.4794    7705566.30644
  22326969.7054    2545764.91045  10812999.59861
  19723621.4554  -24760573.20648 -18518495.42463
  19807879.3774  -24226807.97748   2777347.86362
 91  5  2  1 45 59.9940000  0  4G 2G 6G12G13
  22426084.1274    7740851.28244
  22337085.4634    2598932.86345  10854429.03161
  19718001.4324  -24790115.24648 -18541515.17163
  19812240.3154  -24203897.78548   2795199.94462
 91  5  2  1 46 14.9940000  0  4G 2G 6G12G13
  22432813.3774    7776199.74344
  22347217.0254    2652158.79045  10895903.63561
  19712405.8544  -24819512.41648 -18564422.03263
  19816608.5964  -24180937.43448   2813091.12062
 91  5  2  1 46 29.9940000  0  4G 2G 6G12G13
  22439550.4864    7811607.06145
  22357356.6744    2705438.02945  10937419.77361
  19706835.4554  -24848768.73547 -18587219.14463
  19820985.7604  -24157931.40948   2831017.87762
 91  5  2  1 46 44.9940000  0  4G 2G 6G12G13
  22446298.5494    7847075.20744
  22367505.5494    2758772.29245  10978978.79361
  19701295.4244  -24877881.85747 -18609904.67763
  19825373.2604  -24134877.93748   2848981.60062
 91  5  2  1 46 59.9940000  0  4G 2G 6G12G13
  22453058.9404    7882606.27344
  22377665.6114    2812163.31145  11020582.02361
  19695783.0494  -24906849.36547 -18632476.73962
  19829770.9474  -24111775.15448   2866983.75762
 91  5  2  1 47 14.9940000  0  4G 2G 6G12G13
  22459835.3934    7918198.88244
  22387834.3304    2865609.34845  11062228.13461
  19690300.4324  -24935672.32147 -18654936.15662
  19834176.2054  -24088624.75248   2885023.02162
 91  5  2  1 47 29.9940000  0  4G 2G 6G12G13
  22466615.6194    7953847.65444
  22398015.0884    2919104.76645  11103912.73861
  19684843.1584  -24964355.78648 -18677286.87562
  19838588.9004  -24065432.12648   2903095.18262
 91  5  2  1 47 44.9940000  0  4G 2G 6G12G13
  22473410.1434    7989557.32543
  22408205.8934    2972653.96745  11145639.22961
  19679414.9324  -24992894.70648 -18699524.95362
  19843010.7054  -24042192.83348   2921203.70661
 91  5  2  1 47 59.9940000  0  4G 2G 6G12G13
  22480219.4084    8025329.91043
  22418407.4554    3026258.76645  11187409.07561
  19674011.6044  -25021286.72748 -18721648.56363
  19847441.9164  -24018904.92448   2939350.11362
 91  5  2  1 48 14.9940000  0  4G 2G 6G12G13
  22487034.6274    8061162.87243
  22428615.8614    3079916.41445  11229220.09561
  19668634.3774  -25049533.92248 -18743659.33163
  19851882.4944  -23995571.04248   2957532.34462
 91  5  2  1 48 29.9940000  0  4G 2G 6G12G13
  22493868.1354    8097055.28143
  22438836.8614    3133625.62445  11271071.30261
  19663285.2134  -25077636.87048 -18765557.71463
  19856329.9004  -23972192.21948   2975749.59862
 91  5  2  1 48 44.9940000  0  4G 2G 6G12G13
  22500711.5104    8133010.88343
  22449070.5884    3187389.87945  11312965.39161
  19657965.6584  -25105591.50948 -18787340.53463
  19860787.7294  -23948765.04148   2994004.51862
 91  5  2  1 48 59.9940000  0  4G 2G 6G12G13
  22507561.9404    8169025.91143
  22459311.5414    3241204.86845  11354898.97661
  19652671.9474  -25133401.59748 -18809010.71663
  19865255.7134  -23925293.70748   3012293.86062
 91  5  2  1 49 14.9940000  0  4G 2G 6G12G13
  22514427.6584    8205102.24442
  22469560.5884    3295072.37445  11396873.47561
  19647408.6194  -25161064.78148 -18830566.41463
  19869731.7134  -23901776.53048   3030618.92161
 91  5  2  1 49 29.9940000  0  4G 2G 6G12G13
  22521304.5724    8241236.52742
  22479819.9944    3348988.86145  11438886.17961
  19642172.7294  -25188583.73748 -18852009.72663
  19874213.8694  -23878216.55648   3048977.32562
 91  5  2  1 49 44.9940000  0  4G 2G 6G12G13
  22528199.0574    8277431.14242
  22490088.0184    3402956.46245  11480938.63561
  19636961.2054  -25215955.80447 -18873338.57662
  19878708.0724  -23854611.50248   3067370.85362
 91  5  2  1 49 59.9940000  0  4G 2G 6G12G13
  22535093.4474    8313684.10241
  22500364.6904    3456972.85644  11523029.16261
  19631779.2444  -25243182.75947 -18894554.35262
  19883208.3304  -23830963.71148   3085797.69362
 91  5  2  1 50 14.9940000  0  3G 6G12G13
  22510655.2834    3511037.85843  11565157.59561
  19626628.6354  -25270264.23648 -18915656.78562
  19887716.0334  -23807273.33748   3104257.71261
 91  5  2  1 50 29.9940000  0  3G 6G12G13
  22520951.9554    3565153.67343  11607325.61761
  19621506.1824  -25297197.37648 -18936643.62162
  19892231.6974  -23783538.11648   3122752.67661
 91  5  2  1 50 44.9940000  0  3G 6G12G13
  22531254.8304    3619319.03143  11649532.26761
  19616407.2444  -25323982.74548 -18957515.30762
  19896755.7684  -23759758.93748   3141281.88361
 91  5  2  1 50 59.9940000  0  3G 6G12G13
  22541578.5654    3673533.06343  11691776.82761
  19611338.5884  -25350620.68848 -18978272.11862
  19901289.4474  -23735936.89748   3159844.49961
 91  5  2  1 51 14.9940000  0  3G 6G12G13
  22551903.2604    3727793.10044  11734057.23361
  19606300.1114  -25377113.09348 -18998915.52163
  19905830.4164  -23712074.16248   3178438.82261
 91  5  2  1 51 29.9940000  0  3G 6G12G13
  22562238.9324    3782104.11645  11776377.32261
  19601285.7214  -25403454.54448 -19019441.30363
  19910379.7604  -23688165.91548   3197068.61461
 91  5  2  1 51 44.9940000  0  3G 6G12G13
  22572586.2684    3836465.34345  11818736.56761
  19596300.2994  -25429645.27948 -19039849.65063
  19914938.2444  -23664212.54448   3215733.56161
 91  5  2  1 51 59.9940000  0  3G 6G12G13
  22582938.5574    3890876.57545  11861134.70361
  19591343.3774  -25455684.77447 -19060140.15463
  19919504.8614  -23640214.16248   3234433.58761
 91  5  2  1 52 14.9940000  0  3G 6G12G13
  22593304.0024    3945333.05845  11903568.16961
  19586419.6354  -25481577.09147 -19080315.97463
  19924079.0334  -23616175.53648   3253164.97661
 91  5  2  1 52 29.9940000  0  3G 6G12G13
  22603674.8774    3999837.00645  11946038.60161
  19581519.4554  -25507319.48948 -19100374.97063
  19928662.7294  -23592094.33848   3271929.53361
 91  5  2  1 52 44.9940000  0  3G 6G12G13
  22614056.0104    4054387.00144  11988544.88361
  19576648.2524  -25532912.89248 -19120317.85663
  19933252.9404  -23567971.59748   3290726.46461
 91  5  2  1 52 59.9940000  0  3G 6G12G13
  22624442.4474    4108981.35544  12031085.77261
  19571807.1044  -25558358.29748 -19140145.42563
  19937850.8304  -23543808.97448   3309554.46961
 91  5  2  1 53 14.9940000  0  3G 6G12G13
  22634839.8384    4163624.02344  12073664.31461
  19566994.4164  -25583651.21648 -19159854.16363
  19942457.6904  -23519602.37548   3328416.74261
 91  5  2  1 53 29.9940000  0  3G 6G12G13
  22645246.8074    4218308.14744  12116275.15961
  19562208.2294  -25608797.79448 -19179448.88062
  19947070.2914  -23495358.51448   3347308.05261
 91  5  2  1 53 44.9940000  0  3G 6G12G13
  22655663.1044         -0.09354
  19557451.0494  -25633794.31648 -19198926.66762
  19951691.5104  -23471074.09648   3366230.96061
 91  5  2  1 53 59.9940000  0  3G 6G12G13
  22666085.8304      54770.75144
  19552721.6504  -25658642.60047 -19218288.94462
  19956319.8304  -23446751.61948   3385183.51761
 91  5  2  1 54 14.9940000  0  3G 6G12G13
  22676516.5574     109586.31544
  19548021.2054  -25683339.60547 -19237533.34862
  19960956.5964  -23422388.46048   3404167.78462
 91  5  2  1 54 29.9940000  0  3G 6G12G13
  22686955.3384     164448.68045        -0.31271
  19543351.7364  -25707882.61147 -19256657.74662
  19965599.1354  -23397982.32448   3423185.53862
 91  5  2  1 54 44.9940000  0  3G 6G12G13
  22697406.6194     219357.48545     42785.59661
  19538710.5184  -25732271.31147 -19275661.90262
  19970252.8774  -23373533.21748   3442236.77062
 91  5  2  1 54 59.9940000  0  3G 6G12G13
  22707863.2604     274306.46345     85602.81461
  19534097.7914  -25756511.40647 -19294550.27963
  19974912.1584  -23349047.50748   3461316.51862
 91  5  2  1 55 14.9940000  0  3G 6G12G13
  22718325.2054     329297.96145
  19529513.8304  -25780599.86747 -19313320.49763
  19979580.8614  -23324522.65548   3480426.77962
 91  5  2  1 55 29.9940000  0  3G 6G12G13
  22728800.9084     384327.70445
  19524958.3614  -25804540.56447 -19331975.57763
  19984253.6274  -23299962.73348   3499564.36861
 91  5  2  1 55 44.9940000  0  3G 6G12G13
  22739277.7684     439397.29445
  19520430.0654  -25828331.18347 -19350513.71163
  19988934.9794  -23275366.15148   3518730.52262
 91  5  2  1 55 59.9940000  0  3G 6G12G13
  22749764.7994     494507.67345        -0.12471
  19515933.9404  -25851970.16948 -19368933.68463
  19993621.4554  -23250731.68748   3537926.18562
 91  5  2  1 56 14.9940000  0  3G 6G12G13
  22760261.2914     549660.53644     42975.94861
  19511464.6044  -25875455.32948 -19387233.79063
  19998317.2684  -23226057.37748   3557152.90761
 91  5  2  1 56 29.9940000  0  3G 6G12G13
  22770763.9794     604855.98244     85985.24861
  19507024.9864  -25898785.92648 -19405413.45262
  20003020.6354  -23201343.14348   3576410.74162
 91  5  2  1 56 44.9940000  0  3G 6G12G13
  22781277.0024     660091.45444    129025.68061
  19502614.4084  -25921963.94547 -19423474.22162
  20007730.5024  -23176591.38648   3595697.80961
 91  5  2  1 56 59.9940000  0  3G 6G12G13
  22791794.6114     715365.08844    172095.87361
  19498232.4244  -25944990.72647 -19441417.15462
  20012448.9634  -23151803.98848   3615012.65161
 91  5  2  1 57 14.9940000  0  3G 6G12G13
  22802316.9864     770681.00044    215198.99761
  19493878.4794  -25967861.35447 -19459238.41762
  20017172.5024  -23126976.40148   3634358.81062
 91  5  2  1 57 29.9940000  0  4G 6G12G13G20
  22812852.9634     826034.27144    258331.23161
  19489557.6354  -25990580.38347 -19476941.54563
  20021902.0804  -23102113.74348   3653732.29061
  23442638.8544         -0.99553
 91  5  2  1 57 44.9940000  0  4G 6G12G13G20
  22823393.3224     881425.37844    301492.95261
  19485264.6044  -26013146.65148 -19494525.64363
  20026639.9944  -23077215.02848   3673133.86961
  23432307.8464     -54280.76744
 91  5  2  1 57 59.9940000  0  4G 6G12G13G20
  22833941.2054     936856.59243    344685.92561
  19480999.9554  -26035557.39148 -19511988.55263
  20031385.7604  -23052278.08248   3692565.24461
  23421977.8224    -108565.91444
 91  5  2  1 58 14.9940000  0  4G 6G12G13G20
  22844496.8074                         -0.42053
  19476762.6194  -26057813.41748 -19529330.90263
  20036138.7364  -23027304.15448   3712025.43661
  23411648.8614    -162857.08344
 91  5  2  1 58 29.9940000  0  4G 6G12G13G20
  22855059.1824                      55508.13544
  19472558.9944  -26079914.40748 -19546552.44263
  20040897.7684  -23002293.25148   3731514.44061
  23401316.5494    -217154.16244
 91  5  2  1 58 44.9940000  0  4G 6G12G13G20
  22865629.9164                     111052.91344
  19468380.0184  -26101862.06847 -19563654.50162
  20045664.8854  -22977247.54148   3751030.56162
  23390976.9714    -271458.80144
 91  5  2  1 58 59.9940000  0  4G 6G12G13G20
  22876207.8934     166632.87345        -0.36271
  19464232.5184  -26123656.78747 -19580637.38362
  20050437.0964  -22952167.87748   3770573.14561
  23380641.2294    -325771.47844        -0.13671
 91  5  2  1 59 14.9940000  0  4G 6G12G13G20
  22886793.8304     222248.86945     43336.56261
  19460112.7914  -26145297.26947 -19597500.07762
  20055217.4554  -22927053.09648   3790143.09961
  23370311.5184    -380090.91944    -42326.95561
 91  5  2  1 59 29.9940000  0  4G 6G12G13G20
  22897383.1664     277903.96745     86703.95161
  19456026.5884  -26166779.82947 -19614239.71762
  20060001.5574  -22901900.10548   3809742.82561
  23359971.4634    -434413.59045    -84656.25761
 91  5  2  1 59 44.9940000  0  4G 6G12G13G20
  22907981.2444     333594.98945    130099.37961
  19451967.7754  -26188107.09547 -19630858.34562
  20064793.5104  -22876712.13148   3829369.80061
  23349635.6114    -488742.27444   -126990.24061
